[[{"header":{"parameterUnit":"m.s-1","parameterCategory":1,"la1":30.6,"la2":28.766,"lo1":-90.7593,"lo2":-88.6598,"dy":0.0162,"dx":0.0183,"nx":116,"ny":114,"refTime":"2023-03-05T06:00:00:Z","depth":0,"parameterNumber":2,"parameterNumberName":"U-component_of_WINDS"},"data":[0.0,0.0,0.0,0.0,0.0,0.0,0.0,0.0,0.0,0.0,0.0,0.0,0.0,0.0,0.0,0.0,0.0,0.0,0.0,0.0,0.0,0.0,0.0,0.0,0.0,0.0,0.0,0.0,0.0,0.0,0.0,0.0,0.0,0.0,0.0,0.0,0.0,0.0,0.0,0.0,0.0,0.0,0.0,0.0,0.0,0.0,0.0,0.0,0.0,0.0,0.0,0.0,0.0,0.0,0.0,0.0,0.0,0.0,0.0,0.0,0.0,0.0,0.0,0.0,0.0,0.0,0.0,0.0,0.0,0.0,0.0,0.0,0.0,0.0,0.0,0.0,0.0,0.0,0.0,0.0,0.0,0.0,0.0,0.0,0.0,0.0,0.0,0.0,0.0,0.0,0.0,0.0,0.0,0.0,0.0,0.0,0.0,0.0,0.0,0.0,0.0,0.0,0.0,0.0,0.0,0.0,0.0,0.0,0.0,0.0,0.0,0.0,0.0,0.0,0.0,0.0,0.0,0.0,0.0,0.0,0.0,0.0,0.0,0.0,0.0,0.0,0.0,0.0,0.0,0.0,0.0,0.0,0.0,0.0,0.0,0.0,0.0,0.0,0.0,0.0,0.0,0.0,0.0,0.0,0.0,0.0,0.0,0.0,0.0,0.0,0.0,0.0,0.0,0.0,0.0,0.0,0.0,0.0,0.0,0.0,0.0,0.0,0.0,0.0,0.0,0.0,0.0,0.0,0.0,0.0,0.0,0.0,0.0,0.0,0.0,0.0,0.0,0.0,0.0,0.0,0.0,0.0,0.0,0.0,0.0,0.0,0.0,0.0,0.0,0.0,0.0,0.0,0.0,0.0,0.0,0.0,0.0,0.0,0.0,0.0,0.0,0.0,0.0,0.0,0.0,0.0,0.0,0.0,0.0,0.0,0.0,0.0,0.0,0.0,0.0,0.0,0.0,0.0,0.0,0.0,0.0,0.0,0.0,0.0,0.0,0.0,0.0,0.0,0.0,0.0,0.0,0.0,0.0,0.0,0.0,0.0,0.0,0.0,0.0,0.0,0.0,0.0,0.0,0.0,0.0,0.0,0.0,0.0,0.0,0.0,0.0,0.0,0.0,0.0,0.0,0.0,0.0,0.0,0.0,0.0,0.0,0.0,0.0,0.0,0.0,0.0,0.0,0.0,0.0,0.0,0.0,0.0,0.0,0.0,0.0,0.0,0.0,0.0,0.0,0.0,0.0,0.0,0.0,0.0,0.0,0.0,0.0,0.0,0.0,0.0,0.0,0.0,0.0,0.0,0.0,0.0,0.0,0.0,0.0,0.0,0.0,0.0,0.0,0.0,0.0,0.0,0.0,0.0,0.0,0.0,0.0,0.0,0.0,0.0,0.0,0.0,0.0,0.0,0.0,0.0,0.0,0.0,0.0,0.0,0.0,0.0,0.0,0.0,0.0,0.0,0.0,0.0,0.0,0.0,0.0,0.0,0.0,0.0,0.0,0.0,0.0,0.0,0.0,0.0,0.0,0.0,0.0,0.0,0.0,0.0,0.0,0.0,0.0,0.0,0.0,0.0,0.0,0.0,0.0,0.0,0.0,0.0,0.0,0.0,0.0,0.0,0.0,0.0,0.0,0.0,0.0,0.0,0.0,0.0,0.0,0.0,0.0,0.0,0.0,0.0,0.0,0.0,0.0,0.0,0.0,0.0,0.0,0.0,0.0,0.0,0.0,0.0,0.0,0.0,0.0,0.0,0.0,0.0,0.0,0.0,0.0,0.0,0.0,0.0,0.0,0.0,0.0,0.0,0.0,0.0,0.0,0.0,0.0,0.0,0.0,0.0,0.0,0.0,0.0,0.0,0.0,0.0,0.0,0.0,0.0,0.0,0.0,0.0,0.0,0.0,0.0,0.0,0.0,0.0,0.0,0.0,0.0,0.0,0.0,0.0,0.0,0.0,0.0,0.0,0.0,0.0,0.0,0.0,0.0,0.0,0.0,0.0,0.0,0.0,0.0,0.0,0.0,0.0,0.0,0.0,0.0,0.0,0.0,0.0,0.0,0.0,0.0,0.0,0.0,0.0,0.0,0.0,0.0,0.0,0.0,0.0,0.0,0.0,0.0,0.0,0.0,0.0,0.0,0.0,0.0,0.0,0.0,0.0,0.0,0.0,0.0,0.0,0.0,0.0,0.0,0.0,0.0,0.0,0.0,0.0,0.0,0.0,0.0,0.0,0.0,0.0,0.0,0.0,0.0,0.0,0.0,0.0,0.0,0.0,0.0,0.0,0.0,0.0,0.0,0.0,0.0,0.0,0.0,0.0,0.0,0.0,0.0,0.0,0.0,0.0,0.0,0.0,0.0,0.0,0.0,0.0,0.0,0.0,0.0,0.0,0.0,0.0,0.0,0.0,0.0,0.0,0.0,0.0,0.0,0.0,0.0,0.0,0.0,0.0,0.0,0.0,0.0,0.0,0.0,0.0,0.0,0.0,0.0,0.0,0.0,0.0,0.0,0.0,0.0,0.0,0.0,0.0,0.0,0.0,0.0,0.0,0.0,0.0,0.0,0.0,0.0,0.0,0.0,0.0,0.0,0.0,0.0,0.0,0.0,0.0,0.0,0.0,0.0,0.0,0.0,0.0,0.0,0.0,0.0,0.0,0.0,0.0,0.0,0.0,0.0,0.0,0.0,0.0,0.0,0.0,0.0,0.0,0.0,0.0,0.0,0.0,0.0,0.0,0.0,0.0,0.0,0.0,0.0,0.0,0.0,0.0,0.0,0.0,0.0,0.0,0.0,0.0,0.0,0.0,0.0,0.0,0.0,0.0,0.0,0.0,0.0,0.0,0.0,0.0,0.0,0.0,0.0,0.0,0.0,0.0,0.0,0.0,0.0,0.0,0.0,0.0,0.0,0.0,0.0,0.0,0.0,0.0,0.0,0.0,0.0,0.0,0.0,0.0,0.0,0.0,0.0,0.0,0.0,0.0,0.0,0.0,0.0,0.0,0.0,0.0,0.0,0.0,0.0,0.0,0.0,0.0,0.0,0.0,0.0,0.0,0.0,0.0,0.0,0.0,0.0,0.0,0.0,0.0,0.0,0.0,0.0,0.0,0.0,0.0,0.0,0.0,0.0,0.0,0.0,0.0,0.0,0.0,0.0,0.0,0.0,0.0,0.0,0.0,0.0,0.0,0.0,0.0,0.0,0.0,0.0,0.0,0.0,0.0,0.0,0.0,0.0,0.0,0.0,0.0,0.0,0.0,0.0,0.0,0.0,0.0,0.0,0.0,0.0,0.0,0.0,0.0,0.0,0.0,0.0,0.0,0.0,0.0,0.0,0.0,0.0,0.0,0.0,0.0,0.0,0.0,0.0,0.0,0.0,0.0,0.0,0.0,0.0,0.0,0.0,0.0,0.0,0.0,0.0,0.0,0.0,0.0,0.0,0.0,0.0,0.0,0.0,0.0,0.0,0.0,0.0,0.0,0.0,0.0,0.0,0.0,0.0,0.0,0.0,0.0,0.0,0.0,0.0,0.0,0.0,0.0,0.0,0.0,0.0,0.0,0.0,0.0,0.0,0.0,0.0,0.0,0.0,0.0,0.0,0.0,0.0,0.0,0.0,0.0,0.0,0.0,0.0,0.0,0.0,0.0,0.0,0.0,0.0,0.0,0.0,0.0,0.0,0.0,0.0,0.0,0.0,0.0,0.0,0.0,0.0,0.0,0.0,0.0,0.0,0.0,0.0,0.0,0.0,0.0,0.0,0.0,0.0,0.0,0.0,0.0,0.0,0.0,0.0,0.0,0.0,0.0,0.0,0.0,0.0,0.0,0.0,0.0,0.0,0.0,0.0,0.0,0.0,0.0,0.0,0.0,0.0,0.0,0.0,0.0,0.0,0.0,0.0,0.0,0.0,0.0,0.0,0.0,0.0,0.0,0.0,0.0,0.0,0.0,0.0,0.0,0.0,0.0,0.0,0.0,0.0,0.0,0.0,0.0,0.0,0.0,0.0,0.0,0.0,0.0,0.0,0.0,0.0,0.0,0.0,0.0,0.0,0.0,0.0,0.0,0.0,0.0,0.0,0.0,0.0,0.0,0.0,0.0,0.0,0.0,0.0,0.0,0.0,0.0,0.0,0.0,0.0,0.0,0.0,0.0,0.0,0.0,0.0,0.0,0.0,0.0,0.0,0.0,0.0,0.0,0.0,0.0,0.0,0.0,0.0,0.0,0.0,0.0,0.0,0.0,0.0,0.0,0.0,0.0,0.0,0.0,0.0,0.0,0.0,0.0,0.0,0.0,0.0,0.0,0.0,0.0,0.0,0.0,0.0,0.0,0.0,0.0,0.0,0.0,0.0,0.0,0.0,0.0,0.0,0.0,0.0,0.0,0.0,0.0,0.0,0.0,0.0,0.0,0.0,0.0,0.0,0.0,0.0,0.0,0.0,0.0,0.0,0.0,0.0,0.0,0.0,0.0,0.0,0.0,0.0,0.0,0.0,0.0,0.0,0.0,0.0,0.0,0.0,0.0,0.0,0.0,0.0,0.0,0.0,0.0,0.0,0.0,0.0,0.0,0.0,0.0,0.0,0.0,0.0,0.0,0.0,0.0,0.0,0.0,0.0,0.0,0.0,0.0,0.0,0.0,0.0,0.0,0.0,0.0,0.0,0.0,0.0,0.0,0.0,0.0,0.0,0.0,0.0,0.0,0.0,0.0,0.0,0.0,0.0,0.0,0.0,0.0,0.0,0.0,0.0,0.0,0.0,0.0,0.0,0.0,0.0,0.0,0.0,0.0,0.0,0.0,0.0,0.0,0.0,0.0,0.0,0.0,0.0,0.0,0.0,0.0,0.0,0.0,0.0,0.0,0.0,0.0,0.0,0.0,0.0,0.0,0.0,0.0,0.0,0.0,0.0,0.0,0.0,0.0,0.0,0.0,0.0,0.0,0.0,0.0,0.0,0.0,0.0,0.0,0.0,0.0,0.0,0.0,0.0,0.0,0.0,0.0,0.0,0.0,0.0,0.0,0.0,0.0,0.0,0.0,0.0,0.0,0.0,0.0,0.0,0.0,0.0,0.0,0.0,0.0,0.0,0.0,0.0,0.0,0.0,0.0,0.0,0.0,0.0,0.0,0.0,0.0,0.0,0.0,0.0,0.0,0.0,0.0,0.0,0.0,0.0,0.0,0.0,0.0,0.0,0.0,0.0,0.0,0.0,0.0,0.0,0.0,0.0,0.0,0.0,0.0,0.0,0.0,0.0,0.0,0.0,0.0,0.0,0.0,0.0,0.0,0.0,0.0,0.0,0.0,0.0,0.0,0.0,0.0,0.0,0.0,0.0,0.0,0.0,0.0,0.0,0.0,0.0,0.0,0.0,0.0,0.0,0.0,0.0,0.0,0.0,0.0,0.0,0.0,0.0,0.0,0.0,0.0,0.0,0.0,0.0,0.0,0.0,0.0,0.0,0.0,0.0,0.0,0.0,0.0,0.0,0.0,0.0,0.0,0.0,0.0,0.0,0.0,0.0,0.0,0.0,0.0,0.0,0.0,0.0,0.0,0.0,0.0,0.0,0.0,0.0,0.0,0.0,0.0,0.0,0.0,0.0,0.0,0.0,0.0,0.0,0.0,0.0,0.0,0.0,0.0,0.0,0.0,0.0,0.0,0.0,0.0,0.0,0.0,0.0,0.0,0.0,0.0,0.0,0.0,0.0,0.0,0.0,0.0,0.0,0.0,0.0,0.0,0.0,0.0,0.0,0.0,0.0,0.0,0.0,0.0,0.0,0.0,0.0,0.0,0.0,0.0,0.0,0.0,0.0,0.0,0.0,0.0,0.0,0.0,0.0,0.0,0.0,0.0,0.0,0.0,0.0,0.0,0.0,0.0,0.0,0.0,0.0,0.0,0.0,0.0,0.0,0.0,0.0,0.0,0.0,0.0,0.0,0.0,0.0,0.0,0.0,0.0,0.0,0.0,0.0,0.0,0.0,0.0,0.0,0.0,0.0,0.0,0.0,0.0,0.0,0.0,0.0,0.0,0.0,0.0,0.0,0.0,0.0,0.0,0.0,0.0,0.0,0.0,0.0,0.0,0.0,0.0,0.0,0.0,0.0,0.0,-7.7226,-7.6256,0.0,0.0,0.0,0.0,0.0,0.0,0.0,0.0,0.0,0.0,0.0,0.0,0.0,0.0,0.0,0.0,0.0,0.0,0.0,0.0,0.0,0.0,0.0,0.0,0.0,0.0,0.0,0.0,0.0,0.0,0.0,0.0,0.0,0.0,0.0,0.0,0.0,0.0,-5.496,-5.4972,-5.5352,-5.4682,-5.4202,-5.3752,0.0,0.0,0.0,0.0,0.0,0.0,0.0,0.0,0.0,0.0,0.0,0.0,0.0,0.0,0.0,0.0,0.0,0.0,0.0,0.0,0.0,0.0,0.0,0.0,0.0,0.0,0.0,0.0,0.0,0.0,0.0,0.0,0.0,0.0,0.0,0.0,0.0,0.0,0.0,0.0,0.0,0.0,0.0,0.0,0.0,0.0,0.0,0.0,0.0,0.0,0.0,0.0,0.0,0.0,0.0,0.0,0.0,0.0,0.0,0.0,0.0,0.0,0.0,0.0,0.0,0.0,0.0,0.0,0.0,0.0,-7.7251,-7.7385,0.0,0.0,0.0,0.0,0.0,0.0,0.0,0.0,0.0,0.0,0.0,0.0,0.0,0.0,0.0,0.0,0.0,0.0,0.0,0.0,0.0,0.0,0.0,0.0,-5.8135,-5.8127,-5.8059,-5.7934,0.0,0.0,0.0,0.0,0.0,0.0,0.0,-5.5791,-5.535,-5.4896,-5.536,-5.5595,-5.5591,-5.57,-5.5463,-5.4939,-5.3988,0.0,0.0,0.0,0.0,0.0,0.0,0.0,0.0,0.0,0.0,0.0,0.0,0.0,0.0,0.0,0.0,0.0,0.0,0.0,0.0,0.0,0.0,0.0,0.0,0.0,0.0,0.0,0.0,0.0,0.0,0.0,0.0,0.0,0.0,0.0,0.0,0.0,0.0,0.0,0.0,0.0,0.0,0.0,0.0,0.0,0.0,0.0,0.0,0.0,0.0,0.0,0.0,0.0,0.0,0.0,0.0,0.0,0.0,0.0,0.0,0.0,0.0,0.0,-7.6538,-7.6739,-7.6641,-7.7085,-7.7322,-7.739,-7.7549,-7.8878,-8.0883,-7.9759,0.0,0.0,0.0,0.0,0.0,0.0,0.0,0.0,0.0,0.0,0.0,0.0,0.0,0.0,0.0,0.0,0.0,0.0,0.0,0.0,0.0,-5.6008,-5.6637,-5.661,-5.7205,-5.7382,0.0,0.0,0.0,0.0,0.0,0.0,-5.6879,-5.6033,-5.5651,-5.572,-5.6419,-5.6586,-5.6287,-5.6807,-5.7021,-5.6932,-5.7006,-5.7244,-5.7564,0.0,0.0,0.0,0.0,0.0,0.0,0.0,0.0,0.0,0.0,0.0,0.0,0.0,0.0,0.0,0.0,0.0,0.0,0.0,0.0,0.0,0.0,0.0,0.0,0.0,0.0,0.0,0.0,0.0,0.0,0.0,0.0,0.0,0.0,0.0,0.0,0.0,0.0,0.0,0.0,0.0,-7.4729,-7.6255,0.0,0.0,0.0,0.0,0.0,0.0,0.0,0.0,0.0,0.0,0.0,0.0,0.0,-7.538,-7.6179,-7.8132,-7.8671,-7.7777,-7.9839,-7.9632,-7.7519,-7.9262,-8.0087,-8.0126,-8.0893,0.0,-8.0228,-8.2082,0.0,0.0,0.0,0.0,0.0,0.0,0.0,0.0,0.0,0.0,0.0,0.0,0.0,0.0,0.0,0.0,0.0,0.0,0.0,0.0,0.0,-5.6258,-5.7007,-5.7045,-5.7756,-5.7961,-5.7395,-5.7364,0.0,0.0,0.0,-5.6317,-5.6373,-5.6395,-5.6637,-5.7106,-5.6835,-5.6753,-5.6897,-5.7175,-5.7508,-5.7837,-5.8139,-5.8208,-5.8127,-5.9582,0.0,0.0,0.0,0.0,0.0,0.0,0.0,0.0,0.0,0.0,0.0,0.0,0.0,0.0,0.0,0.0,0.0,0.0,0.0,0.0,0.0,0.0,0.0,0.0,0.0,0.0,0.0,0.0,0.0,0.0,0.0,0.0,0.0,0.0,0.0,0.0,0.0,0.0,0.0,-7.4132,-7.5285,-7.6445,-7.6364,-7.5806,0.0,0.0,0.0,0.0,0.0,0.0,0.0,0.0,0.0,-7.5555,-7.607,-7.63,-7.6229,-7.7616,-7.8108,-7.7668,-7.8812,-7.8975,-7.837,-7.9892,-8.061,-8.0688,-8.2514,-8.295,-8.2472,-8.3283,-8.3095,-8.2276,0.0,0.0,0.0,0.0,-8.2034,-8.2129,0.0,0.0,0.0,0.0,0.0,0.0,0.0,0.0,0.0,0.0,0.0,0.0,-5.5284,-5.6314,-5.7191,-5.7594,-5.8195,-5.8366,-5.8054,-5.8073,0.0,0.0,-5.6439,-5.6141,-5.6042,-5.6809,-5.7359,-5.7737,-5.7088,-5.6971,-5.7303,-5.7472,-5.7751,-5.8225,-5.8952,-5.8924,-5.8477,-5.989,-6.0442,-6.0514,0.0,0.0,0.0,0.0,0.0,0.0,0.0,0.0,0.0,0.0,0.0,0.0,0.0,0.0,0.0,0.0,0.0,0.0,0.0,0.0,0.0,0.0,0.0,0.0,0.0,0.0,0.0,0.0,0.0,0.0,0.0,0.0,0.0,0.0,0.0,0.0,0.0,-7.5662,-7.6444,-7.692,-7.6975,-7.6379,0.0,0.0,0.0,0.0,0.0,0.0,-7.6426,-7.6716,-7.6769,-7.6559,-7.7614,-7.7703,-7.6773,-7.7852,-7.8363,-7.8291,-7.8696,-7.9107,-7.952,-8.0898,-8.1534,-8.166,-8.3786,-8.4845,-8.5019,-8.4696,-8.4236,-8.3799,-8.3618,-8.3163,-8.2721,-8.3201,-8.3312,-8.3355,0.0,0.0,0.0,0.0,0.0,0.0,0.0,0.0,0.0,0.0,0.0,-5.4293,-5.506,-5.543,-5.6238,-5.7574,-5.7698,-5.8034,-5.8731,-5.8731,-5.8324,-5.74,-5.712,-5.6819,-5.6464,-5.7323,-5.7468,-5.687,-5.7517,-5.768,-5.7303,-5.7863,-5.814,-5.828,-6.0054,-6.0341,-5.9432,-5.9466,-6.0774,-6.2625,-6.0496,0.0,0.0,0.0,0.0,0.0,0.0,0.0,0.0,0.0,0.0,0.0,0.0,0.0,0.0,0.0,0.0,0.0,0.0,0.0,0.0,0.0,0.0,0.0,0.0,0.0,0.0,0.0,0.0,0.0,0.0,0.0,0.0,0.0,0.0,0.0,0.0,0.0,0.0,-7.8004,-7.7946,0.0,0.0,0.0,0.0,-7.452,-7.4788,-7.5684,-7.7317,-7.7588,-7.7626,-7.7537,-7.9108,-7.9507,-7.8577,-8.0236,-8.1056,-8.1022,-8.1912,-8.1901,-8.1137,-8.3125,-8.4017,-8.4067,-8.5144,-8.6088,-8.6865,-8.6855,-8.5998,-8.4797,-8.5289,-8.4361,-8.3016,-8.4779,-8.5202,-8.4957,0.0,0.0,0.0,0.0,0.0,0.0,0.0,0.0,-5.2616,-5.395,-5.4235,-5.4778,-5.6075,-5.6799,-5.763,-5.8738,-5.9375,-5.9635,-5.9439,-5.9439,-5.8947,-5.7709,-5.7274,-5.7079,-5.7024,-5.6941,-5.7168,-5.7706,-5.7566,-5.7433,-5.7303,-5.7528,-5.7807,-5.828,-5.9338,-5.9794,-5.9849,-6.1492,-6.2882,-6.3924,-6.3418,-6.366,0.0,0.0,0.0,0.0,0.0,0.0,0.0,0.0,0.0,0.0,0.0,0.0,0.0,0.0,0.0,0.0,0.0,0.0,0.0,0.0,0.0,0.0,0.0,0.0,0.0,0.0,0.0,0.0,0.0,0.0,0.0,0.0,0.0,0.0,0.0,0.0,0.0,-7.7335,-7.7678,0.0,-7.5058,-7.518,-7.5678,-7.6395,-7.6585,-7.7434,-7.9095,-7.8748,-7.8438,-7.8374,-7.894,-7.9081,-7.8758,-7.9282,-8.0126,-8.1214,-8.1586,-8.2154,-8.2912,-8.4276,-8.4943,-8.5103,-8.6001,-8.6648,-8.6982,-8.6982,-8.6687,-8.6239,-8.6415,-8.6106,-8.5591,-8.6267,-8.6405,-8.63,0.0,0.0,0.0,0.0,0.0,0.0,0.0,0.0,-5.1955,-5.4186,-5.4259,-5.4668,-5.6174,-5.6961,-5.7774,-5.8925,-5.9736,-6.0163,-6.0147,-5.9932,-5.9285,-5.8047,-5.7351,-5.6947,-5.7034,-5.6828,-5.7064,-5.7918,-5.7472,-5.7303,-5.7303,-5.7303,-5.7528,-5.7918,-5.8762,-5.9453,-6.0106,-6.2003,-6.3423,-6.4456,-6.3911,-6.419,-6.4818,0.0,0.0,0.0,0.0,0.0,0.0,0.0,0.0,0.0,0.0,0.0,0.0,0.0,0.0,0.0,0.0,0.0,0.0,0.0,0.0,0.0,0.0,0.0,0.0,0.0,0.0,0.0,0.0,0.0,0.0,0.0,0.0,0.0,0.0,-7.7412,-7.8253,-7.6876,-7.722,-7.687,-7.5063,-7.5503,-7.6472,-7.778,-7.7794,-7.8397,-8.0048,-7.9623,-7.9173,-7.8863,-7.9404,-7.9559,-7.9288,-7.9789,-8.0597,-8.1726,-8.2308,-8.3157,-8.4233,-8.528,-8.5797,-8.5897,-8.656,-8.692,-8.6982,-8.6982,-8.6982,-8.6982,-8.6982,-8.6982,-8.6982,-8.6982,-8.6982,-8.6933,0.0,0.0,0.0,0.0,0.0,0.0,0.0,-5.2275,-5.2422,-5.4298,-5.3723,-5.3837,-5.5366,-5.5823,-5.6537,-5.7996,-5.8654,-5.9516,-6.0711,-6.0147,-5.9318,-5.842,-5.7311,-5.6633,-5.6432,-5.7013,-5.7303,-5.7303,-5.7303,-5.7303,-5.7303,-5.7303,-5.7303,-5.7332,-5.862,-5.9474,-6.0057,-6.0711,-6.2307,-6.4196,-6.1628,-6.3115,-6.6545,0.0,0.0,0.0,0.0,0.0,0.0,0.0,0.0,0.0,0.0,0.0,0.0,0.0,0.0,0.0,0.0,0.0,0.0,0.0,0.0,0.0,0.0,0.0,0.0,0.0,0.0,0.0,0.0,0.0,0.0,0.0,0.0,0.0,-7.5419,-7.6817,-7.7531,-7.6782,-7.6723,-7.6467,-7.5808,-7.5887,-7.6741,-7.859,-7.8103,-7.8486,-8.015,-8.0227,-7.9879,-7.9105,-8.0653,-8.1117,-8.0304,-8.1968,-8.2793,-8.2805,-8.4375,-8.5116,-8.5082,-8.6119,-8.6597,-8.6584,-8.681,-8.6904,-8.6904,-8.6904,-8.6904,-8.6904,-8.6982,-8.6982,-8.6982,-8.6982,-8.6982,-8.6826,0.0,0.0,0.0,0.0,0.0,0.0,0.0,-5.1293,-5.196,-5.4247,-5.3922,-5.4318,-5.6589,-5.7185,-5.783,-5.8654,-5.8911,-5.9331,-6.0004,-5.9083,-5.8428,-5.8211,-5.747,-5.7063,-5.7042,-5.7216,-5.7303,-5.7303,-5.7303,-5.7303,-5.7303,-5.7303,-5.7303,-5.7303,-5.8094,-5.8571,-5.8792,-5.9771,-6.1094,-6.2519,-6.2217,-6.2661,-6.3557,0.0,0.0,0.0,0.0,0.0,0.0,0.0,0.0,0.0,0.0,0.0,0.0,0.0,0.0,0.0,0.0,0.0,0.0,0.0,0.0,0.0,0.0,0.0,0.0,0.0,0.0,0.0,0.0,0.0,0.0,0.0,-7.5426,-7.6495,-7.6104,-7.7014,-7.7456,-7.6782,-7.7343,-7.7533,-7.6863,-7.7487,-7.845,-7.97,-7.9081,-7.9376,-8.1039,-8.0536,-8.0382,-8.0807,-8.1271,-8.1697,-8.2084,-8.251,-8.332,-8.4491,-8.4281,-8.4817,-8.5968,-8.5112,-8.5101,-8.5681,-8.5225,-8.5077,-8.5117,-8.5117,-8.5117,-8.5233,-8.6515,-8.6982,-8.6982,-8.6982,-8.6593,-8.5933,0.0,0.0,0.0,0.0,0.0,0.0,0.0,-5.085,-5.1376,-5.3865,-5.3387,-5.3805,-5.6251,-5.7245,-5.7886,-5.8246,-5.8949,-5.9368,-5.942,-5.847,-5.7997,-5.8112,-5.7522,-5.7218,-5.7274,-5.7303,-5.7303,-5.7303,-5.7303,-5.7303,-5.7303,-5.7416,-5.7472,-5.7528,-5.7974,-5.8305,-5.8609,-5.9285,-6.0031,-6.0874,-6.1504,-6.2236,-6.3115,-6.3812,-6.3815,-6.3785,-6.6685,-6.7561,-6.7848,-7.0306,0.0,0.0,0.0,0.0,0.0,0.0,0.0,0.0,0.0,0.0,0.0,0.0,0.0,0.0,0.0,0.0,0.0,0.0,0.0,0.0,0.0,0.0,0.0,0.0,-7.6172,-7.6888,-7.6738,-7.7584,-7.8103,-7.7813,-7.8045,-7.8059,-7.7769,-7.8315,-7.9121,-8.0137,-7.9763,-8.0111,-8.1414,-8.1039,-8.1155,-8.2006,-8.2045,-8.2277,-8.278,-8.3437,-8.412,-8.4739,-8.453,-8.4951,-8.5864,-8.4649,-8.4403,-8.489,-8.451,-8.4369,-8.4435,-8.4456,-8.4446,-8.4524,0.0,0.0,0.0,0.0,-8.6127,-8.5505,0.0,0.0,0.0,0.0,0.0,0.0,0.0,-5.0683,-5.0814,-5.3162,-5.2498,-5.2732,-5.5122,-5.6451,-5.7131,-5.7187,-5.8617,-5.9318,-5.8732,-5.8183,-5.7984,-5.8082,-5.7527,-5.7221,-5.7303,-5.7189,-5.7131,-5.7131,-5.7073,-5.7073,-5.7187,-5.7496,-5.7693,-5.7836,-5.8085,-5.85,-5.8991,-5.9045,-5.9207,-5.9476,-6.0061,-6.167,-6.3655,-6.325,-6.3645,-6.4637,-6.6276,-6.7234,-6.7813,-6.8956,0.0,0.0,0.0,0.0,0.0,0.0,0.0,0.0,0.0,0.0,0.0,0.0,0.0,0.0,0.0,0.0,0.0,0.0,0.0,0.0,0.0,0.0,0.0,0.0,-7.6864,-7.6986,-7.743,-7.84,-7.9056,-7.915,-7.8696,-7.8404,-7.8615,-7.8854,-7.9391,-8.0292,-8.0343,-8.0691,-8.1465,-8.1491,0.0,0.0,0.0,-8.2703,-8.278,-8.4289,-8.4714,-8.4095,-8.4714,-8.5036,-8.506,-8.4262,-8.396,-8.4045,-8.4096,-8.4163,-8.4193,-8.4198,-8.422,-8.4211,-8.4359,-8.4884,-8.5544,-8.5428,-8.5428,-8.5156,0.0,0.0,0.0,0.0,0.0,0.0,0.0,-5.0123,-5.0728,-5.2706,-5.2294,-5.2556,-5.4505,-5.5992,-5.6732,-5.6435,-5.7338,-5.7789,-5.7375,-5.7811,-5.8098,-5.8112,-5.7559,-5.7299,-5.7303,-5.6586,-5.6243,-5.6243,-5.5472,-5.5612,-5.6604,-5.6659,-5.7199,-5.814,-5.8195,-5.825,-5.8415,-5.8882,-5.8991,-5.8882,-5.9476,-6.0092,-6.0959,-6.2908,-6.3757,-6.4283,-6.7006,-6.7701,-6.7541,-6.9107,-6.9527,-6.9606,-7.0941,-7.1696,0.0,0.0,0.0,0.0,0.0,0.0,0.0,0.0,0.0,0.0,0.0,0.0,0.0,0.0,0.0,0.0,0.0,0.0,0.0,-7.6881,-7.7583,-7.817,-7.8487,-7.9353,-7.9513,-7.8386,-7.885,-7.9341,-7.9515,-8.0319,-8.0922,-8.122,-8.1271,-8.131,-8.1491,-8.1491,-8.1581,-8.1736,-8.1736,-8.2084,-8.278,-8.3128,-8.3554,-8.4095,-8.3554,0.0,-8.4276,-8.2825,-8.2549,-8.3107,-8.2611,-8.2366,-8.2318,-8.2457,-8.2465,-8.2539,-8.3893,-8.4495,-8.4573,-8.3874,-8.3602,-8.3446,0.0,0.0,0.0,0.0,0.0,0.0,0.0,-5.001,-5.0449,-5.1692,-5.154,-5.2041,-5.3824,-5.5196,-5.6087,-5.6151,-5.7011,-5.7493,-5.7497,-5.7992,-5.8314,-5.8405,-5.7993,-5.7584,-5.7303,-5.6901,-5.6414,-5.5985,-5.5501,-5.5357,-5.5495,-5.5661,-5.631,-5.7474,-5.7669,-5.8065,-5.8634,-5.8308,-5.7996,-5.7778,-5.8213,-5.8345,-5.8614,-6.122,-6.2682,-6.372,-6.619,-6.7055,-6.7199,-6.8542,-6.8756,-6.8678,-6.9689,-7.076,-7.1578,0.0,0.0,0.0,0.0,0.0,0.0,0.0,0.0,0.0,0.0,0.0,0.0,0.0,0.0,-7.5224,-7.6255,0.0,-7.7192,-7.811,-7.864,-7.9062,-7.9343,-7.9868,-7.997,-7.9341,-7.9769,-8.0224,-8.0385,-8.0935,-8.1347,-8.1491,-8.1491,-8.1491,-8.1491,-8.1929,-8.2161,-8.2161,-8.2587,-8.278,-8.278,-8.3244,-8.3438,-8.3438,-8.3012,-8.3012,-8.3399,-8.2157,-8.1856,-8.2278,-8.198,-8.186,-8.1926,-8.1975,-8.1967,-8.1995,-8.2805,-8.3408,-8.3718,-8.3252,-8.3097,-8.298,0.0,0.0,0.0,0.0,0.0,0.0,0.0,0.0,-5.0227,-5.0824,-5.1108,-5.1783,-5.3331,-5.4699,-5.5757,-5.6202,-5.7191,-5.7798,-5.7901,-5.8346,-5.8584,-5.8609,-5.8225,-5.786,-5.7435,-5.7156,-5.664,-5.5832,-5.5555,-5.5074,-5.4392,-5.4613,-5.5423,-5.672,-5.7109,-5.7927,-5.8836,-5.7878,-5.7231,-5.6841,-5.695,-5.6753,-5.6585,-5.867,-6.0843,-6.3068,-6.4864,-6.598,-6.6787,-6.7574,-6.8015,-6.8274,-6.8642,-6.9895,-7.1181,-7.0993,-7.2081,0.0,0.0,0.0,0.0,0.0,0.0,0.0,0.0,-7.3692,-7.4049,-7.5256,-7.5556,-7.6032,-7.7375,-7.7729,-7.8253,-7.9364,-7.9592,-7.975,-7.9992,-8.0175,-8.0314,-8.0487,-8.0652,-8.0865,-8.1231,-8.1223,-8.1368,-8.1723,-8.1556,-8.1466,-8.1491,-8.2161,-8.2548,-8.2548,-8.3244,-8.3244,-8.2548,-8.3244,-8.3244,-8.2548,-8.2548,-8.2548,-8.2509,-8.1813,-8.1553,-8.1669,-8.1757,-8.1869,-8.1991,-8.2007,-8.1983,-8.1934,-8.1938,-8.23,-8.2864,-8.2864,-8.2864,-8.2786,0.0,0.0,0.0,0.0,0.0,0.0,0.0,0.0,0.0,-5.0824,-5.1762,-5.2659,-5.3444,-5.5275,-5.6564,-5.6819,-5.7942,-5.8359,-5.7613,-5.8504,-5.8793,-5.825,-5.7696,-5.7514,-5.7821,-5.6709,-5.5852,-5.5266,-5.4093,-5.3601,-5.3735,-5.3706,-5.4703,-5.6397,-5.704,-5.7606,-5.8208,-5.8119,-5.7588,-5.6786,-5.629,-5.5555,-5.4873,-5.5123,-5.8189,-6.2439,-6.3561,-6.4922,-6.6215,-6.6326,-6.7202,-6.837,-6.9494,-7.0022,-7.0464,-7.1484,-7.2097,-7.2274,-7.1503,-7.1354,-7.1715,-7.2967,-7.3257,-7.3824,0.0,-7.6797,-7.7057,-7.8615,-7.8778,-7.8766,-7.9311,-7.9532,-7.9614,-7.9683,-7.9924,-8.0134,-8.0175,-8.0354,-8.0487,-8.0506,-8.0525,-8.0956,-8.2061,-8.1365,-8.1362,-8.2561,-8.1812,-8.1374,-8.1491,-8.1581,-8.1658,-8.1658,-8.1736,-8.1736,-8.1658,-8.1736,-8.1736,-8.1658,-8.1658,-8.1658,-8.1658,-8.1542,-8.1504,-8.1541,-8.1726,-8.1869,-8.1991,-8.2065,-8.2051,-8.1983,-8.1975,-8.2003,-8.2048,-8.2048,-8.2048,-8.2009,0.0,0.0,0.0,0.0,0.0,0.0,0.0,0.0,0.0,0.0,-4.9733,-5.0644,-5.2267,-5.4674,-5.6011,-5.567,-5.7142,-5.7695,-5.6832,-5.8083,-5.8609,-5.8003,-5.7863,-5.7716,-5.7533,-5.7009,-5.6066,-5.4573,-5.4192,-5.3772,-5.3376,-5.3511,-5.44,-5.5879,-5.6657,-5.7114,-5.736,-5.7353,-5.676,-5.5739,-5.5519,-5.4759,-5.3915,-5.4794,-5.6412,-5.839,-5.9798,-6.2109,0.0,-6.4786,-6.5688,-6.6959,-6.7985,-6.8787,-6.934,-6.9552,-7.0395,-7.1313,-7.164,-7.1677,-7.1886,-7.3204,-7.377,-7.4487,-7.6275,-7.6652,-7.7033,-7.8551,-7.8637,-7.8637,-7.9077,-7.9509,-7.9794,-7.9881,-7.9971,-8.0137,-8.0354,-8.045,-8.0506,-8.0506,-8.0506,-8.0731,-8.1376,-8.1035,-8.1129,-8.1862,-8.1551,-8.1347,-8.1491,-8.1968,-8.2006,-8.1542,-8.2006,-8.2006,-8.1491,-8.1491,-8.1491,-8.1491,-8.1491,-8.1491,-8.1491,-8.1491,-8.1541,-8.1624,-8.1723,-8.1854,-8.1991,-8.1999,-8.1999,-8.1983,-8.1959,-8.1917,-8.1892,-8.1892,-8.1892,-8.1892,0.0,0.0,0.0,0.0,0.0,0.0,0.0,0.0,0.0,0.0,-4.8899,-5.0154,-5.2484,-5.4633,-5.5551,-5.4794,-5.6196,-5.6892,-5.6196,-5.7503,-5.8103,-5.764,-5.7863,-5.7775,-5.7459,-5.7384,-5.6497,-5.4785,-5.4931,-5.4535,-5.3687,-5.3878,-5.4573,-5.5663,-5.6439,-5.6841,-5.6895,-5.7046,-5.645,-5.5484,-5.5429,-5.478,-5.3937,-5.4791,-5.5275,-5.5693,-5.7223,-5.9806,-6.2525,-6.3153,-6.4262,-6.5556,-6.6613,-6.7474,-6.813,-6.8316,-6.9234,-7.0449,-7.1527,-7.1691,-7.188,-7.3138,-7.4073,-7.493,-7.5973,-7.6298,-7.67,-7.7951,-7.7998,-7.8016,-7.874,-7.9212,-7.9623,-7.9992,-8.0072,-8.0213,-8.0774,-8.0659,-8.0582,-8.0812,-8.0659,-8.0562,-8.0705,-8.0723,-8.0954,-8.1552,-8.1306,-8.1249,-8.1427,-8.2033,-8.2123,-8.153,-8.2122,-8.2122,-8.1504,-8.1491,-8.1491,-8.1491,-8.1491,-8.1491,-8.1491,-8.1491,-8.1553,-8.1646,-8.168,-8.1786,-8.1917,-8.1934,-8.1951,-8.1951,-8.1943,-8.1908,-8.1892,-8.1892,-8.1892,-8.1892,0.0,0.0,0.0,0.0,0.0,0.0,0.0,0.0,0.0,0.0,0.0,0.0,0.0,-5.5581,-5.5381,-5.4743,-5.5624,-5.6154,-5.5845,-5.679,-5.7328,-5.733,-5.7303,-5.7485,-5.7892,-5.7511,-5.7053,-5.6509,-5.6136,-5.5639,-5.4921,-5.4976,-5.5278,-5.5908,-5.6493,-5.695,-5.7227,-5.7599,-5.7371,-5.6757,-5.6427,-5.5994,-5.5329,-5.4479,-5.484,-5.6016,-5.7191,-5.8838,-6.0521,-6.1446,-6.3053,-6.483,-6.6029,-6.6485,-6.6913,-6.8714,-6.9384,-6.9736,-7.0604,-7.0808,-7.1072,-7.263,-7.3901,-7.5081,-7.6241,-7.6607,-7.6909,-7.7649,-7.7599,-7.7752,-7.8816,-7.9028,-7.9293,-8.0055,-8.0195,-8.058,-8.1614,-8.1041,-8.0812,-8.1652,-8.1003,-8.0506,-8.0525,-8.0525,-8.0994,-8.2192,-8.1371,-8.0959,-8.1277,-8.133,-8.1399,-8.1491,-8.1542,-8.1542,-8.1491,-8.1491,-8.1491,-8.1491,-8.1491,-8.1491,-8.1491,-8.1491,-8.1504,-8.1516,-8.1646,-8.1702,-8.1723,-8.1917,-8.1943,-8.1824,-8.1959,-8.1973,-8.1892,-8.1892,-8.1892,-8.1892,0.0,0.0,0.0,0.0,0.0,0.0,0.0,0.0,0.0,0.0,0.0,0.0,0.0,0.0,0.0,0.0,-5.4952,-5.5424,-5.4968,-5.6067,-5.6712,-5.6694,-5.71,-5.7355,-5.7511,-5.6781,-5.6239,-5.5861,-5.5493,-5.5548,-5.5916,-5.6355,-5.6627,-5.6849,-5.7467,-5.7416,-5.6979,-5.7765,-5.7592,-5.6841,-5.695,-5.6117,-5.4861,-5.4902,-5.4458,-5.3885,0.0,-5.6909,-5.8887,-6.0173,-6.1185,-6.226,-6.3829,-6.4412,-6.4987,-6.6963,-6.8138,-6.9071,-7.0397,-7.0919,-7.1616,-7.3598,-7.4424,-7.5011,-7.6374,-7.634,-7.6164,-7.6909,-7.6533,-7.6222,-7.6728,-7.7648,-7.8426,-7.8793,-7.9616,-8.0371,-8.0906,-8.0696,-8.0621,-8.0888,-8.0697,-8.0506,-8.0506,-8.0506,-8.0731,-8.1244,-8.098,-8.0893,-8.1077,-8.1234,-8.1305,-8.136,-8.1453,-8.1491,-8.1491,-8.1491,-8.1491,-8.1491,-8.1491,-8.1491,-8.1491,-8.1491,-8.1491,-8.1504,-8.1553,-8.1612,-8.1702,-8.1775,-8.1747,-8.1677,-8.1708,-8.1747,-8.1755,-8.1755,-8.1834,-8.1892,0.0,0.0,0.0,0.0,0.0,0.0,0.0,0.0,0.0,0.0,0.0,0.0,0.0,0.0,0.0,0.0,0.0,-5.5072,-5.4517,-5.538,-5.5932,-5.6055,-5.6432,-5.6636,-5.6636,-5.6063,-5.5695,-5.5472,-5.5522,-5.5913,-5.6705,-5.7324,-5.7715,-5.7853,-5.8212,-5.7989,-5.7357,-5.7837,-5.769,-5.7114,-5.7202,-5.6504,-5.5448,-5.5464,-5.4844,0.0,-5.4503,-5.5728,-5.7306,-5.8689,-5.9886,-6.1031,-6.2361,-6.3201,-6.4111,-6.6374,-6.7298,-6.81,-7.0315,-7.085,-7.1303,-7.3521,-7.4142,-7.4503,-7.5515,-7.554,-7.5513,-7.6034,-7.5584,-7.5233,-7.564,-7.655,-7.7355,-7.7613,-7.8929,-8.0078,-8.0468,-8.0523,-8.062,-8.0926,-8.0697,-8.0506,-8.0506,-8.0506,-8.0562,-8.0688,-8.0688,-8.0775,-8.092,-8.1077,-8.1234,-8.1291,-8.1427,-8.1491,-8.1491,-8.1491,-8.1491,-8.1491,-8.1491,-8.1491,-8.1491,-8.1491,-8.1491,-8.1491,-8.1491,-8.1553,-8.1635,-8.168,-8.1669,-8.1558,-8.1602,-8.1652,-8.1691,-8.1691,-8.1765,-8.1892,0.0,0.0,0.0,0.0,0.0,0.0,0.0,0.0,0.0,0.0,0.0,0.0,0.0,0.0,0.0,0.0,0.0,0.0,-5.4628,-5.4813,-5.5075,-5.5387,-5.5362,-5.5362,-5.5416,-5.5333,-5.5333,-5.5416,-5.6026,-5.6592,-5.7252,-5.7841,-5.8272,-5.8629,-5.8575,-5.8466,-5.8132,-5.7813,-5.7654,-5.7648,-5.7258,-5.7064,-5.6974,-5.6065,-5.5931,-5.6059,-5.5353,-5.5302,-5.5793,-5.7183,-5.9166,-6.115,-6.1755,-6.2863,-6.4426,-6.6809,-6.7011,-6.7151,-7.0275,-7.0594,-7.0522,-7.2405,-7.3261,-7.3649,-7.3831,-7.4399,-7.4931,-7.508,-7.4798,-7.4776,-7.5479,-7.5788,-7.615,-7.6662,-7.824,-7.9632,-8.0314,-8.0525,-8.0884,-8.1614,-8.1003,-8.0506,-8.0506,-8.0506,-8.0506,-8.0506,-8.0506,-8.0598,-8.0775,-8.092,-8.1077,-8.1277,-8.1427,-8.1491,-8.1491,-8.1491,-8.1491,-8.1491,-8.1491,-8.1491,-8.1491,-8.1491,-8.1491,-8.1491,-8.1491,-8.1491,-8.1504,-8.1635,-8.1612,-8.1504,-8.1546,-8.1641,-8.1691,-8.1691,-8.1765,-8.1892,0.0,0.0,0.0,0.0,0.0,0.0,0.0,0.0,0.0,0.0,0.0,0.0,0.0,0.0,0.0,0.0,0.0,0.0,-5.583,-5.5723,-5.5703,-5.5742,-5.5143,-5.4979,-5.5416,-5.4326,-5.4271,-5.5416,-5.5097,-5.5537,-5.6544,-5.6906,-5.7232,-5.7497,-5.7315,-5.7262,-5.7362,-5.7083,-5.7077,-5.7228,-5.7102,-5.6825,-5.6376,-5.6175,-5.5816,-5.5388,-5.5029,-5.5194,-5.5826,-5.7521,-5.9869,-6.2007,-6.1475,-6.2972,-6.5049,-6.5941,-6.7269,-6.8745,-7.0014,-7.1284,-7.231,-7.2867,-7.3168,-7.3466,-7.3818,-7.4187,-7.4378,-7.4112,-7.4077,-7.4079,-7.4138,-7.486,-7.5866,-7.7166,-7.8464,-7.9589,-8.0411,-8.0523,-8.062,-8.0812,-8.0621,-8.0506,-8.0506,-8.0506,-8.0506,-8.0506,-8.0506,-8.0525,-8.058,-8.0855,-8.1031,-8.1077,-8.1335,-8.1491,-8.1491,-8.1491,-8.1491,-8.1491,-8.1491,-8.1491,-8.1491,-8.1491,-8.1491,-8.1491,-8.1491,-8.1491,-8.1504,-8.1541,-8.1466,-8.1347,-8.1387,-8.1466,-8.1565,-8.1565,-8.1691,-8.1892,0.0,0.0,0.0,0.0,0.0,0.0,0.0,0.0,0.0,0.0,0.0,0.0,0.0,0.0,0.0,0.0,0.0,0.0,0.0,-5.6065,-5.5957,-5.5688,-5.4938,-5.4576,-5.463,-5.3563,-5.3509,-5.4601,-5.4255,-5.4807,-5.6118,-5.6385,-5.6704,-5.6937,-5.6914,-5.6967,-5.7064,-5.6668,-5.6549,0.0,0.0,-5.6047,-5.5748,-5.5748,-5.5508,-5.5179,-5.5057,-5.5789,-5.7024,-5.7976,-6.0411,-6.2915,-6.2474,-6.3456,-6.51,-6.6485,-6.7586,-6.8743,-7.0689,-7.1882,-7.2643,-7.3166,-7.3375,-7.3472,-7.3557,-7.372,-7.3812,-7.3475,-7.3572,-7.3787,-7.3852,-7.4942,-7.6117,-7.6868,-7.8376,-7.9592,-7.9952,-8.0312,-8.0523,-8.0506,-8.0506,-8.0506,-8.0506,-8.0506,-8.0506,-8.0506,-8.0506,-8.0543,-8.0634,-8.0871,-8.1047,-8.1122,-8.1387,-8.1491,-8.1491,-8.1491,-8.1491,-8.1491,-8.1491,-8.1491,-8.1491,-8.1491,-8.1491,-8.1491,-8.1491,-8.1491,-8.1491,-8.1491,-8.1414,-8.1291,-8.1291,-8.1347,-8.1414,-8.1414,-8.1589,-8.1824,0.0,0.0,0.0,0.0,0.0,0.0,0.0,0.0,0.0,0.0,0.0,0.0,0.0,0.0,0.0,0.0,0.0,0.0,0.0,0.0,0.0,-5.5587,-5.4757,-5.4111,-5.3677,-5.308,-5.3052,-5.3677,-5.3789,-5.454,-5.5987,-5.6172,-5.6433,-5.666,-5.687,-5.6915,-5.6795,-5.6256,-5.6098,-5.6038,-5.5418,-5.5179,-5.5179,0.0,0.0,-5.5179,-5.5179,-5.6572,-5.8349,-5.8746,-6.1018,-6.3705,-6.3985,-6.4372,-6.5283,-6.7747,-6.7959,-6.8193,-7.138,-7.2046,-7.2122,-7.3182,-7.3547,-7.3602,-7.3146,-7.3237,-7.3288,-7.294,-7.3283,-7.3757,-7.4228,-7.5382,-7.6318,-7.653,-7.8166,-7.9386,-7.9381,-8.0083,-8.056,-8.0525,-8.0506,-8.0506,-8.0506,-8.0506,-8.0506,-8.0506,-8.0506,-8.0598,-8.0775,-8.092,-8.1092,-8.1305,-8.144,-8.1491,-8.1491,-8.1491,-8.1491,-8.1491,-8.1491,-8.1491,-8.1491,-8.1491,-8.1491,-8.1491,-8.1491,-8.1491,-8.1491,-8.1491,-8.1414,-8.1291,-8.1305,-8.1305,-8.1319,-8.1347,-8.1516,-8.1713,0.0,0.0,0.0,0.0,0.0,0.0,0.0,0.0,0.0,0.0,-5.3691,-5.5412,0.0,0.0,0.0,0.0,0.0,0.0,0.0,0.0,0.0,0.0,-5.4553,-5.3623,-5.4003,-5.3454,-5.34,-5.4003,-5.471,-5.5463,-5.6225,-5.6279,-5.6331,-5.6294,-5.6346,-5.6017,-5.5508,-5.5418,-5.5359,-5.5359,-5.5239,-5.5179,-5.5179,-5.5179,0.0,0.0,-5.5179,-5.6073,-5.7622,-6.0101,-6.2377,-6.4243,-6.4741,-6.5955,-6.7446,-6.8368,-6.8854,-6.9169,-6.9799,-7.0932,-7.1943,-7.2163,-7.2962,-7.3562,-7.2992,-7.3088,-7.3142,-7.2473,-7.3008,-7.3871,-7.4754,-7.4736,-7.5391,-7.8003,-7.8129,-7.8431,-8.003,-8.041,-8.0525,-8.0506,-8.0506,-8.0506,-8.0506,-8.0506,-8.0506,-8.0506,-8.0506,-8.0598,-8.0775,-8.092,-8.1152,-8.1453,-8.1491,-8.1491,-8.1491,-8.1491,-8.1491,-8.1491,-8.1491,-8.1491,-8.1491,-8.1491,-8.1491,-8.1491,-8.1491,-8.1491,-8.1491,-8.144,-8.136,-8.1291,-8.136,-8.1414,-8.1491,-8.1589,-8.1723,-8.1864,0.0,0.0,0.0,0.0,0.0,0.0,0.0,-5.2067,-5.194,-5.1624,-5.4066,-5.5662,-5.5178,-5.7526,-5.9045,0.0,0.0,0.0,0.0,0.0,0.0,0.0,0.0,0.0,-5.4383,-5.3437,-5.3326,-5.4109,0.0,-5.5025,-5.6564,-5.6373,-5.6367,-5.6467,-5.6593,-5.6466,-5.6166,-5.5837,-5.5718,-5.5658,-5.5329,-5.5388,-5.5718,0.0,0.0,0.0,-5.5807,-5.6617,-5.787,-5.8814,-6.1407,-6.4593,-6.6244,-6.7502,-6.8509,-6.9383,-6.949,-6.9544,-7.0174,-7.1181,-7.2065,-7.2065,-7.2978,-7.3655,-7.2846,-7.2788,-7.2689,-7.1972,-7.2945,-7.4127,-7.4747,-7.5316,-7.6233,-7.7991,-7.8116,-7.8435,-7.9648,-8.0201,-8.045,-8.0506,-8.0506,-8.0506,-8.0506,-8.0506,-8.0506,-8.0506,-8.0598,-8.0741,-8.0888,-8.1137,-8.1322,-8.1491,-8.1491,-8.1491,-8.1491,-8.1491,-8.1491,-8.1491,-8.1491,-8.1491,-8.1491,-8.1491,-8.1491,-8.1491,-8.1491,-8.1478,-8.144,-8.1414,-8.1333,-8.1234,-8.1347,-8.14,-8.1414,-8.1553,-8.168,-8.1873,0.0,0.0,0.0,0.0,0.0,0.0,0.0,-5.2175,-5.2048,-5.1665,-5.4039,-5.5535,-5.4884,-5.7328,-5.8936,0.0,0.0,0.0,0.0,0.0,0.0,0.0,0.0,0.0,0.0,0.0,0.0,-5.4402,-5.42,0.0,0.0,0.0,0.0,0.0,-5.7093,-5.7191,-5.7064,-5.6384,-5.6115,0.0,0.0,-5.5598,0.0,0.0,0.0,0.0,0.0,-5.6998,-5.7831,-5.8012,-6.0335,-6.3797,-6.6937,-6.835,-6.8962,-6.9714,-6.963,-6.9569,-7.049,-7.1394,-7.1995,-7.1862,-7.2918,-7.3744,-7.2758,-7.2512,-7.2406,-7.1932,-7.3048,-7.4315,-7.4931,-7.5833,-7.6758,-7.7529,-7.7704,-7.8062,-7.9018,-7.9705,-8.0201,-8.0468,-8.0506,-8.0506,-8.0506,-8.0506,-8.0525,-8.0562,-8.0583,-8.0767,-8.1062,-8.1322,-8.1491,-8.1491,-8.1491,-8.1491,-8.1491,-8.1491,-8.1491,-8.1491,-8.1491,-8.1491,-8.1491,-8.1491,-8.1491,-8.1478,-8.1478,-8.144,-8.1374,-8.136,-8.1305,-8.1234,-8.1374,-8.14,-8.14,-8.1541,-8.1769,-8.2097,0.0,0.0,0.0,0.0,0.0,0.0,0.0,-5.1198,-5.1008,-5.0397,-5.2773,-5.4529,-5.4473,-5.702,-5.8828,0.0,0.0,0.0,0.0,0.0,0.0,0.0,0.0,0.0,0.0,0.0,0.0,-5.5394,-5.6389,0.0,0.0,0.0,0.0,0.0,0.0,-5.7428,-5.7034,-5.6147,0.0,0.0,0.0,0.0,0.0,0.0,0.0,0.0,0.0,-5.6571,-5.6517,-6.0284,-6.0733,-6.0571,-6.5238,-6.7762,-6.8917,-6.8261,-6.8581,-6.9156,-6.9267,-7.0396,-7.1408,-7.0758,-7.23,-7.3744,-7.2758,-7.2656,-7.2833,-7.2899,-7.3483,-7.4388,-7.5871,-7.5334,-7.5255,-7.7132,-7.6294,-7.6216,-7.8593,-7.9095,-7.9515,-8.0391,-8.0506,-8.0506,-8.0506,-8.0506,-8.058,-8.0758,-8.0339,-8.04,-8.1224,-8.1414,-8.1491,-8.1491,-8.1491,-8.1491,-8.1491,-8.1491,-8.1491,-8.1491,-8.1491,-8.1491,-8.1491,-8.1491,-8.1466,-8.14,-8.14,-8.136,-8.1291,-8.122,-8.1263,-8.1387,-8.1466,-8.1565,-8.168,-8.1824,-8.2379,-8.3059,0.0,0.0,0.0,0.0,0.0,0.0,-5.1331,-5.1992,-5.2345,-5.1866,-5.4303,-5.5922,-5.5353,-5.7162,-5.85,-5.8828,0.0,0.0,0.0,0.0,0.0,0.0,0.0,0.0,0.0,0.0,-5.5593,-5.5817,-5.6301,0.0,0.0,0.0,0.0,0.0,0.0,-5.7856,-5.7633,-5.6482,0.0,0.0,0.0,0.0,0.0,0.0,0.0,0.0,0.0,0.0,-5.7655,-5.9124,-6.0214,-6.0982,-6.1317,-6.3804,-6.6773,-6.8021,-6.781,-6.7394,-6.849,-6.9244,-6.9758,-7.0054,-7.127,-7.249,-7.2652,-7.2727,-7.2796,-7.2744,-7.3925,-7.512,-7.5676,-7.5134,-7.5051,-7.6398,-7.562,-7.5474,-7.7263,-7.8428,-7.9267,-7.9777,-8.0292,-8.0542,-8.0506,-8.0506,-8.0405,-8.0158,-7.9582,-7.9428,-7.9907,-7.997,-7.9995,-7.9995,-7.9995,-8.0227,-8.073,-8.073,-8.1001,-8.1491,-8.1491,-8.1491,-8.1491,-8.1453,-8.1427,-8.1387,-8.1347,-8.1333,-8.1347,-8.1319,-8.1374,-8.1478,-8.1589,-8.1695,-8.1852,-8.2458,-8.2935,-8.3428,0.0,0.0,0.0,0.0,0.0,-5.0869,-5.151,-5.2486,-5.3148,-5.321,-5.5376,-5.6707,-5.6078,-5.733,-5.8335,-5.8694,-5.8694,0.0,0.0,0.0,0.0,0.0,0.0,0.0,0.0,0.0,-5.6076,-5.6273,-5.633,-5.6725,0.0,0.0,-5.7921,-5.7991,0.0,0.0,0.0,0.0,0.0,0.0,0.0,0.0,0.0,0.0,0.0,0.0,0.0,0.0,0.0,0.0,0.0,-6.0259,-5.9331,-6.1071,-6.3898,-6.6193,-6.6452,-6.6177,-6.7451,-6.8177,-6.8738,-6.9333,-7.01,-7.0994,-7.2107,-7.2192,-7.2193,-7.2667,-7.4087,-7.5316,-7.56,-7.5155,-7.5058,-7.5951,-7.5209,-7.4986,-7.6408,-7.7626,-7.8559,-7.8989,-7.9507,-7.9815,-7.9705,-7.9797,-7.974,-7.9445,-7.8795,-7.8464,-7.8602,-7.837,-7.8486,-7.8989,-7.8989,-7.926,-7.984,-7.984,-8.0266,-8.1117,-8.1117,-8.1259,-8.1466,-8.1414,-8.1374,-8.1333,-8.1277,-8.1277,-8.1305,-8.1347,-8.1427,-8.1528,-8.1646,-8.1922,-8.2309,-8.2948,-8.3571,-8.4279,0.0,0.0,0.0,0.0,0.0,0.0,-5.1855,-5.2262,-5.2876,-5.3757,-5.5297,-5.6308,-5.6308,-5.7443,-5.8335,-5.8694,-5.8694,0.0,0.0,0.0,0.0,0.0,0.0,0.0,0.0,0.0,-5.7134,-5.688,-5.7134,-5.6984,-5.6432,-5.6925,-5.6898,-5.6338,0.0,0.0,0.0,0.0,0.0,0.0,0.0,0.0,0.0,0.0,0.0,0.0,0.0,0.0,0.0,0.0,0.0,0.0,0.0,-6.0607,-6.028,-6.2125,-6.4207,-6.5934,-6.5934,-6.7264,-6.868,-6.8578,-6.889,-6.961,-7.1011,-7.0777,-7.0904,-7.2969,-7.3917,-7.4774,-7.6052,-7.552,-7.5174,-7.5951,-7.4908,-7.4605,-7.637,-7.6669,-7.7064,-7.7994,-7.8038,-7.7986,-7.7855,-7.8156,-7.8408,-7.8679,-7.8103,-7.7713,-7.7713,-7.69,-7.721,-7.895,-7.8989,-7.8989,-7.9028,-7.9028,-7.9415,-8.0227,-8.0227,-8.0615,-8.14,-8.14,-8.1319,-8.1214,-8.1214,-8.1169,-8.1108,-8.1258,-8.1374,-8.1528,-8.1646,-8.2318,-8.3201,-8.3201,-8.4391,-8.5976,0.0,0.0,0.0,0.0,0.0,0.0,0.0,-5.4446,-5.5122,-5.5267,-5.6623,-5.7555,-5.736,-5.7863,-5.825,-5.8335,-5.839,0.0,0.0,0.0,0.0,0.0,0.0,0.0,0.0,-5.7416,-5.7247,-5.7134,-5.7247,-5.7216,-5.7013,-5.6965,-5.6807,-5.6602,-5.6113,-5.6018,0.0,0.0,0.0,0.0,0.0,0.0,-5.7902,0.0,0.0,0.0,0.0,0.0,0.0,0.0,0.0,0.0,0.0,0.0,0.0,-6.1165,-6.2208,-6.3347,-6.457,-6.5752,-6.6696,-6.6742,-6.7484,-6.8463,-6.9543,-7.0085,-7.0758,-7.2263,-7.3985,-7.5284,-7.5472,-7.5061,-7.4874,-7.5205,-7.4447,-7.4259,-7.5568,-7.6323,-7.6835,-7.7169,-7.7708,-7.8105,-7.8256,-7.7938,-7.7722,-7.7737,-7.71,-7.6763,-7.6763,-7.6492,-7.662,-7.721,-7.721,-7.7519,-7.8099,-7.8099,-7.8525,-7.9376,-7.9327,-7.9714,-8.0499,-8.0404,-8.068,-8.1214,-8.1273,-8.1305,-8.1387,-8.1528,-8.1646,-8.1775,-8.1865,-8.2461,-8.3362,-8.3994,-8.5,-8.6147,0.0,0.0,0.0,0.0,0.0,0.0,0.0,-5.5558,-5.628,-5.6594,-5.7555,-5.8114,-5.7836,-5.7948,-5.8059,-5.8059,-5.8059,0.0,0.0,0.0,0.0,0.0,0.0,0.0,-5.7781,-5.7613,-5.7523,-5.7508,-5.7382,-5.7266,-5.7155,-5.6929,-5.6552,-5.6084,-5.5795,-5.5699,0.0,0.0,0.0,0.0,0.0,0.0,-5.8201,0.0,0.0,0.0,0.0,0.0,0.0,0.0,0.0,0.0,0.0,0.0,0.0,0.0,-6.1101,-6.1772,-6.3327,-6.4305,-6.5166,-6.5966,-6.6251,-6.6857,-6.8645,-6.9164,-6.9742,-7.1402,-7.3279,-7.4606,-7.454,-7.441,-7.4433,-7.4781,-7.4308,-7.4234,-7.5243,-7.5883,-7.6297,-7.6327,-7.679,-7.7232,-7.7598,-7.7158,-7.6891,-7.693,-7.6546,-7.6326,-7.6301,-7.6326,-7.6362,-7.6397,-7.6397,-7.6668,-7.721,-7.721,-7.7635,-7.8525,-7.8464,-7.8992,-8.0073,-7.9962,-8.041,-8.1267,-8.1234,-8.136,0.0,-8.1635,-8.1738,-8.1848,-8.1999,-8.2585,-8.346,-8.4374,-8.5302,-8.6236,0.0,0.0,0.0,0.0,0.0,0.0,0.0,-5.5877,-5.6537,-5.7751,-5.8169,-5.8225,-5.7948,-5.7948,-5.7892,-5.7892,0.0,0.0,0.0,0.0,0.0,0.0,0.0,0.0,-5.7781,-5.7781,-5.7816,-5.8028,-5.7596,-5.7328,-5.7236,-5.6927,-5.6113,-5.5001,-5.5854,-5.6084,-5.5916,-5.6885,-5.7258,0.0,-5.8008,-5.8338,0.0,0.0,0.0,0.0,0.0,0.0,0.0,0.0,0.0,0.0,0.0,0.0,0.0,0.0,0.0,0.0,0.0,-6.3089,-6.4043,-6.5917,-6.5319,-6.5071,-6.8088,-6.808,0.0,-7.0442,-7.2029,-7.3103,-7.3471,-7.3567,-7.3791,-7.4417,-7.4301,-7.4371,-7.5094,-7.5424,-7.5583,-7.5506,-7.5455,-7.5567,-7.6068,-7.6068,-7.6081,-7.6276,-7.635,-7.635,-7.6288,-7.635,-7.6386,-7.6386,-7.6386,-7.6397,-7.6397,-7.6397,-7.6784,-7.7597,-7.7524,-7.8297,-7.9811,-7.9818,-8.0379,-8.1285,-8.1172,-8.1349,-8.1607,-8.1611,-8.1709,-8.1842,-8.2023,-8.264,-8.3515,-8.4374,-8.5299,-8.6236,0.0,0.0,0.0,0.0,0.0,0.0,0.0,0.0,0.0,0.0,-5.9369,-5.9452,-5.9153,-5.9099,-5.8936,0.0,0.0,0.0,0.0,0.0,0.0,0.0,0.0,0.0,-5.7416,-5.7416,-5.8048,-5.9267,-5.8377,-5.8481,-5.9423,-5.7375,-5.6153,-5.5669,-5.5583,-5.6266,-5.7535,-5.8664,-5.9175,-5.9236,-5.9909,-6.049,0.0,0.0,0.0,0.0,-6.1427,-6.0997,0.0,0.0,0.0,0.0,0.0,0.0,0.0,0.0,-6.0794,0.0,-6.2123,0.0,-6.3758,-6.395,-6.45,-6.5243,0.0,-6.6878,-6.8009,-6.9729,-7.1653,-7.2921,-7.2713,-7.2673,-7.2647,-7.2781,-7.2468,-7.2738,-7.4179,-7.4936,-7.5142,-7.4601,-7.514,-7.5449,-7.5166,-7.5813,-7.6225,-7.6145,-7.6159,-7.6159,-7.6145,-7.6159,-7.6198,-7.6238,-7.625,-7.6301,-7.6397,-7.635,-7.6441,-7.6635,-7.652,-7.698,-7.8045,-7.8704,-7.9492,-8.037,-8.1275,-8.1669,-8.1748,-8.19,-8.2006,-8.2027,-8.2134,-8.2694,-8.3515,-8.4435,-8.5351,-8.6236,0.0,0.0,0.0,0.0,0.0,0.0,0.0,0.0,0.0,0.0,0.0,-5.9506,-5.9315,-5.9315,0.0,0.0,0.0,0.0,0.0,0.0,0.0,0.0,0.0,-5.7409,-5.7749,-5.7742,-5.8386,-5.9706,-5.9092,-5.8912,-5.91,-5.7595,-5.6538,-5.5933,-5.635,-5.7423,-5.8899,-5.9706,-6.0321,-6.0732,-6.1101,0.0,0.0,0.0,0.0,0.0,-6.2478,-6.2084,0.0,-6.0782,-6.0607,-6.0742,0.0,0.0,0.0,0.0,-6.1,-6.1421,-6.2594,-6.3016,-6.3276,-6.4002,-6.4453,-6.491,-6.5801,-6.6432,-6.7257,-6.8964,-7.0558,-7.1687,-7.1857,-7.2219,-7.2392,-7.2223,-7.2612,-7.3219,-7.4023,-7.4155,-7.4208,-7.4314,-7.474,-7.5165,-7.5478,-7.5954,-7.6212,-7.6104,-7.6118,-7.6131,-7.6104,-7.6131,-7.6159,-7.6198,-7.6198,-7.6238,-7.6313,-7.6276,-7.625,-7.625,-7.6145,-7.6594,-7.7497,-7.7935,-7.8887,-8.0319,-8.0871,-8.146,-8.1992,-8.202,-8.2086,-8.2137,-8.2225,-8.2528,-8.2995,-8.3867,-8.4759,-8.5624,0.0,0.0,0.0,0.0,0.0,0.0,0.0,0.0,0.0,0.0,0.0,0.0,0.0,0.0,0.0,0.0,0.0,0.0,0.0,0.0,0.0,0.0,-5.7709,-5.7878,-5.8519,-5.856,-5.9062,-6.0052,-6.0023,-5.9358,-5.8136,-5.8024,-5.7385,-5.6348,-5.7683,-5.888,-6.0044,-6.0567,-6.1255,-6.1989,-6.2134,0.0,0.0,0.0,0.0,0.0,0.0,0.0,0.0,-6.1732,-6.1145,-6.0794,-6.0794,0.0,0.0,0.0,0.0,0.0,-6.3009,-6.3069,-6.3276,-6.5082,-6.4833,-6.4597,-6.6335,-6.6534,-6.6769,-6.8405,-6.9528,-7.0438,-7.1143,-7.1878,-7.2291,-7.2,-7.3259,-7.4216,-7.4191,-7.3618,-7.3497,-7.4328,-7.4551,-7.4994,-7.5941,-7.6121,-7.6159,-7.6076,-7.6131,-7.6131,-7.6076,-7.6131,-7.6159,-7.6159,-7.6159,-7.6159,-7.6159,-7.6172,-7.6185,-7.6185,-7.6133,-7.6585,-7.7394,-7.7445,-7.8554,-8.0402,-8.0394,-8.1065,-8.2179,-8.2104,-8.2109,-8.2224,-8.2274,-8.2293,-8.2411,-8.3191,-8.3981,-8.4695,0.0,0.0,0.0,0.0,0.0,0.0,0.0,0.0,0.0,0.0,0.0,0.0,0.0,0.0,0.0,0.0,0.0,0.0,0.0,0.0,0.0,-6.1402,-5.9792,-5.912,-5.9664,-6.0028,-6.0777,-6.181,-6.2248,-6.154,-5.9753,-5.9723,-5.9175,-5.8204,-5.8662,-5.9622,-6.1062,-6.2237,-6.2786,-6.2993,-6.3763,0.0,0.0,0.0,0.0,0.0,0.0,0.0,0.0,-6.2498,-6.1702,-6.0794,-6.0794,0.0,0.0,0.0,0.0,0.0,-6.236,-6.3547,-6.493,-6.6293,-6.5619,-6.5049,-6.6767,-6.7369,-6.7911,-6.8905,-7.0199,-7.111,-7.1276,-7.1112,-7.0901,-7.0932,-7.2126,-7.3303,-7.3947,-7.459,-7.4795,-7.4149,-7.5002,-7.5471,-7.4894,-7.5625,-7.6076,-7.6005,-7.6005,-7.6044,-7.6029,-7.6044,-7.6005,-7.6005,-7.6005,-7.6005,-7.6005,-7.6076,-7.6118,-7.6118,-7.6231,-7.6355,-7.6542,-7.7477,-7.847,-7.9535,-8.0439,-8.1323,-8.2187,-8.2251,-8.2271,-8.2305,-8.2296,-8.2293,-8.2411,-8.3191,-8.3585,-8.3702,0.0,0.0,0.0,0.0,0.0,0.0,0.0,0.0,0.0,0.0,0.0,0.0,0.0,0.0,0.0,0.0,0.0,0.0,0.0,0.0,-6.3583,-6.2919,-6.2165,-6.1722,-6.1567,-6.1757,-6.2317,-6.3121,-6.3492,-6.2787,-6.1102,-6.0428,-5.9908,-5.9614,-5.9735,-6.0598,-6.197,-6.2415,-6.3214,-6.4214,0.0,0.0,0.0,0.0,0.0,0.0,0.0,0.0,0.0,0.0,-6.1691,-6.0794,-6.0794,0.0,0.0,0.0,0.0,0.0,-6.2807,-6.3708,-6.5038,-6.7297,-6.6996,-6.6364,-6.7378,-6.8098,-6.8704,-6.9339,-7.0487,-7.138,-7.1316,-7.1719,-7.223,-7.2891,-7.2868,-7.3018,-7.3818,-7.4,-7.4066,-7.421,-7.4819,-7.524,-7.5414,-7.5789,-7.602,-7.6015,-7.6015,-7.6015,-7.6015,-7.6015,-7.6015,-7.6015,-7.6015,-7.6062,-7.6173,-7.6173,-7.6224,-7.6219,-7.6278,-7.6379,-7.6526,-7.7077,-7.782,-7.8807,0.0,-8.0701,-8.1586,-8.2071,-8.2293,-8.2293,-8.2293,-8.2293,-8.2411,-8.3239,-8.3555,-8.3555,0.0,0.0,0.0,0.0,0.0,0.0,0.0,0.0,0.0,0.0,0.0,0.0,0.0,0.0,0.0,0.0,0.0,0.0,0.0,-6.513,-6.527,-6.4413,-6.4539,-6.4257,-6.3424,-6.3524,-6.3747,-6.4054,-6.4531,-6.4022,-6.2597,-6.0983,-6.0555,-6.1058,-6.0917,-6.1532,-6.2654,-6.2684,-6.3525,-6.4914,0.0,0.0,0.0,0.0,0.0,0.0,0.0,0.0,0.0,0.0,0.0,0.0,0.0,0.0,0.0,-6.1,-6.1734,-6.2707,-6.3295,-6.3934,-6.5017,-6.7559,-6.7506,-6.7156,-6.8338,-6.9015,-6.9542,-7.014,-7.1018,-7.1675,-7.1384,-7.2075,-7.3054,-7.4317,-7.365,-7.3381,-7.4409,-7.3941,-7.3899,-7.4887,-7.4973,-7.5245,-7.5985,-7.602,-7.6015,-7.6015,-7.6015,-7.6015,-7.6015,-7.6015,-7.6015,-7.6015,-7.6048,-7.616,-7.6281,-7.6339,-7.6387,-7.6371,-7.6406,-7.6501,-7.6724,-7.6789,-7.7332,-7.8357,-7.9255,-8.0142,-8.105,-8.1948,-8.2299,-8.2299,-8.2299,-8.2296,-8.2371,-8.3047,-8.3406,-8.3565,0.0,0.0,0.0,0.0,0.0,0.0,0.0,0.0,0.0,0.0,0.0,0.0,0.0,0.0,0.0,0.0,0.0,0.0,0.0,-6.6397,-6.6491,-6.6559,-6.6559,-6.596,-6.4637,-6.5015,-6.497,-6.4538,-6.5767,-6.5646,-6.4368,-6.1774,-6.1331,-6.27,-6.2386,-6.2434,-6.2848,-6.3764,-6.4235,-6.4443,-6.5634,0.0,0.0,0.0,0.0,0.0,0.0,0.0,0.0,0.0,0.0,0.0,0.0,0.0,-6.1531,-6.1531,-6.2284,-6.3148,-6.318,-6.4429,-6.5843,-6.6494,-6.6088,-6.6357,-6.9586,-7.0303,-7.0642,-7.172,-7.2224,-7.2214,-7.1576,-7.1268,-7.1504,-7.2852,-7.3552,-7.4501,-7.6159,-7.5817,-7.5753,-7.6706,-7.639,-7.6041,-7.5991,-7.6015,-7.6015,-7.6015,-7.6015,-7.6015,-7.6015,-7.6015,-7.6015,-7.6015,-7.616,-7.6308,-7.6281,-7.6497,-7.6557,-7.6567,-7.6712,-7.6753,-7.6783,-7.6984,-7.7544,-7.8437,-7.9293,-8.0197,-8.1066,-8.1922,-8.2313,-8.2313,-8.2313,-8.2305,-8.2293,-8.2371,-8.293,-8.3484,0.0,0.0,0.0,0.0,0.0,0.0,0.0,0.0,0.0,0.0,0.0,0.0,0.0,0.0,0.0,0.0,0.0,0.0,0.0,-6.6507,-6.6592,-6.677,-6.6812,-6.6551,-6.6027,-6.6069,-6.5871,-6.5537,-6.5957,-6.5932,-6.5476,-6.3915,-6.335,-6.3566,-6.3121,-6.2891,-6.2825,-6.321,-6.3494,-6.3769,-6.4666,-6.5107,0.0,0.0,0.0,0.0,0.0,0.0,0.0,0.0,-6.1483,-6.0794,-6.0794,-6.1206,-6.1582,-6.1582,-6.2333,-6.3212,-6.3212,-6.4586,-6.612,-6.644,-6.6478,-6.719,-6.9678,-7.1035,-7.1769,-7.1669,-7.2582,-7.3062,-7.1965,-7.2092,-7.2651,-7.3326,-7.4104,-7.4886,-7.5608,-7.558,-7.5655,-7.6153,-7.6124,-7.6072,-7.5976,-7.6106,-7.6173,-7.6173,-7.6293,-7.6372,-7.6372,-7.626,-7.6248,-7.6372,-7.6316,-7.6387,-7.6591,-7.6709,-7.678,-7.6912,-7.6828,-7.6863,-7.6982,-7.7076,-7.7296,-7.7648,-7.8507,-7.9374,-8.0246,-8.1144,-8.1808,-8.2313,-8.2305,-8.2296,-8.2293,-8.2293,-8.2492,-8.2732,0.0,0.0,0.0,0.0,0.0,0.0,0.0,0.0,0.0,0.0,0.0,0.0,0.0,0.0,0.0,0.0,0.0,0.0,-6.7361,-6.7107,-6.7201,-6.7734,-6.7734,-6.759,-6.7151,-6.7015,-6.6752,-6.6311,-6.6178,-6.6138,-6.6121,-6.535,-6.4895,-6.4711,-6.4074,-6.3631,-6.3273,-6.3148,-6.3117,-6.3207,-6.3995,-6.4435,0.0,0.0,0.0,0.0,0.0,0.0,0.0,0.0,-6.1423,-6.1103,-6.1257,-6.1683,-6.2085,-6.2085,-6.3033,-6.3997,-6.3902,-6.5078,-6.6415,-6.6932,-6.7235,-6.7887,-7.02,-7.1521,-7.2191,-7.1942,-7.2512,-7.2928,-7.2447,-7.2708,-7.3161,-7.3702,-7.4543,-7.5228,-7.5627,-7.5615,-7.5688,-7.614,-7.6086,-7.6048,-7.6079,-7.6224,-7.6316,-7.6394,-7.6536,-7.6618,-7.6618,-7.6487,-7.6467,-7.6609,-7.6507,-7.6549,-7.6799,-7.6852,-7.6963,-7.7109,-7.6945,-7.6953,-7.711,-7.711,-7.711,-7.7154,-7.8008,-7.8877,-7.9787,-8.0641,-8.1495,-8.2313,-8.2299,-8.2293,-8.2293,-8.2293,-8.2293,-8.2293,0.0,0.0,0.0,0.0,0.0,0.0,0.0,0.0,0.0,0.0,0.0,0.0,0.0,0.0,0.0,0.0,0.0,0.0,-6.9254,-6.8463,-6.8481,-6.9696,-6.9807,-6.922,-6.7929,-6.7895,-6.7523,-6.6812,-6.6457,-6.6368,-6.6488,-6.5771,-6.5749,-6.6258,-6.5282,-6.4652,-6.4283,-6.3933,-6.3441,-6.2887,-6.3888,-6.4328,-6.439,0.0,0.0,0.0,0.0,0.0,0.0,0.0,-6.1582,-6.1683,-6.2234,-6.2776,-6.3212,-6.3212,-6.4445,-6.5736,-6.5455,-6.5936,-6.6787,-6.8015,-6.7957,-6.8396,-7.1411,-7.1812,-7.1809,-7.2803,-7.2119,-7.1707,-7.3045,-7.2683,-7.2585,-7.3626,-7.4657,-7.5623,-7.6553,-7.618,-7.6194,-7.7169,-7.6587,-7.6147,-7.6308,-7.6293,-7.6394,-7.66,-7.6618,-7.6579,-7.6579,-7.6618,-7.6618,-7.6579,-7.6734,-7.6804,-7.6804,-7.6984,-7.7105,-7.7109,-7.7108,-7.71,-7.7083,-7.7083,-7.7089,-7.7137,-7.8024,-7.8891,-7.9762,-8.0647,-8.1534,-8.2313,-8.2299,-8.2293,-8.2293,-8.2293,-8.2293,-8.2293,0.0,0.0,0.0,0.0,0.0,0.0,0.0,0.0,0.0,0.0,0.0,0.0,0.0,0.0,0.0,0.0,0.0,0.0,-6.8608,-6.8838,-6.8957,-6.8944,-6.9624,-6.9431,-6.8218,-6.7506,-6.6965,-6.6592,-6.6268,-6.6184,-6.6345,-6.59,-6.5393,-6.486,-6.4567,-6.4246,-6.385,-6.3754,-6.3828,-6.4068,-6.4811,-6.5146,-6.524,0.0,0.0,0.0,0.0,0.0,0.0,0.0,0.0,0.0,-6.2333,-6.2776,-6.3212,-6.3212,-6.3836,-6.4598,-6.4845,-6.6316,-6.7781,-6.7789,-6.8755,-7.0072,-7.1735,-7.1991,-7.2279,-7.3579,-7.33,-7.2914,-7.3104,-7.3205,-7.3344,-7.3601,-7.4543,-7.5341,-7.5712,-7.5764,-7.5902,-7.6346,-7.6301,-7.626,-7.632,-7.6525,-7.6699,-7.6741,-7.6872,-7.6951,-7.6951,-7.6838,-7.6825,-7.6951,-7.6866,-7.6863,-7.7029,-7.7062,-7.7109,-7.7108,-7.7099,-7.7089,-7.7083,-7.7091,-7.7096,-7.7097,-7.7369,-7.8311,-7.9801,-8.1283,-8.2059,-8.2287,-8.2313,-8.2308,-8.2308,-8.2308,-8.2308,-8.2308,0.0,0.0,0.0,0.0,0.0,0.0,0.0,0.0,0.0,0.0,-6.8368,-6.8506,0.0,0.0,0.0,0.0,0.0,0.0,0.0,-6.9446,-6.9529,-7.003,-7.0601,-7.0333,-6.9039,-6.8004,-6.7463,-6.7337,-6.6621,-6.6379,-6.6479,-6.6179,-6.5801,-6.5449,-6.4853,-6.4609,-6.459,-6.4212,-6.4212,-6.4583,-6.5227,-6.5511,-6.5574,0.0,0.0,0.0,0.0,0.0,0.0,0.0,0.0,0.0,-6.3002,-6.3244,-6.3597,-6.4093,-6.4522,-6.5153,-6.6245,-6.7568,-6.8705,-6.9093,-6.9993,-7.1156,-7.2549,-7.2922,-7.3283,-7.4502,-7.426,-7.3823,-7.3959,-7.406,-7.4036,-7.3862,-7.4637,-7.53,-7.5368,-7.5644,-7.5879,-7.6093,-7.6224,-7.6361,-7.6497,-7.6667,-7.6822,-7.6907,-7.7039,-7.7101,-7.7101,-7.6981,-7.6973,-7.7101,-7.6977,-7.6989,-7.7087,-7.7105,-7.7109,-7.7109,-7.7141,-7.7133,-7.7133,-7.7139,-7.7143,-7.7184,-7.7848,-7.8745,-7.9838,-8.1597,-8.2299,-8.2292,-8.2285,-8.2283,-8.2283,-8.2283,-8.2283,-8.2283,0.0,0.0,0.0,0.0,0.0,0.0,0.0,0.0,0.0,0.0,-6.9492,-6.9672,0.0,0.0,0.0,0.0,0.0,0.0,0.0,-7.0211,-7.0188,-7.2006,-7.211,-7.159,-7.0327,-6.9289,-6.8754,-6.8651,-6.7588,-6.704,-6.6998,-6.6623,-6.6668,-6.7089,-6.5755,-6.5477,-6.5999,-6.5058,-6.4748,-6.4875,-6.5508,-6.5762,-6.5825,-6.649,0.0,0.0,0.0,0.0,0.0,0.0,0.0,0.0,-6.385,-6.4024,-6.4247,-6.5302,-6.589,-6.6588,-6.8627,-6.9166,-6.9572,-7.1158,-7.1422,-7.176,-7.3635,-7.4079,-7.4431,-7.5443,-7.4879,-7.444,-7.5254,-7.4996,-7.4499,-7.4252,-7.4903,-7.5386,-7.5386,-7.574,-7.6052,-7.6297,-7.6305,-7.6448,-7.678,-7.681,-7.6902,-7.7095,-7.7098,-7.7098,-7.7098,-7.7098,-7.7098,-7.7098,-7.7101,-7.7104,-7.7107,-7.7097,-7.7106,-7.7107,-7.7187,-7.7184,-7.7184,-7.7184,-7.7186,-7.7305,-7.8984,-7.9686,-7.9834,-8.1597,-8.23,-8.2293,-8.2293,-8.2293,-8.2293,-8.2293,-8.2293,-8.2293,0.0,0.0,0.0,0.0,0.0,0.0,0.0,0.0,0.0,0.0,0.0,0.0,0.0,0.0,0.0,0.0,0.0,0.0,0.0,0.0,-7.0779,-7.1246,-7.1717,-7.1914,-7.1746,-7.062,-6.9686,-6.9101,-6.8807,-6.8664,-6.8664,-6.7743,-6.7088,-6.6702,-6.5951,-6.5999,-6.6496,-6.6152,-6.6529,-6.7397,-6.7558,-6.7622,-6.7622,-6.7783,-6.7848,0.0,0.0,0.0,0.0,0.0,0.0,0.0,-6.3976,-6.4024,-6.4056,-6.4327,-6.4937,-6.5849,-6.711,-6.854,-6.9914,-7.1037,-7.1601,-7.2236,-7.3315,-7.3618,-7.416,-7.5891,-7.5019,-7.4286,-7.5301,-7.4629,-7.3987,-7.4237,-7.4903,-7.5386,-7.5386,-7.574,-7.6052,-7.6297,-7.6447,-7.6605,-7.6786,-7.6921,-7.7046,-7.7101,-7.7089,-7.7117,-7.7117,-7.7117,-7.7117,-7.7117,-7.7095,-7.7117,-7.71,-7.7105,-7.7148,-7.7186,-7.7185,-7.7186,-7.7187,-7.7187,-7.7187,-7.7305,-7.8984,-7.9687,-7.9843,-8.1562,-8.2303,-8.2301,-8.2301,-8.2301,-8.2301,-8.2301,-8.2301,-8.2301,0.0,0.0,0.0,0.0,0.0,0.0,0.0,0.0,0.0,0.0,0.0,0.0,0.0,0.0,0.0,0.0,0.0,0.0,0.0,0.0,-7.0465,-7.1276,-7.1807,-7.1896,-7.1633,-7.1017,-7.0302,-6.954,-6.9737,-6.9445,-6.867,-6.8117,-6.7721,-6.7437,-6.7101,-6.7463,-6.8253,-6.8078,-6.8379,-6.9027,-6.8549,-6.8159,-6.7801,-6.7394,-6.7197,-6.7165,-6.6809,0.0,0.0,0.0,0.0,0.0,0.0,0.0,-6.4135,-6.4695,-6.5073,-6.5719,-6.7881,-6.9063,-6.9974,-7.1541,-7.1905,-7.235,-7.4008,-7.3964,-7.4131,-7.611,-7.5418,-7.4601,-7.5043,-7.4657,-7.42,-7.3971,-7.4763,-7.5386,-7.5386,-7.574,-7.6106,-7.6415,-7.6555,-7.6677,-7.6907,-7.7032,-7.7089,-7.7089,-7.7071,-7.7059,-7.7059,-7.7059,-7.7059,-7.7059,-7.7032,-7.7059,-7.7091,-7.7096,-7.7144,-7.7187,-7.7187,-7.7187,-7.7187,-7.7187,-7.7187,-7.7305,-7.8984,-7.9687,-7.9844,-8.1562,-8.2304,-8.2304,-8.2304,-8.2304,-8.2304,-8.2304,-8.2304,-8.2304,0.0,0.0,0.0,0.0,0.0,0.0,0.0,0.0,0.0,0.0,0.0,0.0,0.0,0.0,0.0,0.0,0.0,0.0,0.0,0.0,0.0,-7.1658,-7.2084,-7.1957,-7.1334,-7.1294,-7.0876,-7.0004,-7.045,-6.991,-6.8448,-6.8448,-6.8561,-6.8706,-6.869,-6.9186,-6.9989,-6.9815,-6.9893,-6.9992,-6.9006,-6.8406,-6.8015,-6.7013,-6.6695,-6.6696,-6.6469,-6.595,-6.5285,0.0,0.0,0.0,0.0,0.0,-6.4215,-6.5283,-6.5443,-6.5944,-6.8941,-6.9746,-7.0243,-7.2326,-7.2112,-7.2046,-7.4691,-7.4098,-7.3615,-7.5801,-7.5572,-7.4838,-7.4579,-7.4534,-7.4336,-7.364,-7.4519,-7.5277,-7.5386,-7.574,-7.616,-7.6564,-7.6618,-7.6745,-7.7089,-7.7089,-7.7117,-7.7114,-7.7055,-7.7004,-7.6999,-7.6999,-7.6999,-7.6999,-7.7004,-7.7028,-7.7104,-7.7117,-7.7133,-7.7185,-7.7187,-7.7187,-7.7187,-7.7187,-7.7187,-7.7305,-7.8984,-7.9687,-7.9844,-8.1562,-8.2304,-8.2304,-8.2304,-8.2304,-8.2304,-8.2304,-8.2304,-8.2304,0.0,0.0,0.0,0.0,0.0,0.0,0.0,0.0,0.0,0.0,-7.2015,-7.1601,0.0,0.0,0.0,0.0,0.0,0.0,-6.9479,0.0,0.0,-7.1658,-7.2356,-7.2668,-7.2563,-7.2563,-7.1862,-7.0424,-7.0937,-7.0752,-6.9942,-6.9942,-6.9938,-7.0001,-7.0485,-7.042,-6.9883,-6.9931,-7.0134,-7.0345,-6.9204,-6.9501,-7.04,-6.9273,-6.9044,-6.9163,-6.8059,-6.7227,-6.6493,-6.5365,-6.4574,0.0,0.0,0.0,-6.4118,-6.4695,-6.5377,-6.625,-6.7577,-6.9424,-7.1358,-7.3055,-7.1732,-7.0793,-7.3725,-7.2399,-7.1378,-7.4293,-7.458,-7.4199,-7.3883,-7.3471,-7.3289,-7.3604,-7.4265,-7.4885,-7.5351,-7.574,-7.616,-7.6564,-7.6618,-7.6745,-7.7089,-7.7098,-7.7092,-7.7114,-7.7055,-7.6995,-7.7009,-7.7009,-7.7009,-7.7009,-7.6995,-7.7036,-7.7081,-7.7083,-7.7137,-7.7187,-7.7187,-7.7187,-7.7187,-7.7187,-7.7187,-7.7305,-7.8984,-7.9687,-7.9844,-8.1562,-8.2304,-8.2304,-8.2304,-8.2304,-8.2304,-8.2304,-8.2304,-8.2304,0.0,0.0,0.0,0.0,0.0,0.0,0.0,0.0,0.0,0.0,0.0,-7.2188,0.0,0.0,0.0,-7.0113,-6.9459,-6.919,-6.9376,-7.0499,-7.1131,-7.1026,-7.1763,-7.1974,-7.1517,-7.1823,-7.1396,-7.031,-7.0888,-7.1024,-7.0826,-7.1163,-7.1128,-7.0822,-7.1668,-7.1698,-7.1116,-7.1567,-7.1444,-7.0849,-6.9871,-7.0193,-7.1063,-6.9066,-6.9271,-7.0449,-6.885,-6.816,-6.7914,-6.7309,-6.6634,-6.5942,-6.5515,0.0,0.0,0.0,-6.5579,-6.6401,-6.7793,-6.9347,-7.1008,-7.2674,-7.1728,-7.1329,-7.4753,-7.373,-7.2633,-7.4632,-7.4605,-7.4108,-7.3844,-7.3379,-7.3141,-7.3628,-7.4265,-7.4885,-7.5351,-7.574,-7.616,-7.6564,-7.6618,-7.6745,-7.7089,-7.7092,-7.7078,-7.7059,-7.7038,-7.7009,-7.6983,-7.7017,-7.7017,-7.7017,-7.6985,-7.7032,-7.711,-7.7087,-7.7141,-7.7187,-7.7187,-7.7187,-7.7187,-7.7187,-7.7187,-7.7305,-7.8984,-7.9687,-7.9844,-8.1562,-8.2304,-8.2304,-8.2304,-8.2304,-8.2304,-8.2304,-8.2304,-8.2304,0.0,0.0,0.0,0.0,0.0,0.0,0.0,0.0,0.0,0.0,0.0,0.0,0.0,0.0,0.0,0.0,-6.9672,-6.9575,-6.9972,-7.1061,-7.1517,-7.1096,-7.1658,-7.1693,-7.1096,-7.1427,-7.1245,-7.0476,-7.0972,-7.132,-7.163,-7.2275,-7.235,-7.21,-7.2813,-7.2724,-7.207,-7.267,-7.2327,-7.1339,-7.0654,-7.1139,-7.2058,-6.9853,-7.0342,-7.1943,-6.9836,-6.9186,-6.9288,-6.8648,-6.7947,-6.7233,-6.6675,-6.6353,0.0,0.0,0.0,-6.6608,-6.803,-6.8971,-6.9969,-7.1717,-7.1473,-7.1686,-7.4918,-7.4667,-7.3951,-7.4735,-7.4514,-7.4099,-7.3672,-7.3204,-7.3044,-7.3478,-7.4154,-7.4749,-7.5205,-7.5692,-7.6133,-7.6497,-7.6497,-7.6646,-7.6981,-7.702,-7.7008,-7.7004,-7.699,-7.6999,-7.6999,-7.6999,-7.7005,-7.6983,-7.6985,-7.7032,-7.7112,-7.7135,-7.7145,-7.7187,-7.7187,-7.7187,-7.7187,-7.7187,-7.7187,-7.7305,-7.8984,-7.9687,-7.9844,-8.1562,-8.2304,-8.2304,-8.2304,-8.2304,-8.2304,-8.2304,-8.2304,-8.2304,0.0,0.0,0.0,0.0,0.0,0.0,0.0,0.0,0.0,0.0,0.0,0.0,-7.0573,-7.0597,-7.0526,-6.9958,-7.0046,-7.0552,-7.1514,-7.1658,-7.2009,-7.2641,-7.2711,0.0,-7.2676,-7.2512,-7.2084,-7.1206,-7.1578,-7.2001,-7.2434,-7.3203,-7.3751,-7.4142,-7.3983,-7.3294,-7.2184,-7.2327,-7.2085,-7.1657,-7.141,-7.2654,-7.4501,-7.3425,-7.3755,-7.4417,-7.1479,-7.0526,-7.0377,-6.8209,-6.7107,-6.6635,-6.6535,-6.6022,-6.5548,0.0,0.0,0.0,-6.7692,-6.7971,-6.8438,-7.0246,-7.066,-7.1059,-7.2797,-7.3612,-7.3869,-7.355,-7.3881,-7.3915,-7.2935,-7.2532,-7.2524,-7.3044,-7.3613,-7.4239,-7.4749,-7.5501,-7.609,-7.627,-7.6305,-7.6448,-7.6786,-7.681,-7.6872,-7.7004,-7.7004,-7.698,-7.6999,-7.6999,-7.6989,-7.6999,-7.7004,-7.7043,-7.7096,-7.7147,-7.7187,-7.7187,-7.7187,-7.7187,-7.7187,-7.7187,-7.7187,-7.7305,-7.8984,-7.9687,-7.9844,-8.1562,-8.2304,-8.2304,-8.2304,-8.2304,-8.2304,-8.2304,-8.2304,-8.2304,0.0,0.0,0.0,0.0,0.0,0.0,0.0,0.0,0.0,0.0,0.0,0.0,0.0,-7.0752,-7.0666,-7.1076,-7.1469,-7.1595,-7.1427,-7.2037,-7.2325,-7.2114,-7.2114,-7.2114,-7.2114,-7.2219,-7.2201,-7.1887,-7.2493,-7.2922,-7.3203,-7.376,-7.4082,-7.4075,-7.3925,-7.3285,-7.2368,-7.205,-7.1621,-7.1149,-7.1683,-7.3111,-7.4722,-7.3291,-7.4402,-7.6159,-7.2941,-7.2119,-7.2418,-7.123,-7.0236,-6.9514,-6.9038,-6.8756,-6.8366,-6.755,-6.7037,-6.6779,-6.6542,-6.6474,-6.684,-6.8258,-6.844,-6.899,-7.1759,-7.2749,-7.3125,-7.3373,-7.3815,-7.4062,-7.3562,-7.2884,-7.263,-7.3376,-7.3902,-7.4405,-7.5075,-7.5676,-7.6052,-7.6297,-7.6281,-7.6428,-7.678,-7.6804,-7.6866,-7.7004,-7.7004,-7.6985,-7.6999,-7.6999,-7.6989,-7.7004,-7.7032,-7.7115,-7.7147,-7.7187,-7.7187,-7.7187,-7.7187,-7.7187,-7.7187,-7.7187,-7.75,-7.8086,-7.9219,-7.9687,-7.9844,-8.1562,-8.2304,-8.2304,-8.2304,-8.2304,-8.2304,-8.2304,-8.2304,-8.2304,0.0,0.0,0.0,0.0,0.0,0.0,0.0,0.0,-7.1808,-7.0567,0.0,0.0,0.0,0.0,-7.1559,-7.2485,-7.3223,-7.3237,-7.2423,-7.3071,-7.3217,-7.2794,-7.2832,-7.2865,-7.3,-7.2703,-7.2644,-7.2888,-7.2813,-7.3177,-7.394,-7.4005,-7.4033,-7.3976,-7.3297,-7.2798,-7.23,-7.1871,-7.1331,-7.0926,-7.2233,-7.3477,-7.448,-7.3881,-7.4994,-7.6551,-7.4022,-7.3513,-7.3898,-7.3507,-7.2763,-7.19,-7.1151,-7.0297,-6.9405,-6.8708,-6.7398,-6.6173,-6.5943,-6.5745,-6.5718,-6.6376,-6.6996,-6.8194,-7.1036,-7.2444,-7.325,-7.3582,-7.4151,-7.444,-7.3946,-7.3104,-7.2769,-7.3591,-7.4043,-7.4464,-7.4962,-7.5589,-7.6048,-7.6173,-7.6186,-7.6316,-7.6591,-7.6706,-7.6807,-7.6911,-7.6985,-7.6985,-7.6999,-7.7017,-7.7024,-7.7046,-7.7115,-7.7139,-7.7187,-7.7187,-7.7187,-7.7187,-7.7187,-7.7187,-7.7187,-7.7187,-7.7695,-7.8555,-7.9336,-7.9883,-8.0234,-8.1719,-8.2304,-8.2304,-8.2304,-8.2304,-8.2304,-8.2304,-8.2304,-8.2304,0.0,0.0,0.0,0.0,0.0,0.0,0.0,0.0,-7.1222,-7.0498,0.0,0.0,0.0,0.0,0.0,-7.4154,-7.5117,-7.5366,-7.4576,-7.464,-7.4808,-7.4866,-7.503,-7.5264,-7.5581,-7.4,-7.3547,-7.4325,-7.27,-7.2811,-7.4558,-7.3779,-7.3612,-7.3868,-7.237,-7.183,-7.1966,-7.176,-7.1331,-7.0996,-7.3074,-7.3917,-7.4058,-7.5406,-7.576,-7.5525,-7.4723,-7.4555,-7.4695,-7.4645,-7.4185,-7.3461,-7.2511,-7.0309,-6.8254,-6.921,-6.7449,-6.5397,0.0,0.0,0.0,-6.4708,-6.6534,-6.8877,-7.0356,-7.2531,-7.4238,-7.4097,-7.4755,-7.5002,-7.3912,-7.3046,-7.2753,-7.356,-7.4039,-7.4293,-7.4315,-7.5274,-7.5976,-7.6015,-7.6015,-7.609,-7.6297,-7.6497,-7.6652,-7.6769,-7.6905,-7.6985,-7.6999,-7.7019,-7.7046,-7.7097,-7.7186,-7.7187,-7.7187,-7.7187,-7.7187,-7.7187,-7.7187,-7.7187,-7.7187,-7.7187,-7.7695,-7.8594,-7.9375,-8.0195,-8.1094,-8.1953,-8.2304,-8.2304,-8.2304,-8.2304,-8.2304,-8.2304,-8.2304,-8.2304,0.0,0.0,0.0,0.0,0.0,-7.0953,-7.1463,-7.1498,-7.1222,0.0,0.0,0.0,-7.1202,-7.2562,-7.3865,-7.4726,-7.5156,-7.5334,-7.5119,-7.5295,-7.5182,-7.464,-7.5414,-7.559,-7.5094,-7.4894,-7.4868,-7.4938,-7.4288,-7.3889,-7.3708,-7.3828,-7.3297,-7.2334,-7.187,-7.1507,-7.1273,-7.0972,-7.0863,-7.1126,-7.3008,-7.4138,-7.4755,-7.5426,-7.6234,-7.6868,-7.5713,-7.4936,-7.4603,-7.5306,-7.4056,-7.22,-7.1978,-7.1087,-7.0152,-7.04,-6.953,-6.8173,-6.7149,0.0,0.0,0.0,0.0,0.0,-6.7164,-6.9408,-7.133,-7.161,-7.2981,-7.411,-7.3852,-7.3133,-7.2753,-7.356,-7.3899,-7.4221,-7.4588,-7.533,-7.5841,-7.5962,-7.6015,-7.609,-7.6297,-7.6497,-7.6652,-7.6769,-7.6905,-7.6985,-7.6999,-7.7047,-7.7068,-7.7097,-7.7186,-7.7187,-7.7187,-7.7187,-7.7187,-7.7187,-7.7187,-7.7187,-7.7187,-7.7187,-7.8008,-7.9375,-7.9609,-8.0547,-8.1953,-8.2187,-8.2304,-8.2304,-8.2304,-8.2304,-8.2304,-8.2304,-8.2304,-8.2304,0.0,0.0,0.0,0.0,0.0,-7.17,-7.196,-7.2001,-7.1637,0.0,0.0,0.0,-7.2886,-7.4083,-7.5114,-7.5891,-7.574,-7.5481,-7.5158,-7.503,-7.497,-7.5046,-7.5696,-7.6112,-7.6234,-7.5644,-7.5261,-7.5112,-7.4083,-7.3439,-7.3151,-7.3083,-7.2548,-7.1692,-7.1507,-7.1247,-7.0979,-7.0949,-7.1081,-7.1516,-7.3366,-7.4238,-7.4529,-7.5757,-7.647,-7.6801,-7.6662,-7.6187,-7.5822,-7.6778,-7.5353,-7.3191,-7.3191,-7.2071,-7.0807,-7.1223,-7.0171,-6.8751,-6.8187,-6.7618,-6.6729,-6.525,0.0,0.0,-6.7041,-6.8821,-7.0462,-7.1347,-7.276,-7.3823,-7.3823,-7.3104,-7.2753,-7.356,-7.3686,-7.3832,-7.4485,-7.5221,-7.5756,-7.6,-7.6015,-7.6048,-7.6147,-7.635,-7.6526,-7.6665,-7.6826,-7.6944,-7.6999,-7.7071,-7.7115,-7.7097,-7.7186,-7.7187,-7.7187,-7.7187,-7.7187,-7.7187,-7.7187,-7.7187,-7.7187,-7.7187,-7.8125,-7.9687,-7.9687,-8.0703,-8.2304,-8.2304,-8.2304,-8.2304,-8.2304,-8.2304,-8.2304,-8.2304,-8.2304,-8.2304,0.0,0.0,-7.1497,-7.1748,-7.2724,-7.335,-7.3006,-7.29,-7.2349,0.0,-7.2092,-7.3531,-7.4977,-7.5751,-7.6458,-7.7133,-7.6533,-7.5799,-7.5132,-7.4433,-7.457,-7.5777,-7.5936,-7.6569,-7.7737,-7.6161,-7.5219,-7.4961,-7.323,-7.2502,-7.2655,-7.2082,-7.1759,-7.1684,-7.127,-7.1143,-7.1204,-7.1526,-7.1816,-7.2249,-7.3946,-7.4279,-7.4059,-7.6382,-7.6797,-7.6301,-7.7663,-7.7839,-7.7578,-7.8291,-7.7175,-7.54,-7.5187,-7.3193,-7.1126,-7.1842,-7.0247,-6.8434,-6.9346,-6.8451,-6.7126,-6.6385,-6.6243,0.0,-6.8389,-6.9363,-7.0405,-7.1908,-7.2896,-7.3427,-7.3274,-7.2658,-7.2401,-7.3164,-7.3093,-7.3252,-7.4139,-7.5056,-7.5692,-7.5932,-7.6,-7.6015,-7.6015,-7.6173,-7.6377,-7.6485,-7.6691,-7.6852,-7.6999,-7.7043,-7.7115,-7.7097,-7.7186,-7.7187,-7.7187,-7.7187,-7.7187,-7.7187,-7.7187,-7.7187,-7.7187,-7.7305,-7.8203,-7.9726,-7.9805,-8.0781,-8.2304,-8.2304,-8.2304,-8.2304,-8.2304,-8.2304,-8.2304,-8.2304,-8.2304,-8.2304,0.0,-6.9028,-6.9815,-7.1497,-7.1537,-7.2038,-7.4219,-7.4043,-7.3758,-7.4035,-7.4333,-7.4911,-7.5776,-7.6037,-7.6161,-7.6319,-7.6203,-7.6139,-7.6257,-7.551,-7.5245,-7.5787,-7.6051,-7.6005,-7.5606,-7.6367,-7.6115,-7.4775,-7.5141,-7.4183,-7.1941,-7.2235,-7.2191,-7.1682,-7.1547,-7.1848,-7.2435,-7.2414,-7.3009,-7.3969,-7.4071,-7.4782,-7.5893,-7.713,-7.8148,-7.8927,-7.8934,-7.8455,-7.7724,-7.715,-7.6992,-7.6763,-7.5145,-7.4543,-7.4139,-7.2797,-7.2058,-7.1596,-7.1006,-6.9677,-6.8307,-6.7605,-6.6872,0.0,-6.671,-6.7276,-6.8079,-6.9034,-6.9821,-7.031,-7.0398,-7.0252,-7.0274,-7.0572,-7.1398,-7.2466,-7.3874,-7.4606,-7.5167,-7.5692,-7.5902,-7.6015,-7.6015,-7.6173,-7.6377,-7.6485,-7.6786,-7.6978,-7.7004,-7.7043,-7.7115,-7.7097,-7.7186,-7.7187,-7.7187,-7.7187,-7.7187,-7.7187,-7.7187,-7.7187,-7.7226,-7.793,-7.8789,-7.9726,-8.0429,-8.1328,-8.2304,-8.2304,-8.2304,-8.2304,-8.2304,-8.2304,-8.2304,-8.2304,-8.2304,-8.2304,-7.0415,-7.0913,-7.1801,-7.3398,-7.3544,-7.3938,-7.5403,-7.5258,-7.5046,-7.4975,-7.5362,-7.564,-7.575,-7.6484,-7.698,-7.7156,-7.6417,-7.5994,-7.6199,-7.5014,-7.463,-7.5366,-7.5532,-7.5683,-7.5807,-7.6238,-7.5855,-7.4607,-7.4756,-7.3879,-7.2001,-7.237,-7.2658,-7.2896,-7.2585,-7.299,-7.3836,-7.3361,-7.3524,-7.4099,-7.463,-7.5712,-7.7102,-7.8391,-7.9248,-7.9861,-8.0046,-7.972,-7.9098,-7.8431,-7.7574,-7.6792,-7.6416,-7.5474,-7.4372,-7.3572,-7.321,-7.2783,-7.1375,-7.0071,-6.8904,-6.8197,-6.7294,0.0,0.0,-6.7439,-6.7963,-6.8801,-6.9267,-6.9529,-6.9581,-6.9581,-6.9704,-6.9969,-7.0798,-7.1662,-7.236,-7.3753,-7.4942,-7.5628,-7.581,-7.5887,-7.6015,-7.6079,-7.6236,-7.6475,-7.6682,-7.6865,-7.6999,-7.7071,-7.7107,-7.7083,-7.7184,-7.7187,-7.7187,-7.7187,-7.7187,-7.7187,-7.7187,-7.7187,-7.7226,-7.8086,-7.8945,-7.9765,-8.0625,-8.1484,-8.2304,-8.2303,-8.2301,-8.2302,-8.2304,-8.2304,-8.2304,-8.2304,-8.2304,-8.2304,-7.1922,-7.2906,-7.3957,-7.5257,-7.5818,-7.6125,-7.6336,-7.6406,-7.613,-7.5296,-7.5957,-7.6304,-7.5713,-7.7024,-7.7923,-7.7899,-7.6871,-7.6077,-7.5779,-7.4499,-7.4238,-7.5272,-7.501,-7.5333,-7.6375,-7.5893,-7.5187,-7.4264,-7.3998,-7.3321,-7.2312,-7.2586,-7.3182,-7.4056,-7.3827,-7.4172,-7.4821,-7.4362,-7.4263,-7.4441,-7.5571,-7.6518,-7.749,-7.9105,-7.98,-8.003,-8.074,-8.0866,-8.0566,-7.9896,-7.8355,-7.6757,-7.7327,-7.6157,-7.4459,-7.4061,-7.3878,-7.3332,-7.137,-7.0069,-6.907,-6.8357,-6.7542,-6.7085,0.0,0.0,0.0,-6.8881,-6.9056,-6.9085,-6.9143,-6.9143,-6.9185,-6.9412,-7.0127,-7.0689,-7.0499,-7.2454,-7.4169,-7.4941,-7.5414,-7.5718,-7.5755,-7.5774,-7.6019,-7.6475,-7.6409,-7.6552,-7.6972,-7.7063,-7.7104,-7.711,-7.7183,-7.7187,-7.7187,-7.7187,-7.7187,-7.7187,-7.7187,-7.7187,-7.7226,-7.8242,-7.9101,-7.9765,-8.0781,-8.164,-8.2304,-8.2295,-8.2289,-8.2293,-8.2301,-8.2264,-8.2264,-8.2304,-8.2304,-8.2264,-7.1822,-7.2141,-7.2847,-7.4826,-7.5317,-7.5839,-7.682,-7.7087,-7.6893,-7.6099,-7.6918,-7.7363,-7.6724,-7.7627,-7.7898,-7.6879,-7.7387,-7.7152,-7.5711,-7.5502,-7.5733,-7.6389,-7.5051,-7.4699,-7.5511,-7.5464,-7.4785,-7.3447,-7.4624,-7.4197,-7.2341,-7.3097,-7.3652,-7.3954,-7.4869,-7.5054,-7.4774,-7.5313,-7.6159,-7.705,-7.7176,-7.6689,-7.6116,-7.7903,-7.9002,-7.9747,-8.0661,-8.1137,-8.1041,-7.9454,-7.8669,-7.796,-7.5962,-7.6292,-7.6854,-7.3909,-7.3803,-7.4134,-7.1745,-6.9892,-6.8637,-6.827,-6.7651,-6.7134,-6.6983,0.0,-6.6997,-6.7099,0.0,-6.7186,-6.7409,0.0,0.0,-6.7022,-6.8288,-6.9236,-6.8998,-7.0312,-7.1663,-7.2508,-7.4431,-7.5472,-7.4834,-7.4962,-7.5511,-7.6447,-7.5979,-7.602,-7.6951,-7.7043,-7.7112,-7.7094,-7.7186,-7.7187,-7.7187,-7.7187,-7.7187,-7.7187,-7.7187,-7.7187,-7.7265,-7.8828,-7.9608,-7.9795,-8.1436,-8.2217,-8.2293,-8.2232,-8.2235,-8.2292,-8.2246,-8.2203,-8.2205,-8.2292,-8.2251,-8.2203,-7.2775,-7.3053,-7.379,-7.5907,-7.6386,-7.6659,-7.7144,-7.6876,-7.6313,-7.5506,-7.6427,-7.6901,-7.6273,-7.7202,-7.7954,-7.83,-7.7779,-7.7225,-7.6735,-7.6137,-7.5685,-7.5494,-7.4651,-7.4371,-7.4801,-7.4732,-7.4404,-7.3826,-7.4404,-7.4247,-7.339,-7.3848,-7.447,-7.5258,-7.5742,-7.6232,-7.6674,-7.6844,-7.6959,-7.7073,-7.7587,-7.73,-7.6779,-7.9184,-8.0357,-8.0737,-8.1151,-8.1335,-8.1336,-8.0607,-7.9479,-7.84,-7.8632,-7.7734,-7.6406,-7.5511,-7.4861,-7.4026,-7.1801,-7.0909,-7.0249,-6.8935,-6.8593,-6.8362,-6.7442,-6.723,-6.723,-6.723,0.0,0.0,0.0,0.0,0.0,0.0,-6.8394,-6.8952,-6.8519,-6.993,-7.1355,-7.2261,-7.3135,-7.3917,-7.452,-7.5173,-7.5838,-7.6436,-7.6245,-7.6342,-7.696,-7.7043,-7.7115,-7.7097,-7.7186,-7.7187,-7.7187,-7.7187,-7.7187,-7.7145,-7.7145,-7.7142,-7.721,-7.8889,-7.9627,-7.9736,-8.1493,-8.2235,-8.2232,-8.2198,-8.223,-8.2245,-8.2187,-8.2159,-8.2185,-8.2232,-8.223,-8.2182,-7.3338,-7.3933,-7.4873,-7.671,-7.7118,-7.7169,-7.698,-7.6497,-7.5829,-7.5147,-7.599,-7.6625,-7.6345,-7.7429,-7.8542,-7.9485,-7.877,-7.8139,-7.7917,-7.7036,-7.6369,-7.5948,-7.5135,-7.4839,-7.5132,-7.4809,-7.4492,-7.4197,-7.4197,-7.4197,-7.4197,-7.4425,-7.4972,-7.5832,-7.6274,-7.6958,-7.7764,-7.7833,-7.7717,-7.7658,-7.8322,-7.8484,-7.8512,-8.0313,-8.1207,-8.1491,-8.1491,-8.1491,-8.144,-8.1026,-7.9866,-7.873,-7.9877,-7.8606,-7.6721,-7.6983,-7.6361,-7.5085,-7.2696,-7.2283,-7.1963,-6.9563,-6.927,-6.9224,-6.792,-6.7614,-6.7614,-6.7614,-6.7614,0.0,0.0,0.0,-6.7752,-6.7887,0.0,-6.8723,-6.8087,-6.936,-7.0626,-7.1398,-7.1768,-7.2543,-7.4052,-7.4879,-7.5515,-7.5979,-7.6116,-7.6393,-7.6877,-7.7032,-7.7115,-7.7097,-7.7186,-7.7187,-7.7187,-7.7187,-7.7186,-7.7099,-7.7099,-7.7089,-7.7179,-7.8858,-7.9593,-7.97,-8.1457,-8.2198,-8.2198,-8.2192,-8.2177,-8.2187,-8.2038,-8.2011,-8.207,-8.2079,-8.2084,-8.2065,-7.2906,-7.4242,-7.5661,-7.6623,-7.6961,-7.6899,-7.6246,-7.613,-7.5919,-7.5465,-7.6301,-7.7138,-7.7579,-7.9069,-7.9887,-7.9546,-8.0716,-8.0727,-7.8971,-7.8599,-7.8599,-7.9028,-7.7131,-7.6348,-7.6998,-7.6171,-7.5238,-7.4197,-7.4197,-7.4197,-7.4197,-7.459,-7.4798,-7.4915,-7.627,-7.6901,-7.6995,-7.7845,-7.8791,-7.9774,-7.9827,-8.0456,-8.1285,-8.0461,-8.0705,-8.1491,-8.1491,-8.1491,-8.1285,-7.9869,-7.9396,-7.921,-7.778,-7.827,-7.9139,-7.7836,-7.8102,-7.8139,-7.4799,-7.3882,-7.3096,-6.9895,-6.9315,-6.9159,-6.7904,-6.7614,-6.7614,-6.7614,-6.7614,-6.7694,-6.8018,-6.807,-6.7924,-6.7393,-6.7999,0.0,0.0,-6.7938,-6.8494,-6.8884,-7.036,-7.1828,-7.3108,-7.3389,-7.3826,-7.4692,-7.5122,-7.5754,-7.666,-7.696,-7.7115,-7.7097,-7.7186,-7.7187,-7.7187,-7.7187,-7.7186,-7.7099,-7.7099,-7.7089,-7.7179,-7.8858,-7.9619,-7.9695,-8.1451,-8.2196,-8.2192,-8.2134,-8.2145,-8.2177,-8.1851,-8.1708,-8.1726,-8.1773,-8.1781,-8.1675,-7.4171,-7.5198,-7.6121,-7.6364,-7.6547,-7.6542,-7.6334,-7.6165,-7.5973,-7.5505,-7.685,-7.7814,-7.7683,-7.8897,-7.9957,-8.0551,-8.0477,-8.0239,-7.9845,-7.8773,-7.8387,-7.8825,-7.6517,-7.5964,-7.7642,-7.6022,-7.5242,-7.548,-7.4892,-7.459,-7.459,-7.4737,-7.4879,-7.5113,-7.6122,-7.7026,-7.7889,-7.8662,-7.9377,-7.9952,-8.0007,-8.028,-8.0679,-8.0937,-8.1208,-8.1491,-8.1491,-8.1491,-8.1452,-8.104,-8.0538,-8.0125,-8.019,-7.9649,-7.8965,-7.8989,-7.8653,-7.8003,-7.6787,-7.6649,-7.6059,-7.2682,-7.2163,-7.1735,-6.8961,-6.8321,-6.8321,-6.8321,-6.8247,-6.8222,-6.8321,-6.8346,0.0,0.0,0.0,0.0,0.0,-6.8308,-6.8578,-6.89,-7.0264,-7.1474,-7.2209,-7.3475,-7.4365,-7.4678,-7.5625,-7.6328,-7.6692,-7.696,-7.7115,-7.7097,-7.7186,-7.7187,-7.7187,-7.7187,-7.7184,-7.7117,-7.7117,-7.7089,-7.7097,-7.8774,-7.9539,-7.9639,-8.1399,-8.214,-8.2134,-8.2116,-8.2122,-8.2083,-8.1826,-8.1698,-8.1689,-8.154,-8.1447,-8.1425,-7.4521,-7.5314,-7.6075,-7.6217,-7.6329,-7.6314,-7.607,-7.5972,-7.5886,-7.5784,-7.7112,-7.8117,-7.825,-7.9441,-8.0489,-8.1258,-8.0941,-8.0608,-8.0366,-7.9459,-7.9003,-7.9177,-7.7538,-7.7248,-7.8643,-7.7211,-7.637,-7.6217,-7.5565,-7.5122,-7.4819,-7.4879,-7.5036,-7.5247,-7.5817,-7.6908,-7.84,-7.8891,-7.9638,-8.0524,-8.0577,-8.0638,-8.0783,-8.1356,-8.1347,-8.1078,-8.1437,-8.1565,-8.1589,-8.1652,-8.1336,-8.0919,-8.1203,-8.0599,-7.9792,-7.9989,-7.9688,-7.9152,-7.8615,-7.872,-7.8219,-7.5185,-7.4458,-7.3674,-7.0557,-6.9641,-6.9438,-6.9438,-6.9095,-6.9057,-6.9842,-6.9341,0.0,0.0,0.0,0.0,0.0,-6.8457,-6.8565,-6.8945,-6.9916,-7.0819,-7.157,-7.2924,-7.3986,-7.4562,-7.5531,-7.6263,-7.6527,-7.6897,-7.7115,-7.7097,-7.7186,-7.7187,-7.7187,-7.7187,-7.7183,-7.711,-7.7104,-7.7067,-7.7055,-7.8753,-7.9493,-7.961,-8.1325,-8.2104,-8.2104,-8.2104,-8.2039,-8.1936,-8.167,-8.1497,-8.1395,-8.1234,-8.1098,-8.0998,-7.3934,-7.4619,-7.5513,-7.6262,-7.6361,-7.6155,-7.5523,-7.5586,-7.587,-7.6215,-7.721,-7.8254,-7.9268,-8.0672,-8.1523,-8.1523,-8.2011,-8.1781,-8.0564,-8.0571,-8.0466,-8.0213,-8.0105,-8.0035,-8.0002,-7.9552,-7.8398,-7.6585,-7.6237,-7.5656,-7.4839,-7.5095,-7.5209,-7.5228,-7.543,-7.6618,-7.8522,-7.8536,-7.9671,-8.1502,-8.1541,-8.1564,-8.1659,-8.1688,-8.1076,-8.0365,-8.1331,-8.1713,-8.1713,-8.1698,-8.1708,-8.1571,-8.0743,-8.1036,-8.1543,-8.0805,-8.1155,-8.1534,-8.0329,-8.0022,-7.9468,-7.7262,-7.6108,-7.49,-7.2605,-7.1484,-7.0877,-7.0877,-7.0174,-7.0195,-7.224,-7.0908,0.0,0.0,0.0,0.0,0.0,-6.8408,-6.8493,-6.8945,-6.9353,-7.0021,-7.1139,-7.1788,-7.2763,-7.4238,-7.4922,-7.5576,-7.6263,-7.6777,-7.7034,-7.7097,-7.7186,-7.7187,-7.7187,-7.7187,-7.7184,-7.7083,-7.711,-7.7075,-7.7043,-7.8687,-7.9454,-7.961,-8.1286,-8.2065,-8.2104,-8.2104,-8.1944,-8.1679,-8.1418,-8.1126,-8.0869,-8.0869,-8.0733,-8.0506,-7.3835,-7.4524,-7.5416,-7.576,-7.5817,-7.5777,-7.5706,-7.6717,-7.7418,-7.7319,-7.9141,-8.0443,-8.0474,-8.1438,-8.2084,-8.2084,-8.2234,-8.2163,-8.1824,-8.0974,-8.0851,-8.1715,-8.0007,-7.977,-8.1265,-7.8966,-7.7819,-7.7894,-7.6399,-7.5548,-7.532,-7.5374,-7.543,-7.543,-7.5514,-7.6731,-7.8654,-7.8745,-8.0,-8.1873,-8.1804,-8.143,-8.0967,-8.1597,-8.1272,-8.0596,-8.1484,-8.1723,-8.1718,-8.182,-8.1765,-8.1669,-8.1543,-8.1621,-8.1718,-8.1524,-8.1611,-8.1728,-8.1387,-8.1328,-8.0877,-7.8722,-7.7483,-7.6212,0.0,-7.2785,-7.2122,-7.2122,-7.1896,-7.1685,-7.1599,-7.1169,-7.0608,-6.9967,0.0,-6.9176,-6.8444,-6.8613,-6.8855,-6.899,-6.9926,-7.0496,-7.0363,-7.1882,-7.3054,-7.3335,-7.4447,-7.5448,-7.6253,-7.6093,-7.634,-7.7097,-7.7186,-7.7187,-7.7187,-7.7187,-7.7184,-7.7083,-7.711,-7.7075,-7.7043,-7.8102,-7.8948,-7.9571,-8.0662,-8.1481,-8.2104,-8.2104,-8.1944,-8.1679,-8.1418,-8.0998,-8.0614,-8.0614,-8.056,-8.0506,-7.4389,-7.4651,-7.5135,-7.5622,-7.584,-7.609,-7.6489,-7.7029,-7.7499,-7.7836,-7.9484,-8.0532,-8.0334,-8.1524,-8.2293,-8.2293,-8.2293,-8.2078,-8.1514,-8.1319,-8.1304,-8.146,-8.0709,-8.084,-8.2005,-8.0176,-7.902,-7.8624,-7.739,-7.6322,-7.5518,0.0,0.0,-7.5409,-7.5497,-7.6492,-7.8069,-7.9117,-8.0262,-8.1376,-8.1741,-8.1633,0.0,-8.1787,-8.1641,-8.1278,-8.1783,-8.1919,-8.1831,-8.1953,-8.1961,-8.1817,-8.1533,-8.1594,-8.1804,-8.1491,-8.1578,-8.1824,-8.1848,-8.1852,-8.1514,-8.0295,-7.9358,-7.8128,-7.5932,-7.472,-7.3975,0.0,-7.323,-7.3073,-7.3504,-7.2447,-7.1014,-6.9605,-6.951,-6.9428,-6.8863,-6.9069,-6.9303,-6.9303,-7.01,-7.0494,-7.0041,-7.1926,-7.3369,-7.3752,-7.415,-7.4668,0.0,-7.5476,-7.5904,-7.6558,-7.6992,-7.7187,-7.7187,-7.7187,-7.7183,-7.7083,-7.7101,-7.7063,-7.7043,-7.7907,-7.8753,-7.9571,-8.0422,-8.1247,-8.1929,-8.1929,-8.1698,-8.1335,-8.1041,-8.0762,-8.0506,-8.0506,-8.0506,-8.0506,-7.5281,-7.5025,-7.5029,-7.574,-7.6248,-7.6834,-7.7611,-7.7285,-7.7302,-7.8333,-7.9327,-7.9925,-7.9949,-8.1368,-8.2293,-8.2293,-8.2293,-8.1824,-8.0701,-8.1695,-8.18,-8.069,-8.1703,-8.2304,-8.2304,-8.1888,-8.0758,-7.8948,-7.8508,-7.7351,0.0,0.0,0.0,0.0,-7.548,-7.6229,-7.7502,-7.9551,-8.0551,-8.0791,-8.1616,-8.201,-8.2125,-8.2053,-8.2056,-8.2049,-8.2184,-8.2148,-8.2026,-8.2083,-8.2074,-8.1932,-8.1215,-8.1377,-8.1805,-8.1212,-8.139,-8.1856,-8.1895,-8.1804,-8.1728,-8.1747,-8.1116,-8.0006,-7.8168,-7.6958,-7.6069,-7.5374,-7.4513,-7.4459,-7.6212,-7.4076,-7.1454,-6.9657,-6.9738,-7.0005,-6.9814,-6.9967,-7.0061,-6.9948,-7.0451,0.0,-7.0317,-7.1975,-7.3407,-7.435,-7.3767,-7.3624,0.0,0.0,-7.5592,-7.6054,-7.6797,-7.7187,-7.7187,-7.7186,-7.7178,-7.7083,-7.7092,-7.7051,-7.7043,-7.779,-7.8558,-7.937,-8.0208,-8.0948,-8.1543,-8.1631,-8.1359,-8.0853,-8.0576,-8.0506,-8.0506,-8.0506,-8.0506,-8.0506,-7.5898,-7.589,-7.5939,-7.6159,-7.6897,-7.7797,-7.8755,-7.9468,-7.9975,-8.029,-8.1158,-8.1776,-8.1808,-8.2092,-8.2293,-8.2293,-8.2293,-8.2209,-8.1992,-8.2196,-8.2217,-8.1986,-8.2187,-8.229,-8.231,-8.1326,-8.0257,-7.9164,-7.8185,-7.7067,0.0,0.0,0.0,0.0,0.0,-7.6894,-7.8766,-8.0029,-8.1095,-8.2015,-8.2144,-8.2225,-8.2265,-8.2262,-8.2257,-8.2253,-8.2271,-8.2186,-8.2081,-8.2105,-8.2046,-8.2006,-8.1826,-8.1822,-8.1864,-8.1772,-8.185,-8.1972,-8.1914,-8.1864,-8.1875,-8.1915,-8.1205,-8.0437,-8.0116,-7.8777,-7.7623,-7.7467,-7.6799,-7.6108,-7.575,0.0,-7.3238,-7.1647,-7.2327,-7.2752,-7.1985,-7.2133,-7.2095,-7.1445,-7.211,-7.2425,-7.1871,-7.2116,-7.2317,-7.2326,-7.2347,-7.3123,-7.4888,0.0,-7.5118,0.0,-7.7109,-7.7187,0.0,0.0,-7.7178,-7.7083,-7.7092,-7.7051,-7.7004,-7.7167,-7.7701,-7.8552,-7.9128,-7.9861,-8.0669,-8.1154,-8.1194,-8.0853,-8.0576,-8.0506,-8.0506,-8.0506,-8.0506,-8.0506,-7.612,-7.5918,-7.5993,-7.6943,-7.7584,-7.8477,-7.9788,-8.0732,-8.1193,-8.0868,-8.1126,-8.1367,-8.1405,-8.1833,-8.1911,-8.1522,-8.1831,-8.1911,-8.1599,-8.182,-8.2076,-8.2301,-8.2185,-8.2195,-8.2293,-8.1747,-8.0738,-7.9256,-7.8743,-7.7654,0.0,0.0,0.0,-7.5755,0.0,-7.7356,0.0,0.0,-8.0956,-8.1509,-8.207,-8.23,-8.2296,-8.2289,-8.2318,-8.2302,-8.2296,-8.2244,-8.2186,-8.2217,-8.2187,-8.217,-8.217,-8.2071,-8.2003,-8.2076,-8.2017,-8.1914,-8.1925,-8.1886,-8.1855,-8.1902,-8.1543,-8.1046,-8.0653,-7.9906,-7.9037,-7.818,-7.7749,-7.7085,-7.5551,-7.4658,-7.3751,-7.2734,-7.2909,-7.316,-7.3091,-7.3307,-7.3342,-7.2927,-7.2992,-7.2833,-7.2263,-7.1801,-7.1917,-7.2791,-7.2759,-7.3338,-7.4711,0.0,-7.4743,0.0,0.0,0.0,-7.7187,0.0,-7.7137,-7.7101,-7.7075,-7.7034,-7.6983,-7.7005,-7.7391,-7.8131,-7.882,-7.9474,-8.0074,-8.0636,-8.0827,-8.0681,-8.0542,-8.0506,-8.0506,-8.0506,-8.0506,-8.0506,-7.6591,-7.6277,-7.6402,-7.7874,-7.8497,-7.9257,-8.0463,-8.138,-8.1762,-8.1166,-8.0975,-8.0887,-8.0891,-8.1494,-8.1607,-8.1004,-8.1431,-8.1568,-8.1097,-8.1471,-8.1831,-8.214,-8.206,-8.2073,-8.223,-8.2284,-8.1437,-7.9647,-7.9488,-7.8247,0.0,0.0,0.0,0.0,0.0,0.0,0.0,0.0,-8.0831,-8.1078,-8.1952,-8.2292,-8.232,-8.2285,-8.2313,-8.2293,-8.2293,-8.2293,-8.2296,-8.229,-8.2279,-8.23,-8.2295,-8.2226,-8.2147,-8.2256,-8.2109,-8.1904,-8.1991,-8.1951,-8.1847,-8.1855,-8.1847,-8.168,-8.0985,-8.0714,-8.0129,-7.8645,-7.8121,-7.7383,-7.5573,-7.4914,0.0,-7.3775,-7.3581,-7.3714,-7.4273,-7.4459,-7.4488,-7.4327,-7.3808,-7.3208,-7.2636,-7.2369,-7.2682,-7.378,-7.3367,-7.3441,-7.4285,-7.4047,-7.4478,0.0,0.0,-7.6832,-7.6836,0.0,-7.7083,-7.7114,-7.7051,-7.7009,-7.6999,-7.6999,-7.7234,-7.7667,-7.8428,-7.9105,-7.9659,-8.0252,-8.0506,-8.0506,-8.0506,-8.0506,-8.0506,-8.0525,-8.0505,-8.0543,-7.7946,-7.8072,-7.8277,-7.9017,-7.9947,-8.0547,-8.0451,-8.1231,-8.1864,-8.1975,-8.1875,-8.1811,-8.1871,-8.1836,-8.1766,-8.1694,-8.17,-8.1688,-8.1627,-8.1661,-8.1734,-8.1764,-8.1929,-8.1993,-8.2044,-8.2218,-8.1814,-8.0859,-8.0037,-7.8239,0.0,0.0,0.0,0.0,0.0,0.0,0.0,-8.0604,-8.1249,-8.2063,-8.2246,-8.2285,-8.229,-8.2308,-8.2296,-8.2293,-8.2293,-8.2302,-8.2308,-8.2241,-8.2266,-8.2293,-8.2293,-8.2295,-8.2254,-8.223,-8.2185,-8.2185,-8.2187,-8.2088,-8.1992,-8.2049,-8.203,-8.1981,-8.1952,-8.1328,-8.0507,-7.9531,-7.8162,-7.6828,-7.5818,-7.6281,-7.6483,-7.5443,-7.5966,-7.651,-7.6499,-7.6404,-7.6101,-7.5423,-7.5107,-7.4635,-7.39,-7.5081,-7.5379,-7.407,-7.2938,-7.283,-7.3964,-7.3968,-7.4386,-7.5506,-7.5579,-7.5587,-7.5654,-7.6632,-7.7082,-7.711,-7.7034,-7.6994,-7.6999,-7.6999,-7.6883,-7.6756,-7.7373,-7.8276,-7.9376,-8.0181,-8.0506,-8.0506,-8.0506,-8.0506,-8.0525,-8.0578,-8.0596,-8.0614,-7.9519,-7.9286,-7.9369,-8.065,-8.0712,-8.0763,-8.1165,-8.1484,-8.1893,-8.2431,-8.2034,-8.1687,-8.165,-8.1631,-8.1378,-8.0844,-8.1148,-8.1247,-8.0862,-8.1154,-8.1453,-8.1705,-8.164,-8.1698,-8.1812,-8.1912,-8.1532,-8.0684,-7.9929,-7.8671,-7.7083,0.0,0.0,0.0,0.0,-8.0032,-8.0859,-8.1362,-8.1861,-8.2244,-8.2308,-8.2305,-8.231,-8.2296,-8.2293,-8.2293,-8.2293,-8.2251,-8.2248,-8.2205,-8.2224,-8.2242,-8.2227,-8.2254,-8.2241,-8.2226,-8.2162,-8.2133,-8.2151,-8.2114,-8.207,-8.2109,-8.2066,-8.2056,-8.2081,-8.184,-8.1332,-8.0474,-7.8936,-7.75,-7.6642,-7.6345,-7.6248,-7.64,-7.6249,-7.6327,-7.6912,-7.6935,-7.6805,-7.651,-7.5954,-7.5425,-7.4992,-7.4919,-7.4634,-7.3915,-7.4309,-7.4381,-7.4014,-7.4437,-7.493,-7.5491,0.0,-7.6442,-7.6445,-7.6851,-7.7036,-7.7034,-7.7014,-7.6989,-7.6993,-7.6837,-7.6826,-7.6931,-7.7064,-7.7949,-7.934,-7.9716,-8.0155,-8.056,-8.056,-8.0596,-8.0688,-8.0614,-8.065,-8.072,-8.085,-8.0534,-8.0565,-8.1967,-8.146,-8.104,-8.16,-8.1868,-8.2145,-8.2702,-8.2276,-8.1852,-8.1748,-8.1555,-8.1155,-8.0484,-8.0873,-8.0979,-8.0575,-8.0887,-8.121,-8.153,-8.1449,-8.1472,-8.16,-8.167,-8.1394,-8.0777,-8.0023,-7.9104,-7.8143,0.0,0.0,0.0,-8.0634,-8.1061,-8.1378,-8.1942,-8.2215,-8.2263,-8.2296,-8.2293,-8.2293,-8.2293,-8.2296,-8.2299,-8.229,-8.2241,-8.2195,-8.2191,-8.2159,-8.2166,-8.2183,-8.2205,-8.2187,-8.2172,-8.214,-8.2104,-8.2104,-8.2104,-8.2104,-8.2104,-8.2104,-8.2104,-8.2104,-8.2104,-8.1792,-8.0662,-7.9291,-7.8035,-7.7144,-7.6443,-7.6205,-7.6873,0.0,-7.6281,-7.6979,-7.7065,-7.699,-7.6717,-7.6125,-7.5704,-7.5641,-7.5048,-7.4614,-7.4389,-7.5777,-7.5981,-7.4456,-7.4865,0.0,0.0,0.0,0.0,-7.6591,-7.6864,-7.7012,-7.7004,-7.7004,-7.6994,-7.7005,-7.6668,-7.6632,-7.6789,-7.6914,-7.759,-7.8647,-7.8999,-7.9591,-8.0267,-8.0267,-8.0511,-8.0792,-8.0702,-8.0737,-8.0843,-8.1798,-8.1879,-8.1995,-8.2754,-8.2216,-8.164,-8.1538,-8.2238,-8.2793,-8.2714,-8.2637,-8.2598,-8.2585,-8.1764,-8.1214,-8.1176,-8.1139,-8.1093,-8.1108,-8.1093,-8.1093,-8.1108,-8.1283,-8.14,-8.14,-8.1589,-8.1621,-8.1504,-8.0608,-7.9447,-7.8,0.0,-7.8447,-8.0868,-8.0894,-8.1386,-8.2187,-8.2187,-8.2187,-8.223,-8.2287,-8.2293,-8.2293,-8.2293,-8.2302,-8.2271,-8.2202,-8.2198,-8.2205,-8.2104,-8.2117,-8.2123,-8.2187,-8.2192,-8.2182,-8.2128,-8.211,-8.2104,-8.2104,-8.2104,-8.2104,-8.2104,-8.2104,-8.2104,-8.2104,-8.2104,-8.1597,-7.9883,-7.8854,-7.8018,-7.716,-7.699,-7.6968,-7.6912,0.0,0.0,-7.7026,-7.6982,-7.6666,-7.58,-7.5463,-7.5418,-7.5663,-7.6246,-7.6319,-7.5726,-7.7033,-7.7137,0.0,0.0,0.0,-7.5408,-7.5425,0.0,-7.5428,-7.6486,-7.7017,-7.7004,-7.7004,-7.7004,-7.6999,-7.6579,-7.6289,-7.6133,-7.6755,-7.7035,-7.7095,-7.7938,-7.8782,-7.951,-7.951,-8.0064,-8.0809,-8.0855,-8.0888,-8.0943,-8.2481,-8.2591,-8.2614,-8.2781,-8.2633,-8.225,-8.1593,-8.2187,-8.2907,-8.3379,-8.2859,-8.2646,-8.3218,-8.2068,-8.1244,-8.1139,-8.1108,-8.1093,-8.1093,-8.1093,-8.1093,-8.1093,-8.1161,-8.1122,-8.1016,-8.1069,-8.1036,-8.0959,0.0,0.0,0.0,-7.9228,-7.9975,-8.1452,-8.1312,-8.1539,-8.2007,-8.1993,-8.2017,-8.2078,-8.223,-8.2293,-8.2293,-8.2293,-8.229,-8.2241,-8.2191,-8.2171,-8.2148,-8.2123,-8.2101,-8.2083,-8.2134,-8.2134,-8.2134,-8.211,-8.2104,-8.2104,-8.2104,-8.2104,-8.2104,-8.2104,-8.2104,-8.2104,-8.2104,-8.2104,-8.1604,-7.9906,-7.9372,-7.8725,-7.7263,-7.6999,-7.6981,-7.6978,-7.7004,0.0,-7.6993,-7.705,-7.6979,-7.6708,-7.6562,-7.6555,-7.664,-7.6714,-7.6409,-7.5581,-7.5839,0.0,0.0,0.0,0.0,0.0,-7.6126,0.0,-7.648,-7.6824,-7.7017,-7.7004,-7.7004,-7.6852,-7.6579,-7.6311,-7.6056,-7.5848,-7.6133,-7.6546,-7.7035,-7.747,-7.8046,-7.8766,-7.8766,-7.8951,-7.9246,-7.9198,-7.9614,-8.0161,-8.2912,-8.2921,-8.2862,-8.283,-8.2509,-8.2122,-8.1581,-8.2418,-8.3263,-8.3722,-8.3248,-8.3041,-8.3571,-8.2186,-8.1199,-8.1108,-8.1093,-8.1093,-8.1093,-8.1029,-8.0997,-8.0997,-8.0893,-8.0809,-8.0688,-8.0688,0.0,-8.0611,-8.0262,-8.0188,-8.0406,-8.0523,-8.0948,-8.1571,-8.1508,-8.1571,-8.18,-8.1812,-8.1843,-8.1912,-8.1999,-8.2089,-8.2157,-8.2157,-8.2171,-8.2183,-8.2166,-8.2148,-8.2128,-8.2106,-8.2083,-8.2104,-8.2104,-8.2104,-8.2104,-8.2104,-8.2104,-8.2104,-8.2104,-8.2104,-8.2104,-8.2104,-8.2104,-8.211,-8.2083,-8.2083,-8.1705,-8.0368,-7.9832,-7.9183,-7.7797,-7.7259,-7.7028,-7.7028,-7.702,-7.7055,-7.7055,-7.7078,-7.6945,-7.6573,-7.6551,-7.6559,-7.6522,-7.6401,-7.6265,0.0,0.0,0.0,0.0,0.0,-7.6129,-7.5872,-7.6501,-7.6843,-7.6773,-7.6819,-7.6885,-7.6915,-7.6927,-7.6731,-7.6344,-7.6234,-7.6041,-7.5826,-7.591,-7.6217,-7.6632,-7.6739,-7.7293,-7.7977,-7.7977,-7.82,-7.8477,-7.8454,-7.8815,-7.9323,-8.299,-8.2909,-8.278,-8.2703,-8.2084,-8.1568,-8.1504,-8.2764,-8.3722,-8.3722,-8.3588,-8.3516,-8.3516,-8.2054,-8.1093,-8.1093,-8.1093,-8.1093,-8.1077,-8.0893,-8.0792,-8.0775,-8.0598,-8.0506,-8.0487,-8.0487,-8.0506,-8.0506,-8.0745,-8.0853,-8.0869,-8.1207,-8.1359,-8.1383,-8.1486,-8.154,-8.1561,-8.165,-8.1679,-8.1679,-8.1679,-8.177,-8.1881,-8.1873,-8.196,-8.2166,-8.2078,-8.2123,-8.2182,-8.2128,-8.2104,-8.2104,-8.2104,-8.2104,-8.2104,-8.2104,-8.2104,-8.2104,-8.2104,-8.2104,-8.211,-8.211,-8.211,-8.2116,-8.2101,-8.2106,-8.1883,-8.1056,-8.0259,-7.9416,-7.8558,-7.7674,-7.7098,-7.7098,-7.7082,-7.7071,-7.7071,-7.7071,-7.6744,-7.5809,0.0,0.0,-7.5699,-7.5698,-7.6054,0.0,0.0,0.0,0.0,0.0,-7.5771,-7.6576,-7.6599,-7.6552,-7.6411,-7.6534,-7.6646,-7.6769,-7.6767,-7.6605,-7.6281,-7.6308,-7.6199,-7.6015,-7.6015,-7.6015,-7.6015,-7.6015,-7.6476,-7.7207,-7.7207,-7.7669,-7.8323,-7.8323,-7.8361,-7.84,-8.205,-8.2392,-8.2587,-8.1929,-8.22,-8.2277,-8.162,-8.2301,-8.2873,-8.2873,-8.274,-8.2593,-8.2593,-8.1708,-8.1093,-8.1093,-8.1093,-8.1045,-8.086,-8.0809,-8.0723,-8.058,-8.0525,-8.0431,-8.0275,-8.0315,-8.0354,-8.043,-8.0523,-8.0614,-8.0614,-8.0711,-8.09,-8.1084,-8.109,-8.1175,-8.1387,-8.1449,-8.1484,-8.1457,-8.1469,-8.1504,-8.1572,-8.1416,-8.1552,-8.182,-8.1797,-8.1934,-8.2128,-8.211,-8.2104,-8.2104,-8.2104,-8.2104,-8.2104,-8.2104,-8.2104,-8.2104,-8.2104,-8.2104,-8.211,-8.2095,-8.2083,-8.2098,-8.2044,-8.2078,-8.1855,-8.0981,-8.0207,-7.9416,-7.8558,-7.7703,-7.7075,-7.7024,-7.7016,-7.7012,-7.7012,-7.7012,-7.6942,0.0,-7.6653,-7.6659,-7.6669,-7.6669,-7.6488,0.0,0.0,-7.5978,-7.562,-7.5547,-7.5842,-7.6646,-7.6676,-7.66,-7.6475,-7.6526,-7.6536,-7.6552,-7.6605,-7.6545,-7.6281,-7.6147,-7.6048,-7.6015,-7.6015,-7.6015,-7.6015,-7.6015,-7.613,-7.6322,-7.6322,-7.6438,-7.6592,-7.6592,-7.7015,-7.7592,-8.169,-8.1928,-8.2045,-8.1581,-8.189,-8.2187,-8.2071,-8.2364,-8.2704,-8.3061,-8.2633,-8.2285,-8.2285,-8.1593,-8.1093,-8.1093,-8.1029,-8.0932,-8.0792,-8.0634,-8.0487,-8.0373,-8.0275,-8.0195,-8.0134,-8.0137,-8.0217,-8.0392,-8.0468,-8.0525,-8.0542,-8.0632,-8.0805,-8.0939,-8.0968,-8.1085,-8.121,-8.1143,-8.1128,-8.1143,-8.107,-8.1129,-8.1208,-8.1118,-8.1294,-8.1522,-8.1522,-8.1678,-8.1929,-8.1929,-8.1987,-8.2089,-8.2089,-8.214,-8.2151,-8.2151,-8.214,-8.2095,-8.2145,-8.2128,-8.2104,-8.2052,-8.2033,-8.2051,-8.2022,-8.2012,-8.1812,-8.0935,-8.0107,-7.931,-7.8436,-7.7599,-7.6985,-7.697,-7.6668,-7.6522,-7.6951,-7.6678,-7.6556,-7.6931,-7.698,-7.699,-7.699,-7.6905,-7.6627,-7.6106,-7.6064,0.0,-7.5743,-7.5899,-7.6077,-7.6366,-7.6426,-7.635,-7.6237,-7.6355,-7.6394,-7.6426,-7.6457,-7.6361,-7.6173,-7.6048,-7.6015,-7.6015,-7.6015,-7.6015,-7.6015,-7.6015,-7.6015,-7.6015,-7.6015,-7.6015,-7.6015,-7.6015,-7.6284,-7.6707,-8.1902,-8.1836,-8.1865,-8.1865,-8.1865,-8.2071,-8.2778,-8.2708,-8.2791,-8.3425,-8.2679,-8.2131,-8.2131,-8.1516,-8.1077,-8.1061,-8.086,-8.0758,-8.0758,-8.0411,-8.0175,-8.0154,-8.0005,-7.9924,-7.9992,-8.0034,-8.0175,-8.043,-8.0468,-8.0523,-8.0614,-8.0758,-8.0843,-8.0888,-8.1061,-8.1093,-8.1061,-8.0877,-8.0809,-8.0775,-8.0632,-8.0698,-8.0837,-8.0885,-8.1041,-8.1247,-8.1247,-8.1418,-8.165,-8.166,-8.182,-8.2044,-8.205,-8.2123,-8.2192,-8.2196,-8.2138,-8.2117,-8.2177,-8.2145,-8.2078,-8.1999,-8.1983,-8.1991,-8.1975,-8.199,-8.1764,-8.0868,-7.998,-7.9123,-7.8256,-7.7403,-7.6825,-7.6715,-7.6169,-7.598,-7.6666,0.0,-7.6034,-7.6833,-7.6936,-7.6921,-7.6921,-7.6731,-7.6566,-7.6566,-7.6488,-7.6415,-7.6366,-7.6422,-7.632,-7.5999,-7.6081,-7.6066,-7.591,-7.616,-7.627,-7.626,-7.6308,-7.6186,-7.6015,-7.6015,-7.6015,-7.6015,-7.6015,-7.6015,-7.6015,-7.6015,-7.6015,-7.6015,-7.6015,-7.6015,-7.6015,-7.6015,-7.6015,-7.6015,-8.292,-8.3089,-8.3539,-8.3539,-8.3484,-8.348,-8.362,-8.2945,-8.2462,-8.2601,-8.1832,-8.1285,-8.1285,-8.117,-8.1029,-8.0843,-8.067,-8.0562,-8.0562,-8.0334,-8.0113,-7.9962,-7.9919,-7.9924,-7.9992,-8.0215,-8.0411,-8.0487,-8.0506,-8.0523,-8.0614,-8.0758,-8.0843,-8.0888,-8.1061,-8.1045,-8.0943,-8.091,-8.086,-8.0775,-8.0598,-8.0578,-8.0629,-8.0523,-8.0698,-8.0977,-8.0977,-8.114,-8.1383,-8.143,-8.1601,-8.1773,-8.189,-8.2071,-8.2196,-8.2214,-8.2153,-8.2106,-8.2128,-8.2052,-8.1998,-8.192,-8.1959,-8.1975,-8.1947,-8.1951,-8.1758,-8.0792,-7.9983,-7.9116,-7.8186,-7.7323,-7.6529,-7.5891,-7.594,-7.5944,-7.5673,0.0,-7.609,-7.6447,-7.6546,-7.6584,-7.6584,-7.6555,-7.6536,-7.6536,-7.6506,-7.64,-7.6173,-7.6197,-7.6134,-7.5902,-7.6081,-7.6108,-7.6,-7.6186,-7.6211,-7.6048,-7.6224,-7.6186,-7.6015,-7.6015,-7.6015,-7.6015,-7.6015,-7.6015,-7.6015,-7.6015,-7.6015,-7.6015,-7.6015,-7.6015,-7.6015,-7.6015,-7.6015,-7.6015,-8.3012,-8.3357,-8.3842,-8.3842,-8.3813,-8.3939,-8.4396,-8.3657,-8.3087,-8.3041,-8.2278,-8.142,-8.0537,-8.0425,-8.0352,-8.0143,-7.9982,-7.9979,-8.0334,-8.0154,-8.0005,-7.9898,-7.9924,-8.003,-8.0215,-8.0373,-8.0468,-8.0506,-8.0523,-8.0596,-8.0685,-8.0826,-8.086,-8.086,-8.0943,-8.091,-8.0737,-8.0685,-8.0688,-8.0634,-8.0487,-8.045,-8.0487,-8.045,-8.0542,-8.0698,-8.075,-8.0916,-8.1154,-8.1259,-8.1441,-8.1678,-8.1836,-8.1941,-8.2071,-8.2153,-8.2192,-8.2156,-8.2071,-8.2029,-8.1999,-8.1908,-8.1899,-8.1947,-8.1902,-8.1767,-8.1269,-7.9836,-7.9099,-7.8269,-7.6817,-7.6301,-7.5987,-7.5658,-7.5434,-7.5371,-7.5636,-7.5434,-7.5516,-7.6189,-7.6311,-7.6394,-7.6485,-7.6377,-7.6258,-7.6258,-7.6199,-7.612,-7.5981,-7.6052,-7.6062,-7.5955,-7.6024,-7.6052,-7.6015,-7.6079,-7.6079,-7.6015,-7.6079,-7.6079,-7.6015,-7.6015,-7.6015,-7.6015,-7.6015,-7.6015,-7.6015,-7.6015,-7.6015,-7.6015,-7.6015,-7.6015,-7.6015,-7.6015,-7.5917,-7.5856,-8.3431,-8.374,-8.4173,-8.4188,-8.4071,-8.4203,-8.4827,-8.4212,-8.3602,-8.3441,-8.2695,-8.1556,-8.0068,-7.9891,-7.973,-7.9335,-7.9189,-7.9288,-7.9681,-7.9562,-7.96,-7.9898,-7.9988,-8.0154,-8.0353,-8.0468,-8.0505,-8.0505,-8.043,-8.0428,-8.0558,-8.0409,-8.0372,-8.0391,-8.0555,-8.0537,-8.0448,-8.0505,-8.0525,-8.0506,-8.0431,-8.043,-8.045,-8.0487,-8.0506,-8.0525,-8.056,-8.0733,-8.0916,-8.1069,-8.1259,-8.1458,-8.1678,-8.1714,-8.1779,-8.1981,-8.2106,-8.2134,-8.2022,-8.1943,-8.1852,-8.1902,-8.1854,-8.1796,-8.1883,-8.1447,-8.0602,-7.8953,-7.8154,-7.7275,-7.5629,-7.5474,-7.5518,-7.5364,0.0,-7.4903,-7.5449,-7.5057,-7.5019,-7.5902,-7.6045,-7.6146,-7.6281,-7.6173,-7.6068,-7.6068,-7.5976,-7.5925,-7.5925,-7.5985,-7.6015,-7.6015,-7.6015,-7.6015,-7.6015,-7.6015,-7.6015,-7.6015,-7.6015,-7.6015,-7.6015,-7.6015,-7.6015,-7.6015,-7.6015,-7.6015,-7.6015,-7.6015,-7.6015,-7.6015,-7.6015,-7.6015,-7.6015,-7.6015,-7.5872,-7.5708,-8.5059,-8.5022,-8.5303,-8.536,-8.4965,-8.4658,-8.4711,-8.399,-8.3331,-8.2964,-8.2199,-8.1212,-8.0042,-7.9904,-7.9542,-7.8551,-7.8487,-7.842,-7.8255,-7.8228,-7.8714,-7.9854,-8.0072,-8.0195,-8.0215,-8.0468,-8.0596,-8.0596,-7.9985,-7.9723,-7.9789,-7.9091,-7.8876,-7.9076,-7.9583,-7.9827,-7.9979,-8.0411,-8.056,-8.0506,-8.0506,-8.0506,-8.0506,-8.0506,-8.0506,-8.0506,-8.0525,-8.056,-8.0629,-8.0771,-8.0869,-8.0979,-8.1115,-8.1143,-8.1213,-8.1553,-8.1826,-8.2007,-8.1991,-8.1718,-8.1523,-8.1805,-8.1663,-8.1523,-8.1815,-8.0921,-7.9752,-7.8785,-7.7662,-7.6535,-7.5659,-7.5485,-7.5293,-7.4697,0.0,0.0,-7.449,-7.4757,-7.5076,-7.5315,-7.5611,-7.5756,-7.5772,-7.5917,-7.5991,-7.5991,-7.6015,-7.6,-7.6,-7.6015,-7.6015,-7.6015,-7.6015,-7.6015,-7.6015,-7.6015,-7.6015,-7.6015,-7.6015,-7.6015,-7.6015,-7.6015,-7.6015,-7.6015,-7.6015,-7.6015,-7.6015,-7.6015,-7.6015,-7.6015,-7.6015,-7.6015,-7.6015,-7.6015,-7.5872,-7.5692,-8.4442,-8.4688,-8.5065,-8.4327,-8.4035,-8.39,-8.39,-8.3612,-8.3172,-8.2566,-8.2439,-8.1671,-7.9663,-7.927,-7.8935,-7.8433,-7.7953,-7.7772,-7.8063,-7.809,-7.8363,-7.8991,-7.9112,-7.9418,-7.9996,-7.9832,-7.9815,-8.0005,-7.9447,-7.9175,-7.902,-7.8765,-7.8666,-7.8729,-7.902,-7.9166,-7.9256,-7.9815,-8.004,-8.002,-8.0373,-8.0506,-8.0506,-8.0506,-8.0506,-8.0525,-8.0542,-8.0578,-8.0614,-8.065,-8.0698,-8.074,-8.0869,-8.09,-8.09,-8.1115,-8.1247,-8.1324,-8.1324,-8.1375,-8.1375,-8.1311,-8.1165,-8.1109,-8.1258,-8.023,-7.9045,-7.8207,-7.7016,-7.5888,-7.5033,-7.4941,-7.4924,-7.4674,0.0,-7.4884,-7.4694,-7.4828,-7.4997,-7.519,-7.532,-7.5445,-7.5527,-7.5692,-7.5826,-7.5826,-7.5917,-7.6015,-7.6015,-7.6015,-7.6015,-7.6015,-7.6015,-7.6015,-7.6015,-7.6015,-7.6015,-7.6015,-7.6015,-7.6015,-7.6015,-7.6015,-7.6015,-7.6015,-7.6015,-7.6015,-7.6015,-7.6015,-7.6015,-7.6,-7.5872,-7.5887,-7.5962,-7.5872,-7.5676,-7.5544,-8.4537,-8.4514,-8.4431,-8.3351,-8.3071,-8.286,-8.2597,-8.2559,-8.2321,-8.1658,-8.1968,-8.1391,-7.9091,-7.8768,-7.8422,-7.7797,-7.7249,-7.7071,-7.7526,-7.7585,-7.7875,-7.8363,-7.8521,-7.8866,-7.9494,-7.9265,-7.9204,-7.9403,-7.8827,-7.845,-7.824,-7.8106,-7.8024,-7.8071,-7.8357,-7.8536,-7.8611,-7.9194,-7.9449,-7.9494,-8.002,-8.0238,-8.0258,-8.043,-8.0506,-8.0525,-8.0542,-8.0578,-8.0578,-8.0578,-8.0523,-8.0467,-8.0566,-8.0605,-8.0608,-8.0745,-8.0805,-8.0869,-8.0756,-8.0885,-8.0983,-8.0885,-8.0773,-8.0646,-8.0459,-7.9389,-7.8237,-7.7436,-7.6262,-7.5199,-7.4676,-7.4649,-7.4712,-7.4771,-7.4833,-7.4895,-7.4895,-7.4895,-7.4935,-7.5094,-7.5152,-7.5265,-7.5318,-7.551,-7.5611,-7.5611,-7.5772,-7.5917,-7.6015,-7.6015,-7.6015,-7.6015,-7.6015,-7.6015,-7.6015,-7.6015,-7.6015,-7.6015,-7.6015,-7.6015,-7.6015,-7.6015,-7.6015,-7.6015,-7.6015,-7.5947,-7.5902,-7.5902,-7.5872,-7.581,-7.566,-7.5692,-7.5772,-7.566,-7.5493,-7.5354,-8.5836,-8.468,-8.3576,-8.2808,-8.2277,-8.1694,-8.084,-8.0691,-8.0576,-8.0251,-8.0614,-8.0186,-7.822,-7.84,-7.805,-7.6456,-7.6275,-7.6275,-7.6275,-7.6478,-7.7019,-7.8072,-7.8458,-7.869,-7.869,-7.8902,-7.901,-7.901,-7.7997,-7.7488,-7.7496,-7.6856,-7.6676,-7.6834,-7.7592,-7.796,-7.8118,-7.8665,-7.8891,-7.894,-7.9471,-7.9686,-7.9751,-8.0277,-8.0506,-8.0506,-8.0506,-8.0506,-8.0506,-8.0506,-8.0373,-8.0195,-8.0195,-8.0296,-8.0391,-8.0391,-8.0622,-8.0821,-8.0483,-8.0316,-8.0297,-8.0596,-8.0443,-8.0049,-7.9438,-7.8366,-7.7246,-7.6446,-7.5329,-7.4541,-7.467,-7.4691,-7.4733,-7.4874,-7.4895,-7.4895,-7.4895,-7.4895,-7.4895,-7.4895,-7.5074,-7.519,-7.519,-7.5318,-7.5386,-7.5386,-7.5595,-7.5772,-7.5962,-7.6015,-7.6015,-7.6015,-7.6015,-7.6015,-7.6015,-7.6015,-7.6015,-7.6015,-7.6015,-7.6015,-7.6015,-7.6015,-7.6015,-7.6015,-7.6015,-7.5887,-7.5692,-7.5692,-7.5595,-7.5386,-7.5386,-7.5386,-7.5386,-7.5386,-7.53,-7.5209,-8.5031,-8.4264,-8.3441,-8.2408,-8.1614,-8.0988,-8.0728,-8.0208,-7.9808,-7.9723,-8.0401,-8.025,-7.8542,-7.8568,-7.8267,-7.7217,-7.6637,-7.6378,-7.6478,-7.6581,-7.6773,-7.7138,-7.7443,-7.7789,-7.818,-7.7942,-7.7857,-7.7969,-7.7303,-7.6951,-7.6861,-7.6676,-7.6741,-7.7029,-7.7243,-7.7389,-7.757,-7.7829,-7.8136,-7.8352,-7.8653,-7.9143,-7.9708,-7.9895,-8.018,-8.056,-8.045,-8.045,-8.0468,-8.0217,-8.0096,-8.0072,-7.9988,-8.0009,-8.0072,-8.0072,-8.0116,-8.0197,-8.0055,-7.9992,-7.9992,-7.9996,-7.9457,-7.89,-7.8701,-7.748,-7.6356,-7.6189,-7.5363,-7.467,-7.4812,-7.4833,-7.4854,-7.4874,-7.4895,-7.4895,-7.4895,-7.4895,-7.4895,-7.4895,-7.4955,-7.4975,-7.4975,-7.5133,-7.5264,-7.5264,-7.5407,-7.5527,-7.5595,-7.5595,-7.5595,-7.5595,-7.5595,-7.5611,-7.5715,-7.5947,-7.6034,-7.6015,-7.5917,-7.5917,-7.6015,-7.5856,-7.5872,-7.5976,-7.5856,-7.574,-7.5692,-7.5561,-7.5438,-7.5368,-7.532,-7.5374,-7.5532,-7.5338,-7.532,-7.5394,-8.4614,-8.3674,-8.2715,-8.1591,-8.0716,-7.9982,-7.9591,-7.9348,-7.9208,-7.9208,-8.0068,-8.0089,-7.8478,-7.8535,-7.8231,-7.7108,-7.6565,-7.6378,-7.6478,-7.6478,-7.6512,-7.6574,-7.6705,-7.7051,-7.7607,-7.7261,-7.7138,-7.7212,-7.6793,-7.661,-7.6614,-7.6643,-7.6838,-7.7092,-7.7029,-7.7061,-7.7118,-7.7231,-7.7406,-7.7643,-7.8163,-7.8639,-7.9037,-7.9643,-7.9941,-8.0103,-8.0335,-8.0373,-8.0257,-8.0055,-7.9971,-7.9946,-7.9919,-7.9898,-7.9898,-7.9898,-7.9898,-7.9898,-7.9898,-7.9611,-7.928,-7.9214,-7.8775,-7.8224,-7.7537,-7.6614,-7.5847,-7.5607,-7.5153,-7.4812,-7.4874,-7.4895,-7.4895,-7.4895,-7.4895,-7.4895,-7.4895,-7.4895,-7.4895,-7.4895,-7.4895,-7.4895,-7.4895,-7.5015,-7.5113,-7.519,-7.5283,-7.5354,-7.5386,-7.5386,-7.5386,-7.5386,-7.5386,-7.5459,-7.551,-7.5756,-7.5848,-7.5826,-7.5779,-7.5779,-7.5826,-7.5731,-7.5731,-7.5826,-7.566,-7.5544,-7.5476,-7.5354,-7.5263,-7.5189,-7.5133,-7.5227,-7.5356,-7.5171,-7.519,-7.5283,-8.4726,-8.3143,-8.1673,-8.0748,-7.9941,-7.9039,-7.8153,-7.8447,-7.8805,-7.8805,-7.9723,-7.9792,-7.8154,-7.84,-7.805,-7.642,-7.6275,-7.6309,-7.6342,-7.6345,-7.6309,-7.6342,-7.6275,-7.6508,-7.7029,-7.6834,-7.6737,-7.6737,-7.6442,-7.6445,-7.6647,-7.6741,-7.6902,-7.7061,-7.6866,-7.6769,-7.6737,-7.6737,-7.6769,-7.6897,-7.7854,-7.8109,-7.8072,-7.9403,-7.9627,-7.932,-8.0081,-8.0197,-7.9929,-7.995,-7.9946,-7.9898,-7.9898,-7.9898,-7.9898,-7.9898,-7.9898,-7.9838,-7.9778,-7.9047,-7.8315,-7.8186,-7.8186,-7.7748,-7.6186,-7.5815,-7.5599,-7.4863,-7.4833,-7.4895,-7.4895,-7.4895,-7.4895,-7.4895,-7.4895,-7.4895,-7.4895,-7.4895,-7.4895,-7.4895,-7.4895,-7.4895,-7.4895,-7.4895,-7.4975,-7.5152,-7.5171,-7.5227,-7.5371,-7.5371,-7.5371,-7.5371,-7.5371,-7.5351,-7.5351,-7.5421,-7.551,-7.5599,-7.5583,-7.5583,-7.5599,-7.5583,-7.5583,-7.5599,-7.5459,-7.5318,-7.5228,-7.519,-7.5074,-7.4935,-7.4977,-7.4998,-7.5036,-7.5036,-7.5036,-7.5036,-8.5619,-8.3514,-8.1704,-8.1489,-8.0547,-7.9774,-7.956,-7.9516,-7.9465,-7.9465,-8.0023,-7.9792,-7.8154,-7.84,-7.805,-7.642,-7.6275,-7.6409,-7.6672,-7.6442,-7.6409,-7.6672,-7.6275,-7.6174,-7.6442,-7.6409,-7.6409,-7.6409,-7.6478,-7.661,-7.6737,-7.6676,-7.6708,-7.6866,-7.6801,-7.6639,-7.6409,-7.6409,-7.6541,-7.6801,-7.6856,-7.7316,-7.7932,-7.8389,-7.8602,-7.8791,-7.925,-7.9358,-7.9335,-7.9668,-7.9854,-7.9898,-7.9898,-7.9898,-7.9876,-7.975,-7.9728,-7.9569,-7.8708,-7.8337,-7.7884,-7.6693,-7.6375,-7.6262,-7.595,-7.549,-7.5081,-7.4891,-7.4874,-7.4895,-7.4895,-7.4895,-7.4895,-7.4895,-7.4895,-7.4895,-7.4895,-7.4895,-7.4895,-7.4895,-7.4895,-7.4895,-7.4895,-7.4895,-7.4915,-7.4955,-7.4955,-7.4975,-7.5035,-7.4997,-7.4997,-7.4997,-7.4997,-7.5036,-7.5076,-7.5056,-7.5227,-7.5599,-7.5493,-7.5493,-7.5599,-7.557,-7.5532,-7.5583,-7.5389,-7.5374,-7.543,-7.5094,-7.5035,-7.5133,-7.5036,-7.5114,-7.5246,-7.5171,-7.519,-7.5189,-8.5045,-8.2793,-8.1168,-8.1697,-8.0331,-7.9176,-7.9082,-7.9251,-7.9231,-7.8829,-7.9254,-7.9122,-7.7886,-7.7971,-7.7615,-7.6384,-7.6275,-7.6376,-7.6541,-7.6244,-7.6176,-7.6409,-7.6108,-7.6039,-7.6275,-7.6275,-7.6345,-7.6445,-7.6548,-7.6647,-7.6708,-7.6647,-7.6578,-7.6541,-7.6339,-7.6172,-7.6038,-7.6038,-7.6174,-7.6442,-7.657,-7.6893,-7.7322,-7.7866,-7.7988,-7.8016,-7.8576,-7.8891,-7.9137,-7.9623,-7.9854,-7.9898,-7.9898,-7.9832,-7.9683,-7.9683,-7.9305,-7.8728,-7.8243,-7.7481,-7.6606,-7.581,-7.5283,-7.5072,-7.5334,-7.5157,-7.4895,-7.4895,-7.4895,-7.4895,-7.4895,-7.4895,-7.4895,-7.4895,-7.4895,-7.4895,-7.4895,-7.4895,-7.4895,-7.4895,-7.4935,-7.4995,-7.5035,-7.4995,-7.4995,-7.5035,-7.4955,-7.4915,-7.4975,-7.4915,-7.4895,-7.4895,-7.4895,-7.4915,-7.4937,-7.4915,-7.5055,-7.53,-7.532,-7.532,-7.53,-7.532,-7.532,-7.532,-7.5189,-7.5209,-7.5246,-7.5113,-7.5113,-7.5209,-7.5171,-7.519,-7.5246,-7.5228,-7.5171,-7.5095,-8.4199,-8.1864,-8.0419,-8.1513,-7.9771,-7.8171,-7.8009,-7.8576,-7.8804,-7.815,-7.8415,-7.8419,-7.7693,-7.747,-7.707,-7.6348,-7.6275,-7.6275,-7.6275,-7.6007,-7.5903,-7.6038,-7.5903,-7.5937,-7.6242,-7.6244,-7.6311,-7.6548,-7.6581,-7.6654,-7.6696,-7.6518,-7.6417,-7.6391,-7.5901,-7.569,-7.5655,-7.5725,-7.59,-7.6072,-7.6574,-7.6676,-7.6643,-7.7452,-7.7452,-7.7102,-7.7905,-7.8484,-7.8916,-7.9532,-7.9728,-7.975,-7.9794,-7.966,-7.9462,-7.9395,-7.8657,-7.7839,-7.7587,-7.645,-7.5266,-7.514,-7.4577,-7.4168,-7.467,-7.4812,-7.4812,-7.4854,-7.4854,-7.4833,-7.4812,-7.4812,-7.4812,-7.4854,-7.4854,-7.4874,-7.4935,-7.4935,-7.4935,-7.4935,-7.4997,-7.5075,-7.519,-7.5095,-7.5075,-7.519,-7.5035,-7.4975,-7.5036,-7.4995,-7.4935,-7.4935,-7.4935,-7.4935,-7.4915,-7.4915,-7.4955,-7.4997,-7.5095,-7.5095,-7.4979,-7.5152,-7.5152,-7.5017,-7.5017,-7.5036,-7.5056,-7.5133,-7.5171,-7.5209,-7.5246,-7.5227,-7.519,-7.519,-7.5074,-7.4935,-8.4571,-8.1921,-7.986,-8.0715,-7.9205,-7.7844,-7.7844,-7.8635,-7.9215,-7.9107,-7.8886,-7.8523,-7.8063,-7.7221,-7.6624,-7.6345,-7.6275,-7.6275,-7.6275,-7.6007,-7.5937,-7.6242,-7.5936,-7.5903,-7.6038,-7.5901,-7.6005,-7.6345,-7.6512,-7.6775,-7.7119,-7.6224,-7.6191,-7.6803,-7.6049,-7.5655,-7.555,-7.5831,-7.6072,-7.6275,-7.6472,-7.6439,-7.6412,-7.6797,-7.6636,-7.6273,-7.7071,-7.7723,-7.8319,-7.8765,-7.9028,-7.915,-7.9439,-7.9523,-7.9303,-7.8253,-7.7867,-7.7355,-7.5694,-7.5058,-7.4723,-7.4175,-7.3938,-7.3923,-7.4282,-7.4372,-7.4438,-7.467,-7.4627,-7.4519,-7.4394,-7.4372,-7.4438,-7.4691,-7.4712,-7.4816,-7.5133,-7.5152,-7.5152,-7.5152,-7.5171,-7.519,-7.519,-7.519,-7.519,-7.5209,-7.5171,-7.5171,-7.519,-7.5171,-7.5152,-7.5152,-7.5152,-7.5075,-7.4997,-7.4997,-7.4957,-7.4915,-7.4977,-7.5036,-7.4979,-7.5152,-7.5152,-7.5017,-7.5017,-7.5075,-7.5171,-7.4995,-7.5035,-7.519,-7.5095,-7.5095,-7.519,-7.5075,-7.5075,-7.5152,-8.4276,-8.1901,-8.0077,-8.0206,-7.8626,-7.7299,-7.7299,-7.7488,-7.752,-7.7199,-7.6909,-7.6729,-7.6841,-7.6507,-7.621,-7.6039,-7.5969,-7.6038,-7.6106,-7.5901,-7.5972,-7.6311,-7.6176,-7.6074,-7.6003,-7.5936,-7.6117,-7.6479,-7.6323,-7.6287,-7.637,-7.5905,-7.58,-7.5944,-7.5693,-7.555,-7.5514,-7.5762,-7.5936,-7.6005,-7.6108,-7.6106,-7.614,-7.6309,-7.6275,-7.6275,-7.6951,-7.7316,-7.7518,-7.8053,-7.8416,-7.8588,-7.8241,-7.8266,-7.8179,-7.7255,-7.648,-7.5816,-7.4993,-7.442,-7.3948,-7.374,-7.369,-7.3815,-7.416,-7.4183,-7.4229,-7.4541,-7.4541,-7.4476,-7.4327,-7.4305,-7.435,-7.4438,-7.446,-7.4627,-7.4975,-7.4877,-7.4877,-7.5056,-7.519,-7.5264,-7.5376,-7.5283,-7.5283,-7.5376,-7.5265,-7.5228,-7.5246,-7.5228,-7.5209,-7.5209,-7.5209,-7.5171,-7.5095,-7.5036,-7.4997,-7.4937,-7.4937,-7.4917,-7.4975,-7.5036,-7.5017,-7.4975,-7.4997,-7.5036,-7.5075,-7.5074,-7.5113,-7.5209,-7.519,-7.5209,-7.5246,-7.5133,-7.5171,-7.519]},{"header":{"parameterUnit":"m.s-1","parameterCategory":1,"la1":30.6,"la2":28.766,"lo1":-90.7593,"lo2":-88.6598,"dy":0.0162,"dx":0.0183,"nx":116,"ny":114,"refTime":"2023-03-05T06:00:00:Z","depth":0,"parameterNumber":3,"parameterNumberName":"V-component_of_WINDS"},"data":[0.0,0.0,0.0,0.0,0.0,0.0,0.0,0.0,0.0,0.0,0.0,0.0,0.0,0.0,0.0,0.0,0.0,0.0,0.0,0.0,0.0,0.0,0.0,0.0,0.0,0.0,0.0,0.0,0.0,0.0,0.0,0.0,0.0,0.0,0.0,0.0,0.0,0.0,0.0,0.0,0.0,0.0,0.0,0.0,0.0,0.0,0.0,0.0,0.0,0.0,0.0,0.0,0.0,0.0,0.0,0.0,0.0,0.0,0.0,0.0,0.0,0.0,0.0,0.0,0.0,0.0,0.0,0.0,0.0,0.0,0.0,0.0,0.0,0.0,0.0,0.0,0.0,0.0,0.0,0.0,0.0,0.0,0.0,0.0,0.0,0.0,0.0,0.0,0.0,0.0,0.0,0.0,0.0,0.0,0.0,0.0,0.0,0.0,0.0,0.0,0.0,0.0,0.0,0.0,0.0,0.0,0.0,0.0,0.0,0.0,0.0,0.0,0.0,0.0,0.0,0.0,0.0,0.0,0.0,0.0,0.0,0.0,0.0,0.0,0.0,0.0,0.0,0.0,0.0,0.0,0.0,0.0,0.0,0.0,0.0,0.0,0.0,0.0,0.0,0.0,0.0,0.0,0.0,0.0,0.0,0.0,0.0,0.0,0.0,0.0,0.0,0.0,0.0,0.0,0.0,0.0,0.0,0.0,0.0,0.0,0.0,0.0,0.0,0.0,0.0,0.0,0.0,0.0,0.0,0.0,0.0,0.0,0.0,0.0,0.0,0.0,0.0,0.0,0.0,0.0,0.0,0.0,0.0,0.0,0.0,0.0,0.0,0.0,0.0,0.0,0.0,0.0,0.0,0.0,0.0,0.0,0.0,0.0,0.0,0.0,0.0,0.0,0.0,0.0,0.0,0.0,0.0,0.0,0.0,0.0,0.0,0.0,0.0,0.0,0.0,0.0,0.0,0.0,0.0,0.0,0.0,0.0,0.0,0.0,0.0,0.0,0.0,0.0,0.0,0.0,0.0,0.0,0.0,0.0,0.0,0.0,0.0,0.0,0.0,0.0,0.0,0.0,0.0,0.0,0.0,0.0,0.0,0.0,0.0,0.0,0.0,0.0,0.0,0.0,0.0,0.0,0.0,0.0,0.0,0.0,0.0,0.0,0.0,0.0,0.0,0.0,0.0,0.0,0.0,0.0,0.0,0.0,0.0,0.0,0.0,0.0,0.0,0.0,0.0,0.0,0.0,0.0,0.0,0.0,0.0,0.0,0.0,0.0,0.0,0.0,0.0,0.0,0.0,0.0,0.0,0.0,0.0,0.0,0.0,0.0,0.0,0.0,0.0,0.0,0.0,0.0,0.0,0.0,0.0,0.0,0.0,0.0,0.0,0.0,0.0,0.0,0.0,0.0,0.0,0.0,0.0,0.0,0.0,0.0,0.0,0.0,0.0,0.0,0.0,0.0,0.0,0.0,0.0,0.0,0.0,0.0,0.0,0.0,0.0,0.0,0.0,0.0,0.0,0.0,0.0,0.0,0.0,0.0,0.0,0.0,0.0,0.0,0.0,0.0,0.0,0.0,0.0,0.0,0.0,0.0,0.0,0.0,0.0,0.0,0.0,0.0,0.0,0.0,0.0,0.0,0.0,0.0,0.0,0.0,0.0,0.0,0.0,0.0,0.0,0.0,0.0,0.0,0.0,0.0,0.0,0.0,0.0,0.0,0.0,0.0,0.0,0.0,0.0,0.0,0.0,0.0,0.0,0.0,0.0,0.0,0.0,0.0,0.0,0.0,0.0,0.0,0.0,0.0,0.0,0.0,0.0,0.0,0.0,0.0,0.0,0.0,0.0,0.0,0.0,0.0,0.0,0.0,0.0,0.0,0.0,0.0,0.0,0.0,0.0,0.0,0.0,0.0,0.0,0.0,0.0,0.0,0.0,0.0,0.0,0.0,0.0,0.0,0.0,0.0,0.0,0.0,0.0,0.0,0.0,0.0,0.0,0.0,0.0,0.0,0.0,0.0,0.0,0.0,0.0,0.0,0.0,0.0,0.0,0.0,0.0,0.0,0.0,0.0,0.0,0.0,0.0,0.0,0.0,0.0,0.0,0.0,0.0,0.0,0.0,0.0,0.0,0.0,0.0,0.0,0.0,0.0,0.0,0.0,0.0,0.0,0.0,0.0,0.0,0.0,0.0,0.0,0.0,0.0,0.0,0.0,0.0,0.0,0.0,0.0,0.0,0.0,0.0,0.0,0.0,0.0,0.0,0.0,0.0,0.0,0.0,0.0,0.0,0.0,0.0,0.0,0.0,0.0,0.0,0.0,0.0,0.0,0.0,0.0,0.0,0.0,0.0,0.0,0.0,0.0,0.0,0.0,0.0,0.0,0.0,0.0,0.0,0.0,0.0,0.0,0.0,0.0,0.0,0.0,0.0,0.0,0.0,0.0,0.0,0.0,0.0,0.0,0.0,0.0,0.0,0.0,0.0,0.0,0.0,0.0,0.0,0.0,0.0,0.0,0.0,0.0,0.0,0.0,0.0,0.0,0.0,0.0,0.0,0.0,0.0,0.0,0.0,0.0,0.0,0.0,0.0,0.0,0.0,0.0,0.0,0.0,0.0,0.0,0.0,0.0,0.0,0.0,0.0,0.0,0.0,0.0,0.0,0.0,0.0,0.0,0.0,0.0,0.0,0.0,0.0,0.0,0.0,0.0,0.0,0.0,0.0,0.0,0.0,0.0,0.0,0.0,0.0,0.0,0.0,0.0,0.0,0.0,0.0,0.0,0.0,0.0,0.0,0.0,0.0,0.0,0.0,0.0,0.0,0.0,0.0,0.0,0.0,0.0,0.0,0.0,0.0,0.0,0.0,0.0,0.0,0.0,0.0,0.0,0.0,0.0,0.0,0.0,0.0,0.0,0.0,0.0,0.0,0.0,0.0,0.0,0.0,0.0,0.0,0.0,0.0,0.0,0.0,0.0,0.0,0.0,0.0,0.0,0.0,0.0,0.0,0.0,0.0,0.0,0.0,0.0,0.0,0.0,0.0,0.0,0.0,0.0,0.0,0.0,0.0,0.0,0.0,0.0,0.0,0.0,0.0,0.0,0.0,0.0,0.0,0.0,0.0,0.0,0.0,0.0,0.0,0.0,0.0,0.0,0.0,0.0,0.0,0.0,0.0,0.0,0.0,0.0,0.0,0.0,0.0,0.0,0.0,0.0,0.0,0.0,0.0,0.0,0.0,0.0,0.0,0.0,0.0,0.0,0.0,0.0,0.0,0.0,0.0,0.0,0.0,0.0,0.0,0.0,0.0,0.0,0.0,0.0,0.0,0.0,0.0,0.0,0.0,0.0,0.0,0.0,0.0,0.0,0.0,0.0,0.0,0.0,0.0,0.0,0.0,0.0,0.0,0.0,0.0,0.0,0.0,0.0,0.0,0.0,0.0,0.0,0.0,0.0,0.0,0.0,0.0,0.0,0.0,0.0,0.0,0.0,0.0,0.0,0.0,0.0,0.0,0.0,0.0,0.0,0.0,0.0,0.0,0.0,0.0,0.0,0.0,0.0,0.0,0.0,0.0,0.0,0.0,0.0,0.0,0.0,0.0,0.0,0.0,0.0,0.0,0.0,0.0,0.0,0.0,0.0,0.0,0.0,0.0,0.0,0.0,0.0,0.0,0.0,0.0,0.0,0.0,0.0,0.0,0.0,0.0,0.0,0.0,0.0,0.0,0.0,0.0,0.0,0.0,0.0,0.0,0.0,0.0,0.0,0.0,0.0,0.0,0.0,0.0,0.0,0.0,0.0,0.0,0.0,0.0,0.0,0.0,0.0,0.0,0.0,0.0,0.0,0.0,0.0,0.0,0.0,0.0,0.0,0.0,0.0,0.0,0.0,0.0,0.0,0.0,0.0,0.0,0.0,0.0,0.0,0.0,0.0,0.0,0.0,0.0,0.0,0.0,0.0,0.0,0.0,0.0,0.0,0.0,0.0,0.0,0.0,0.0,0.0,0.0,0.0,0.0,0.0,0.0,0.0,0.0,0.0,0.0,0.0,0.0,0.0,0.0,0.0,0.0,0.0,0.0,0.0,0.0,0.0,0.0,0.0,0.0,0.0,0.0,0.0,0.0,0.0,0.0,0.0,0.0,0.0,0.0,0.0,0.0,0.0,0.0,0.0,0.0,0.0,0.0,0.0,0.0,0.0,0.0,0.0,0.0,0.0,0.0,0.0,0.0,0.0,0.0,0.0,0.0,0.0,0.0,0.0,0.0,0.0,0.0,0.0,0.0,0.0,0.0,0.0,0.0,0.0,0.0,0.0,0.0,0.0,0.0,0.0,0.0,0.0,0.0,0.0,0.0,0.0,0.0,0.0,0.0,0.0,0.0,0.0,0.0,0.0,0.0,0.0,0.0,0.0,0.0,0.0,0.0,0.0,0.0,0.0,0.0,0.0,0.0,0.0,0.0,0.0,0.0,0.0,0.0,0.0,0.0,0.0,0.0,0.0,0.0,0.0,0.0,0.0,0.0,0.0,0.0,0.0,0.0,0.0,0.0,0.0,0.0,0.0,0.0,0.0,0.0,0.0,0.0,0.0,0.0,0.0,0.0,0.0,0.0,0.0,0.0,0.0,0.0,0.0,0.0,0.0,0.0,0.0,0.0,0.0,0.0,0.0,0.0,0.0,0.0,0.0,0.0,0.0,0.0,0.0,0.0,0.0,0.0,0.0,0.0,0.0,0.0,0.0,0.0,0.0,0.0,0.0,0.0,0.0,0.0,0.0,0.0,0.0,0.0,0.0,0.0,0.0,0.0,0.0,0.0,0.0,0.0,0.0,0.0,0.0,0.0,0.0,0.0,0.0,0.0,0.0,0.0,0.0,0.0,0.0,0.0,0.0,0.0,0.0,0.0,0.0,0.0,0.0,0.0,0.0,0.0,0.0,0.0,0.0,0.0,0.0,0.0,0.0,0.0,0.0,0.0,0.0,0.0,0.0,0.0,0.0,0.0,0.0,0.0,0.0,0.0,0.0,0.0,0.0,0.0,0.0,0.0,0.0,0.0,0.0,0.0,0.0,0.0,0.0,0.0,0.0,0.0,0.0,0.0,0.0,0.0,0.0,0.0,0.0,0.0,0.0,0.0,0.0,0.0,0.0,0.0,0.0,0.0,0.0,0.0,0.0,0.0,0.0,0.0,0.0,0.0,0.0,0.0,0.0,0.0,0.0,0.0,0.0,0.0,0.0,0.0,0.0,0.0,0.0,0.0,0.0,0.0,0.0,0.0,0.0,0.0,0.0,0.0,0.0,0.0,0.0,0.0,0.0,0.0,0.0,0.0,0.0,0.0,0.0,0.0,0.0,0.0,0.0,0.0,0.0,0.0,0.0,0.0,0.0,0.0,0.0,0.0,0.0,0.0,0.0,0.0,0.0,0.0,0.0,0.0,0.0,0.0,0.0,0.0,0.0,0.0,0.0,0.0,0.0,0.0,0.0,0.0,0.0,0.0,0.0,0.0,0.0,0.0,0.0,0.0,0.0,0.0,0.0,0.0,0.0,0.0,0.0,0.0,0.0,0.0,0.0,0.0,0.0,0.0,0.0,0.0,0.0,0.0,0.0,0.0,0.0,0.0,0.0,0.0,0.0,0.0,0.0,0.0,0.0,0.0,0.0,0.0,0.0,0.0,0.0,0.0,0.0,0.0,0.0,0.0,0.0,0.0,0.0,0.0,0.0,0.0,0.0,0.0,0.0,0.0,0.0,0.0,0.0,0.0,0.0,0.0,0.0,0.0,0.0,0.0,0.0,0.0,0.0,0.0,0.0,0.0,0.0,0.0,0.0,0.0,0.0,0.0,0.0,0.0,0.0,0.0,0.0,0.0,0.0,0.0,0.0,0.0,0.0,0.0,0.0,0.0,0.0,0.0,0.0,0.0,0.0,0.0,0.0,0.0,0.0,0.0,0.0,0.0,0.0,0.0,0.0,0.0,0.0,0.0,0.0,0.0,0.0,0.0,0.0,0.0,0.0,0.0,0.0,0.0,0.0,0.0,0.0,0.0,0.0,0.0,0.0,0.0,0.0,0.0,0.0,0.0,0.0,0.0,0.0,0.0,0.0,0.0,0.0,-1.5011,-1.7342,0.0,0.0,0.0,0.0,0.0,0.0,0.0,0.0,0.0,0.0,0.0,0.0,0.0,0.0,0.0,0.0,0.0,0.0,0.0,0.0,0.0,0.0,0.0,0.0,0.0,0.0,0.0,0.0,0.0,0.0,0.0,0.0,0.0,0.0,0.0,0.0,0.0,0.0,-4.7461,-4.8103,-4.8972,-4.902,-4.8911,-4.8825,0.0,0.0,0.0,0.0,0.0,0.0,0.0,0.0,0.0,0.0,0.0,0.0,0.0,0.0,0.0,0.0,0.0,0.0,0.0,0.0,0.0,0.0,0.0,0.0,0.0,0.0,0.0,0.0,0.0,0.0,0.0,0.0,0.0,0.0,0.0,0.0,0.0,0.0,0.0,0.0,0.0,0.0,0.0,0.0,0.0,0.0,0.0,0.0,0.0,0.0,0.0,0.0,0.0,0.0,0.0,0.0,0.0,0.0,0.0,0.0,0.0,0.0,0.0,0.0,0.0,0.0,0.0,0.0,0.0,0.0,-1.3361,-1.5217,0.0,0.0,0.0,0.0,0.0,0.0,0.0,0.0,0.0,0.0,0.0,0.0,0.0,0.0,0.0,0.0,0.0,0.0,0.0,0.0,0.0,0.0,0.0,0.0,-4.7816,-4.7703,-4.5667,-4.4555,0.0,0.0,0.0,0.0,0.0,0.0,0.0,-4.5685,-4.6035,-4.6576,-4.7596,-4.8755,-5.0054,-4.9933,-4.9611,-4.9143,-4.9147,0.0,0.0,0.0,0.0,0.0,0.0,0.0,0.0,0.0,0.0,0.0,0.0,0.0,0.0,0.0,0.0,0.0,0.0,0.0,0.0,0.0,0.0,0.0,0.0,0.0,0.0,0.0,0.0,0.0,0.0,0.0,0.0,0.0,0.0,0.0,0.0,0.0,0.0,0.0,0.0,0.0,0.0,0.0,0.0,0.0,0.0,0.0,0.0,0.0,0.0,0.0,0.0,0.0,0.0,0.0,0.0,0.0,0.0,0.0,0.0,0.0,0.0,0.0,-1.3582,-1.2154,-1.0686,-0.9721,-0.9066,-0.8817,-1.2283,-1.3111,-1.2449,-1.6681,0.0,0.0,0.0,0.0,0.0,0.0,0.0,0.0,0.0,0.0,0.0,0.0,0.0,0.0,0.0,0.0,0.0,0.0,0.0,0.0,0.0,-4.6892,-4.6378,-4.5231,-4.4094,-4.3734,0.0,0.0,0.0,0.0,0.0,0.0,-4.5957,-4.5883,-4.5671,-4.5525,-4.7132,-4.8866,-5.0681,-5.0038,-4.9677,-4.96,-4.9336,-4.8999,-4.8624,0.0,0.0,0.0,0.0,0.0,0.0,0.0,0.0,0.0,0.0,0.0,0.0,0.0,0.0,0.0,0.0,0.0,0.0,0.0,0.0,0.0,0.0,0.0,0.0,0.0,0.0,0.0,0.0,0.0,0.0,0.0,0.0,0.0,0.0,0.0,0.0,0.0,0.0,0.0,0.0,0.0,-1.9326,-1.7167,0.0,0.0,0.0,0.0,0.0,0.0,0.0,0.0,0.0,0.0,0.0,0.0,0.0,-1.7663,-1.7675,-1.6252,-1.5559,-1.5647,-1.2556,-1.1014,-1.0895,-0.9294,-0.8594,-0.8598,-0.9127,0.0,-1.208,-1.3368,0.0,0.0,0.0,0.0,0.0,0.0,0.0,0.0,0.0,0.0,0.0,0.0,0.0,0.0,0.0,0.0,0.0,0.0,0.0,0.0,0.0,-4.7626,-4.7097,-4.7234,-4.5736,-4.4777,-4.4741,-4.4717,0.0,0.0,0.0,-4.5098,-4.565,-4.5872,-4.6378,-4.7284,-4.8756,-5.01,-5.123,-5.0919,-5.0544,-5.0166,-4.9876,-4.895,-4.7703,-4.7394,0.0,0.0,0.0,0.0,0.0,0.0,0.0,0.0,0.0,0.0,0.0,0.0,0.0,0.0,0.0,0.0,0.0,0.0,0.0,0.0,0.0,0.0,0.0,0.0,0.0,0.0,0.0,0.0,0.0,0.0,0.0,0.0,0.0,0.0,0.0,0.0,0.0,0.0,0.0,-2.0646,-1.7727,-1.7035,-1.6493,-1.6113,0.0,0.0,0.0,0.0,0.0,0.0,0.0,0.0,0.0,-1.4601,-1.4614,-1.4659,-1.4817,-1.421,-1.4124,-1.457,-1.2042,-1.0923,-1.1014,-0.9279,-0.8473,-0.8481,-0.8673,-0.9359,-1.04,-1.1983,-1.4185,-1.6459,0.0,0.0,0.0,0.0,-1.7624,-1.7926,0.0,0.0,0.0,0.0,0.0,0.0,0.0,0.0,0.0,0.0,0.0,0.0,-4.9343,-4.8523,-4.8096,-4.8649,-4.7125,-4.5909,-4.5357,-4.5269,0.0,0.0,-4.5196,-4.5564,-4.5686,-4.6106,-4.7283,-4.9204,-4.9955,-5.0737,-5.1596,-5.1408,-5.1094,-5.0614,-5.0128,-4.9007,-4.7459,-4.732,-4.6484,-4.5291,0.0,0.0,0.0,0.0,0.0,0.0,0.0,0.0,0.0,0.0,0.0,0.0,0.0,0.0,0.0,0.0,0.0,0.0,0.0,0.0,0.0,0.0,0.0,0.0,0.0,0.0,0.0,0.0,0.0,0.0,0.0,0.0,0.0,0.0,0.0,0.0,0.0,-1.9304,-1.686,-1.6877,-1.6625,-1.6235,0.0,0.0,0.0,0.0,0.0,0.0,-1.2618,-1.37,-1.3623,-1.204,-1.2119,-1.2307,-1.2675,-1.2853,-1.3114,-1.3541,-1.2025,-1.1382,-1.153,-0.9754,-0.9019,-0.8943,-0.8899,-0.8918,-0.9123,-1.0869,-1.2214,-1.3272,-1.4368,-1.5789,-1.7018,-1.5796,-1.5629,-1.5825,0.0,0.0,0.0,0.0,0.0,0.0,0.0,0.0,0.0,0.0,0.0,-4.9101,-4.818,-4.8825,-4.8672,-4.7145,-4.6932,-4.6577,-4.5886,-4.5886,-4.5773,-4.5556,-4.5844,-4.6217,-4.6649,-4.6835,-4.8008,-5.0204,-4.9341,-4.981,-5.1596,-5.0968,-5.0652,-5.055,-4.9725,-4.9191,-4.8883,-4.7727,-4.695,-4.6446,-4.538,0.0,0.0,0.0,0.0,0.0,0.0,0.0,0.0,0.0,0.0,0.0,0.0,0.0,0.0,0.0,0.0,0.0,0.0,0.0,0.0,0.0,0.0,0.0,0.0,0.0,0.0,0.0,0.0,0.0,0.0,0.0,0.0,0.0,0.0,0.0,0.0,0.0,0.0,-1.6669,-1.6568,0.0,0.0,0.0,0.0,-1.4401,-1.2935,-1.2072,-1.2246,-1.1509,-1.1255,-1.1588,-1.1911,-1.2148,-1.2533,-1.2798,-1.311,-1.3558,-1.2699,-1.2514,-1.2851,-1.1128,-1.0316,-1.0229,-0.9419,-0.9048,-0.913,-0.9225,-1.0845,-1.2957,-1.085,-1.2702,-1.6137,-1.1726,-1.1217,-1.2413,0.0,0.0,0.0,0.0,0.0,0.0,0.0,0.0,-4.9821,-4.8898,-4.9049,-4.9322,-4.9393,-4.9157,-4.8787,-4.8313,-4.7653,-4.7012,-4.6439,-4.6439,-4.6054,-4.529,-4.6586,-4.7683,-4.8596,-4.9172,-4.9805,-5.0495,-5.0595,-5.0924,-5.1596,-5.1346,-5.1031,-5.055,-4.9791,-4.9181,-4.8682,-4.7935,-4.7277,-4.6657,-4.5759,-4.365,0.0,0.0,0.0,0.0,0.0,0.0,0.0,0.0,0.0,0.0,0.0,0.0,0.0,0.0,0.0,0.0,0.0,0.0,0.0,0.0,0.0,0.0,0.0,0.0,0.0,0.0,0.0,0.0,0.0,0.0,0.0,0.0,0.0,0.0,0.0,0.0,0.0,-1.6438,-1.6511,0.0,-1.51,-1.4273,-1.3514,-1.3041,-1.1873,-1.1486,-1.1997,-1.1681,-1.1635,-1.2063,-1.2238,-1.2348,-1.2386,-1.2823,-1.3229,-1.3591,-1.3013,-1.292,-1.3132,-1.1938,-1.1089,-1.0449,-1.0179,-0.9681,-0.9142,-0.9142,-0.9685,-1.0493,-0.9655,-1.0287,-1.1553,-0.9924,-0.9749,-1.031,0.0,0.0,0.0,0.0,0.0,0.0,0.0,0.0,-5.0173,-4.9219,-4.9719,-5.0314,-5.069,-5.0395,-5.0001,-4.9554,-4.8698,-4.7856,-4.6992,-4.6824,-4.6319,-4.5556,-4.7171,-4.8745,-5.0017,-5.0721,-5.1044,-5.0905,-5.1408,-5.1596,-5.1596,-5.1596,-5.1346,-5.0905,-5.041,-4.9776,-4.9109,-4.8551,-4.7792,-4.6723,-4.601,-4.3705,-4.0601,0.0,0.0,0.0,0.0,0.0,0.0,0.0,0.0,0.0,0.0,0.0,0.0,0.0,0.0,0.0,0.0,0.0,0.0,0.0,0.0,0.0,0.0,0.0,0.0,0.0,0.0,0.0,0.0,0.0,0.0,0.0,0.0,0.0,0.0,-1.8406,-1.6812,-1.6341,-1.6414,-1.5989,-1.4676,-1.3823,-1.3054,-1.2319,-1.1453,-1.1105,-1.1696,-1.1634,-1.1744,-1.1962,-1.2044,-1.2068,-1.2027,-1.237,-1.2765,-1.3127,-1.2944,-1.3078,-1.353,-1.2365,-1.1486,-1.1023,-1.0437,-0.9711,-0.9142,-0.9142,-0.9142,-0.9142,-0.9142,-0.9142,-0.9142,-0.9142,-0.9142,-0.9233,0.0,0.0,0.0,0.0,0.0,0.0,0.0,-4.9499,-4.9855,-4.9213,-5.0981,-5.2104,-5.1743,-5.2398,-5.2262,-5.0638,-4.9874,-4.8843,-4.7539,-4.6992,-4.6657,-4.647,-4.7771,-4.923,-5.0812,-5.1335,-5.1596,-5.1596,-5.1596,-5.1596,-5.1596,-5.1596,-5.1596,-5.1622,-5.1408,-5.102,-5.0393,-4.9603,-4.8352,-4.6748,-4.6019,-4.3683,-4.048,0.0,0.0,0.0,0.0,0.0,0.0,0.0,0.0,0.0,0.0,0.0,0.0,0.0,0.0,0.0,0.0,0.0,0.0,0.0,0.0,0.0,0.0,0.0,0.0,0.0,0.0,0.0,0.0,0.0,0.0,0.0,0.0,0.0,-2.0827,-1.8708,-1.7011,-1.6408,-1.6308,-1.5818,-1.4735,-1.3894,-1.31,-1.2448,-1.1498,-1.1031,-1.1264,-1.1275,-1.1226,-1.1118,-1.1335,-1.14,-1.1286,-1.152,-1.182,-1.2283,-1.261,-1.3196,-1.4143,-1.2295,-1.1689,-1.2072,-0.9987,-0.9134,-0.9134,-0.9134,-0.9134,-0.9134,-0.9142,-0.9142,-0.9142,-0.9142,-0.9142,-0.9126,0.0,0.0,0.0,0.0,0.0,0.0,0.0,-5.0516,-5.0617,-5.0366,-5.1282,-5.1885,-5.1628,-5.1377,-5.0827,-4.9874,-4.8779,-4.7832,-4.6986,-4.6892,-4.7209,-4.8092,-4.8976,-5.0043,-5.1361,-5.1518,-5.1596,-5.1596,-5.1596,-5.1596,-5.1596,-5.1596,-5.1596,-5.1596,-5.106,-5.0691,-5.0435,-4.9271,-4.8379,-4.7756,-4.6991,-4.5006,-4.2267,0.0,0.0,0.0,0.0,0.0,0.0,0.0,0.0,0.0,0.0,0.0,0.0,0.0,0.0,0.0,0.0,0.0,0.0,0.0,0.0,0.0,0.0,0.0,0.0,0.0,0.0,0.0,0.0,0.0,0.0,0.0,-2.1095,-2.0139,-1.9151,-1.8223,-1.7349,-1.6408,-1.5824,-1.5071,-1.3986,-1.3141,-1.2337,-1.1645,-1.129,-1.1156,-1.1389,-1.1319,-1.1297,-1.1357,-1.1422,-1.1482,-1.1536,-1.1871,-1.2267,-1.2627,-1.2972,-1.3339,-1.3808,-1.2435,-1.1676,-1.147,-1.0087,-0.9317,-0.8946,-0.8946,-0.8946,-0.8958,-0.9093,-0.9142,-0.9142,-0.9142,-0.9101,-0.9032,0.0,0.0,0.0,0.0,0.0,0.0,0.0,-5.0962,-5.1264,-5.1228,-5.2007,-5.2529,-5.2455,-5.1544,-5.0764,-5.041,-4.8486,-4.7223,-4.7159,-4.7032,-4.7491,-4.8761,-4.9455,-5.04,-5.157,-5.1596,-5.1596,-5.1596,-5.1596,-5.1596,-5.1596,-5.1471,-5.1408,-5.1346,-5.0842,-5.0461,-5.0168,-4.9307,-4.883,-4.853,-4.7729,-4.6052,-4.3683,-4.2236,-4.0362,-3.8326,-3.649,-3.5264,-3.4105,-3.1763,0.0,0.0,0.0,0.0,0.0,0.0,0.0,0.0,0.0,0.0,0.0,0.0,0.0,0.0,0.0,0.0,0.0,0.0,0.0,0.0,0.0,0.0,0.0,0.0,-2.1035,-2.0333,-1.8866,-1.8358,-1.7673,-1.6628,-1.5701,-1.482,-1.38,-1.293,-1.2089,-1.1352,-1.121,-1.1259,-1.1533,-1.1389,-1.1406,-1.1525,-1.1531,-1.1563,-1.1634,-1.2005,-1.2197,-1.2287,-1.2633,-1.298,-1.3216,-1.2085,-1.1299,-1.0893,-0.9815,-0.8961,-0.8316,-0.8504,-0.8596,-0.8604,0.0,0.0,0.0,0.0,-0.9052,-0.8987,0.0,0.0,0.0,0.0,0.0,0.0,0.0,-5.1128,-5.1822,-5.1902,-5.2959,-5.3661,-5.3697,-5.2412,-5.1554,-5.1492,-4.8643,-4.6973,-4.7454,-4.7326,-4.7692,-4.8736,-4.9569,-5.0514,-5.1596,-5.1606,-5.1554,-5.1554,-5.1502,-5.1502,-5.1492,-5.1205,-5.1042,-5.1057,-5.0715,-5.0295,-4.9719,-4.9654,-4.9461,-4.9137,-4.842,-4.7001,-4.5091,-4.2864,-4.1135,-3.9707,-3.7307,-3.5467,-3.4088,-3.3539,0.0,0.0,0.0,0.0,0.0,0.0,0.0,0.0,0.0,0.0,0.0,0.0,0.0,0.0,0.0,0.0,0.0,0.0,0.0,0.0,0.0,0.0,0.0,0.0,-2.1316,-2.1169,-1.9485,-1.8641,-1.7889,-1.6914,-1.5832,-1.4885,-1.395,-1.3019,-1.2131,-1.1374,-1.1291,-1.134,-1.1449,-1.1543,0.0,0.0,0.0,-1.1623,-1.1634,-1.1846,-1.1906,-1.1819,-1.1906,-1.214,-1.2523,-1.1468,-1.0774,-1.0412,-0.9303,-0.8289,-0.7551,-0.7922,-0.8109,-0.8201,-0.868,-0.8922,-0.8991,-0.8979,-0.8979,-0.895,0.0,0.0,0.0,0.0,0.0,0.0,0.0,-5.1677,-5.196,-5.2476,-5.3215,-5.3833,-5.4268,-5.2903,-5.1645,-5.0926,-4.8648,-4.7006,-4.6461,-4.7656,-4.8534,-4.8761,-5.0367,-5.1367,-5.1596,-5.1399,-5.1312,-5.1312,-5.1054,-5.0959,-5.0855,-5.0793,-5.0717,-5.0652,-5.0588,-5.0525,-5.0334,-4.9847,-4.9719,-4.9847,-4.9137,-4.8445,-4.7412,-4.4049,-4.2601,-4.1946,-3.9175,-3.772,-3.6959,-3.5592,-3.3163,-3.0356,-2.8482,-2.6184,0.0,0.0,0.0,0.0,0.0,0.0,0.0,0.0,0.0,0.0,0.0,0.0,0.0,0.0,0.0,0.0,0.0,0.0,0.0,-2.096,-2.0607,-2.0216,-1.9115,-1.8685,-1.7992,-1.6751,-1.5863,-1.4974,-1.4021,-1.3261,-1.2455,-1.1505,-1.1422,-1.1427,-1.1543,-1.1543,-1.1465,-1.1487,-1.1487,-1.1536,-1.1634,-1.1683,-1.1743,-1.1819,-1.1743,0.0,-1.1938,-1.072,-1.041,-1.0665,-0.8865,-0.8203,-0.8289,-0.7667,-0.7577,-0.8038,-0.8632,-0.8881,-0.8889,-0.8815,-0.8787,-0.8771,0.0,0.0,0.0,0.0,0.0,0.0,0.0,-5.1787,-5.2014,-5.2602,-5.3023,-5.3189,-5.3124,-5.181,-5.0612,-4.9897,-4.837,-4.7183,-4.656,-4.7805,-4.8823,-4.9444,-5.0523,-5.1283,-5.1596,-5.1459,-5.1356,-5.1189,-5.1081,-5.0948,-5.0741,-5.0559,-5.048,-5.0404,-5.0241,-5.0142,-5.0078,-4.9799,-4.9863,-5.0115,-4.9609,-4.9393,-4.9074,-4.6237,-4.4505,-4.3284,-4.1059,-3.94,-3.8213,-3.7409,-3.5507,-3.3126,-3.0846,-2.8409,-2.6052,0.0,0.0,0.0,0.0,0.0,0.0,0.0,0.0,0.0,0.0,0.0,0.0,0.0,0.0,-2.6177,-2.4318,0.0,-2.2591,-2.1204,-2.0888,-2.0355,-1.9232,-1.8714,-1.8095,-1.6955,-1.6048,-1.514,-1.4264,-1.3362,-1.252,-1.1543,-1.1543,-1.1543,-1.1543,-1.1514,-1.1547,-1.1547,-1.1607,-1.1634,-1.1634,-1.1699,-1.1726,-1.1726,-1.1667,-1.1667,-1.1721,-1.0999,-1.0595,-1.0376,-0.8888,-0.8153,-0.7889,-0.7352,-0.7442,-0.7985,-0.8521,-0.8766,-0.8799,-0.875,-0.8734,-0.8722,0.0,0.0,0.0,0.0,0.0,0.0,0.0,0.0,-5.2012,-5.263,-5.2463,-5.2237,-5.184,-5.0453,-4.9221,-4.8534,-4.7671,-4.7118,-4.6992,-4.799,-4.9049,-5.0168,-5.0614,-5.0853,-5.1038,-5.1351,-5.1223,-5.0603,-5.0907,-5.091,-5.0611,-5.0373,-5.0123,-4.9961,-4.9754,-4.9584,-4.9478,-4.9761,-4.997,-5.0178,-5.0054,-5.01,-5.0172,-4.8579,-4.6476,-4.4161,-4.2628,-4.073,-3.8851,-3.8817,-3.7314,-3.5163,-3.3201,-3.0573,-2.777,-2.514,-2.3769,0.0,0.0,0.0,0.0,0.0,0.0,0.0,0.0,-2.664,-2.7594,-2.6557,-2.6293,-2.5625,-2.3748,-2.3117,-2.2439,-2.1358,-2.0955,-2.0347,-1.9204,-1.8602,-1.7989,-1.72,-1.6409,-1.5536,-1.4415,-1.3774,-1.2887,-1.1576,-1.1643,-1.1721,-1.1543,-1.1547,-1.1601,-1.1601,-1.1699,-1.1699,-1.1601,-1.1699,-1.1699,-1.1601,-1.1601,-1.1601,-1.1596,-1.1498,-1.1099,-1.0209,-0.9134,-0.8063,-0.7173,-0.6994,-0.7263,-0.7799,-0.816,-0.8469,-0.8709,-0.8709,-0.8709,-0.8701,0.0,0.0,0.0,0.0,0.0,0.0,0.0,0.0,0.0,-5.263,-5.1762,-5.1298,-5.1723,-4.9879,-4.7991,-4.6526,-4.6192,-4.6421,-4.7282,-4.8657,-4.9772,-5.0525,-5.1157,-5.0773,-4.9166,-5.0503,-5.0289,-4.836,-4.9784,-5.0313,-4.9999,-4.9972,-4.958,-4.9025,-4.9475,-4.9418,-4.895,-5.0079,-5.0393,-5.024,-5.0795,-5.0907,-5.0724,-5.0511,-4.8181,-4.4846,-4.3379,-4.146,-3.959,-3.9558,-3.7731,-3.5402,-3.4743,-3.1727,-2.8202,-2.7529,-2.5177,-2.2788,-2.2373,-2.2327,-2.2612,-2.3445,-2.4068,-2.4344,0.0,-2.4675,-2.4759,-2.245,-2.2589,-2.2772,-2.1251,-2.0568,-2.0404,-2.0607,-1.965,-1.8777,-1.8602,-1.7814,-1.72,-1.7112,-1.7024,-1.6287,-1.4654,-1.4988,-1.4346,-1.1787,-1.2318,-1.2343,-1.1543,-1.1465,-1.1476,-1.1476,-1.1487,-1.1487,-1.1476,-1.1487,-1.1487,-1.1476,-1.1476,-1.1476,-1.1476,-1.146,-1.1455,-1.1188,-0.9402,-0.8063,-0.7173,-0.6279,-0.6458,-0.7263,-0.7352,-0.7896,-0.8624,-0.8624,-0.8624,-0.8619,0.0,0.0,0.0,0.0,0.0,0.0,0.0,0.0,0.0,0.0,-5.2753,-5.1988,-5.0805,-4.8265,-4.6584,-4.6506,-4.6687,-4.7244,-4.8218,-4.928,-5.0168,-5.0867,-5.0968,-5.0839,-5.0455,-5.1106,-5.0926,-4.9897,-5.0425,-5.0474,-5.0211,-5.0009,-4.9739,-4.9438,-4.9796,-4.9867,-4.9643,-5.0187,-5.0328,-5.0298,-5.0541,-5.0618,-5.0607,-5.1096,-4.9364,-4.6445,-4.4552,-4.2388,0.0,-3.9313,-3.8021,-3.664,-3.5296,-3.2718,-2.9791,-2.7748,-2.5535,-2.3602,-2.3104,-2.3116,-2.3357,-2.3345,-2.388,-2.4202,-2.3867,-2.4998,-2.5588,-2.3641,-2.3761,-2.3761,-2.2395,-2.1118,-2.0172,-1.9824,-1.9292,-1.8593,-1.7814,-1.7375,-1.7112,-1.7112,-1.7112,-1.6608,-1.5358,-1.5477,-1.4762,-1.2508,-1.2734,-1.252,-1.1543,-1.152,-1.1525,-1.146,-1.1525,-1.1525,-1.1543,-1.1543,-1.1543,-1.1543,-1.1543,-1.1543,-1.1543,-1.1543,-1.1188,-1.0565,-0.9763,-0.8603,-0.7173,-0.7084,-0.7084,-0.7263,-0.7531,-0.7978,-0.8607,-0.8607,-0.8607,-0.8607,0.0,0.0,0.0,0.0,0.0,0.0,0.0,0.0,0.0,0.0,-5.2783,-5.1484,-4.9049,-4.6764,-4.5793,-4.6695,-4.7154,-4.7844,-4.8958,-4.9657,-5.0397,-5.122,-5.0968,-5.0891,-5.0835,-5.133,-5.1206,-5.0532,-5.0777,-5.0744,-5.0393,-5.0132,-4.9897,-4.9681,-5.0043,-5.0178,-5.0116,-5.0359,-5.0383,-5.0288,-5.0349,-5.0307,-5.0297,-5.0871,-4.9879,-4.7988,-4.6339,-4.3752,-4.0993,-3.9654,-3.8517,-3.7468,-3.5886,-3.3366,-3.0601,-2.8298,-2.5972,-2.4086,-2.4193,-2.4074,-2.3877,-2.3676,-2.4336,-2.498,-2.4685,-2.6178,-2.7161,-2.5422,-2.5531,-2.5349,-2.3417,-2.206,-2.0684,-1.9204,-1.9039,-1.8611,-1.7353,-1.7145,-1.7128,-1.7177,-1.7145,-1.6849,-1.6145,-1.6057,-1.5278,-1.3464,-1.3515,-1.3141,-1.1988,-1.1894,-1.1816,-1.1549,-1.1542,-1.1542,-1.1455,-1.1543,-1.1543,-1.1543,-1.1543,-1.1543,-1.1543,-1.1543,-1.1099,-1.0387,-1.0119,-0.9228,-0.7978,-0.7799,-0.762,-0.762,-0.771,-0.8067,-0.8607,-0.8607,-0.8607,-0.8607,0.0,0.0,0.0,0.0,0.0,0.0,0.0,0.0,0.0,0.0,0.0,0.0,0.0,-4.5817,-4.6059,-4.6755,-4.6985,-4.7749,-4.9299,-4.9585,-5.0275,-5.1507,-5.1596,-5.0747,-4.8901,-5.0658,-5.0587,-4.8477,-5.0324,-5.0872,-5.0326,-5.0266,-4.9992,-4.9463,-4.9981,-5.0054,-4.9856,-5.0736,-5.0758,-5.0214,-5.0584,-5.0307,-4.9819,-4.9594,-4.9487,-4.9341,-4.9062,-4.5557,-4.1111,-4.1348,-3.9592,-3.7241,-3.6789,-3.3511,-2.9879,-3.0056,-2.6895,-2.3757,-2.5872,-2.5075,-2.3953,-2.4831,-2.617,-2.7049,-2.6345,-2.7883,-2.8755,-2.6453,-2.6719,-2.6393,-2.3159,-2.2568,-2.1618,-1.8943,-1.8514,-1.8233,-1.7534,-1.7226,-1.7177,-1.7356,-1.7218,-1.7112,-1.7024,-1.7024,-1.6295,-1.4585,-1.5173,-1.4822,-1.2964,-1.2881,-1.2438,-1.1543,-1.146,-1.146,-1.1543,-1.1543,-1.1543,-1.1543,-1.1543,-1.1543,-1.1543,-1.1543,-1.1455,-1.1366,-1.0387,-0.9941,-0.9763,-0.7978,-0.771,-0.851,-0.7531,-0.7803,-0.8607,-0.8607,-0.8607,-0.8607,0.0,0.0,0.0,0.0,0.0,0.0,0.0,0.0,0.0,0.0,0.0,0.0,0.0,0.0,0.0,0.0,-4.7769,-4.8179,-4.9169,-4.9932,-5.0617,-5.1047,-5.1413,-5.1304,-5.0658,-5.1126,-5.1084,-5.0629,-5.0627,-5.0567,-5.0568,-5.0078,-4.977,-4.9636,-5.0176,-5.0352,-5.008,-5.0547,-5.0507,-5.0178,-5.0054,-4.9758,-4.9288,-4.9651,-4.9035,-4.8094,0.0,-4.5981,-4.1617,-3.9451,-3.7863,-3.6765,-3.6945,-3.47,-3.1696,-3.034,-2.7703,-2.5739,-2.8264,-2.8115,-2.7401,-2.8344,-2.9129,-2.9453,-2.8176,-2.9591,-3.0676,-2.8755,-2.8424,-2.8025,-2.6607,-2.3925,-2.1382,-1.9828,-1.8931,-1.8094,-1.692,-1.6969,-1.7136,-1.7193,-1.7153,-1.7112,-1.7112,-1.7112,-1.6608,-1.5425,-1.5558,-1.5175,-1.3932,-1.323,-1.2787,-1.2432,-1.181,-1.1543,-1.1543,-1.1543,-1.1543,-1.1543,-1.1543,-1.1543,-1.1543,-1.1543,-1.1543,-1.1455,-1.1099,-1.0654,-0.9941,-0.9317,-0.9224,-0.9487,-0.9219,-0.9224,-0.9496,-0.9496,-0.9143,-0.8607,0.0,0.0,0.0,0.0,0.0,0.0,0.0,0.0,0.0,0.0,0.0,0.0,0.0,0.0,0.0,0.0,0.0,-4.8403,-4.9087,-4.9646,-5.0141,-5.0472,-5.0812,-5.0995,-5.0995,-5.0813,-5.0812,-5.1054,-5.0654,-5.0455,-5.039,-5.0161,-4.995,-4.9849,-5.027,-5.0409,-5.0301,-5.0166,-5.0038,-4.9867,-4.9288,-4.8902,-4.8627,-4.8963,-4.8309,0.0,-4.7274,-4.5329,-4.2404,-4.0054,-3.7877,-3.631,-3.6825,-3.5123,-3.2578,-3.0687,-2.9001,-2.8208,-3.0391,-3.0531,-3.0266,-3.0736,-3.1376,-3.1625,-3.051,-3.158,-3.2443,-3.1203,-3.0442,-2.9635,-2.8469,-2.5799,-2.3005,-2.0796,-1.9771,-1.8672,-1.7104,-1.6841,-1.6952,-1.7201,-1.7153,-1.7112,-1.7112,-1.7112,-1.6849,-1.6233,-1.6233,-1.5793,-1.4815,-1.3932,-1.323,-1.2875,-1.1988,-1.1543,-1.1543,-1.1543,-1.1543,-1.1543,-1.1543,-1.1543,-1.1543,-1.1543,-1.1543,-1.1543,-1.1543,-1.1099,-1.0476,-1.0119,-1.0209,-1.0466,-1.011,-1.0026,-1.003,-1.003,-0.9406,-0.8607,0.0,0.0,0.0,0.0,0.0,0.0,0.0,0.0,0.0,0.0,0.0,0.0,0.0,0.0,0.0,0.0,0.0,0.0,-4.908,-4.8815,-4.9049,-4.9871,-4.9958,-4.9958,-4.9897,-4.9931,-4.9931,-4.9897,-5.0446,-5.04,-4.9768,-5.0281,-5.0321,-4.9964,-5.0028,-5.0155,-5.0422,-4.9596,-4.9241,-4.9128,-4.8259,-4.7883,-4.7807,-4.7673,-4.7349,-4.6831,-4.4924,-4.3989,-4.3492,-4.2701,-3.9627,-3.611,-3.6467,-3.4846,-3.2562,-3.1509,-3.0892,-3.0868,-3.2397,-3.2544,-3.2232,-3.2237,-3.3002,-3.3661,-3.3259,-3.371,-3.4049,-3.3624,-3.2523,-3.0973,-2.8785,-2.796,-2.6128,-2.1892,-2.0873,-1.9855,-1.7989,-1.7024,-1.664,-1.7348,-1.7218,-1.7112,-1.7112,-1.7112,-1.7112,-1.7112,-1.7112,-1.6673,-1.5793,-1.4815,-1.3932,-1.2964,-1.1988,-1.1543,-1.1543,-1.1543,-1.1543,-1.1543,-1.1543,-1.1543,-1.1543,-1.1543,-1.1543,-1.1543,-1.1543,-1.1543,-1.1455,-1.0476,-1.0654,-1.1455,-1.0555,-1.0115,-1.003,-1.003,-0.9406,-0.8607,0.0,0.0,0.0,0.0,0.0,0.0,0.0,0.0,0.0,0.0,0.0,0.0,0.0,0.0,0.0,0.0,0.0,0.0,-4.8961,-4.9083,-4.9282,-4.9533,-5.0199,-5.0379,-4.9897,-5.0108,-5.0168,-4.9897,-4.961,-4.9352,-4.9153,-4.9033,-4.8773,-4.846,-4.8736,-4.8798,-4.856,-4.8646,-4.8533,-4.8233,-4.802,-4.7682,-4.7305,-4.7241,-4.6939,-4.6476,-4.6175,-4.4995,-4.3323,-4.1314,-3.9345,-3.7719,-3.7764,-3.6632,-3.541,-3.5896,-3.4553,-3.3436,-3.5963,-3.5444,-3.4587,-3.6033,-3.648,-3.623,-3.5507,-3.5187,-3.4782,-3.3775,-3.1826,-3.0307,-2.9954,-2.7989,-2.5384,-2.24,-2.1392,-2.0028,-1.7184,-1.6841,-1.6952,-1.7177,-1.7136,-1.7112,-1.7112,-1.7112,-1.7112,-1.7112,-1.7112,-1.7024,-1.6761,-1.5168,-1.4197,-1.3932,-1.2337,-1.1543,-1.1543,-1.1543,-1.1543,-1.1543,-1.1543,-1.1543,-1.1543,-1.1543,-1.1543,-1.1543,-1.1543,-1.1543,-1.1455,-1.1188,-1.1721,-1.252,-1.2254,-1.1721,-1.101,-1.101,-1.003,-0.8607,0.0,0.0,0.0,0.0,0.0,0.0,0.0,0.0,0.0,0.0,0.0,0.0,0.0,0.0,0.0,0.0,0.0,0.0,0.0,-4.9168,-4.929,-4.9594,-4.9902,-5.0009,-4.995,-4.9839,-4.9898,-4.9923,-4.9607,-4.9348,-4.9106,-4.88,-4.8429,-4.8094,-4.8182,-4.8119,-4.7883,-4.7867,-4.7767,0.0,0.0,-4.7029,-4.6778,-4.6778,-4.6577,-4.6301,-4.6506,-4.5379,-4.3559,-4.2218,-4.0366,-3.8555,-3.8378,-3.7659,-3.6926,-3.6853,-3.622,-3.5785,-3.67,-3.6428,-3.6219,-3.7179,-3.7285,-3.6832,-3.5777,-3.5261,-3.4517,-3.3098,-3.1419,-3.0093,-2.9932,-2.8767,-2.6581,-2.2861,-2.2289,-2.0955,-1.7086,-1.6705,-1.6841,-1.7112,-1.7112,-1.7112,-1.7112,-1.7112,-1.7112,-1.7112,-1.7112,-1.6936,-1.6497,-1.508,-1.4108,-1.3666,-1.2254,-1.1543,-1.1543,-1.1543,-1.1543,-1.1543,-1.1543,-1.1543,-1.1543,-1.1543,-1.1543,-1.1543,-1.1543,-1.1543,-1.1543,-1.1543,-1.2077,-1.2875,-1.2875,-1.252,-1.2077,-1.2077,-1.0832,-0.9232,0.0,0.0,0.0,0.0,0.0,0.0,0.0,0.0,0.0,0.0,0.0,0.0,0.0,0.0,0.0,0.0,0.0,0.0,0.0,0.0,0.0,-4.9941,-4.952,-4.9475,-4.9946,-4.9498,-4.9471,-4.9946,-4.994,-4.9759,-4.9316,-4.9045,-4.8625,-4.8179,-4.7931,-4.7757,-4.7657,-4.7205,-4.6968,-4.6918,-4.6502,-4.6301,-4.6301,0.0,0.0,-4.6301,-4.6301,-4.5404,-4.4269,-4.4068,-4.1839,-3.9134,-3.8827,-3.8487,-3.7786,-3.6497,-3.7091,-3.78,-3.6468,-3.6709,-3.7245,-3.6887,-3.6769,-3.6396,-3.5282,-3.4639,-3.3883,-3.238,-3.1201,-3.0269,-2.952,-2.9789,-2.8439,-2.3306,-2.3154,-2.2016,-1.7508,-1.6657,-1.6665,-1.7024,-1.7112,-1.7112,-1.7112,-1.7112,-1.7112,-1.7112,-1.7112,-1.6673,-1.5793,-1.4815,-1.3843,-1.2787,-1.1899,-1.1543,-1.1543,-1.1543,-1.1543,-1.1543,-1.1543,-1.1543,-1.1543,-1.1543,-1.1543,-1.1543,-1.1543,-1.1543,-1.1543,-1.1543,-1.2077,-1.2875,-1.2787,-1.2787,-1.2698,-1.252,-1.1366,-0.9852,0.0,0.0,0.0,0.0,0.0,0.0,0.0,0.0,0.0,0.0,-5.5236,-5.351,0.0,0.0,0.0,0.0,0.0,0.0,0.0,0.0,0.0,0.0,-5.0208,-5.0004,-4.9593,-4.9956,-5.0014,-4.9593,-4.9804,-4.9611,-4.8984,-4.8922,-4.8324,-4.7341,-4.728,-4.7004,-4.6577,-4.6502,-4.6451,-4.6451,-4.6351,-4.6301,-4.6301,-4.6301,0.0,0.0,-4.6301,-4.6018,-4.5527,-4.4472,-4.2272,-4.0046,-4.0651,-4.0022,-3.9038,-3.9473,-3.9254,-3.8935,-3.869,-3.7914,-3.7252,-3.7166,-3.6976,-3.6477,-3.56,-3.4861,-3.4107,-3.3506,-3.1839,-3.0504,-3.0203,-2.9722,-2.7907,-2.3291,-2.2865,-2.1659,-1.7651,-1.7,-1.7024,-1.7112,-1.7112,-1.7112,-1.7112,-1.7112,-1.7112,-1.7112,-1.7112,-1.6673,-1.5793,-1.4815,-1.3489,-1.181,-1.1543,-1.1543,-1.1543,-1.1543,-1.1543,-1.1543,-1.1543,-1.1543,-1.1543,-1.1543,-1.1543,-1.1543,-1.1543,-1.1543,-1.1543,-1.1899,-1.2432,-1.2875,-1.2432,-1.2077,-1.1543,-1.0832,-0.9763,-0.8875,0.0,0.0,0.0,0.0,0.0,0.0,0.0,-5.7826,-5.7939,-5.8222,-5.5743,-5.387,-5.3752,-5.1231,-4.9654,0.0,0.0,0.0,0.0,0.0,0.0,0.0,0.0,0.0,-5.0161,-5.0488,-5.0605,-5.0457,0.0,-4.9981,-4.9605,-4.9112,-4.8462,-4.7803,-4.7593,-4.738,-4.7129,-4.6853,-4.6753,-4.6702,-4.6426,-4.6476,-4.6753,0.0,0.0,0.0,-4.6828,-4.6464,-4.6032,-4.5334,-4.3399,-4.1249,-4.1193,-4.0559,-3.9853,-4.0059,-3.9717,-3.9146,-3.8898,-3.7947,-3.7016,-3.7016,-3.6684,-3.6023,-3.4551,-3.3941,-3.3222,-3.1575,-3.0495,-2.9668,-2.9161,-2.91,-2.7652,-2.3195,-2.3046,-2.1936,-1.7566,-1.723,-1.7375,-1.7112,-1.7112,-1.7112,-1.7112,-1.7112,-1.7112,-1.7112,-1.6673,-1.5969,-1.4992,-1.3578,-1.2426,-1.1543,-1.1543,-1.1543,-1.1543,-1.1543,-1.1543,-1.1543,-1.1543,-1.1543,-1.1543,-1.1543,-1.1543,-1.1543,-1.1543,-1.1632,-1.1899,-1.2077,-1.2609,-1.323,-1.252,-1.2165,-1.2077,-1.1099,-1.0119,-0.9147,0.0,0.0,0.0,0.0,0.0,0.0,0.0,-5.8201,-5.8315,-5.8654,-5.6204,-5.4336,-5.4052,-5.1393,-4.9783,0.0,0.0,0.0,0.0,0.0,0.0,0.0,0.0,0.0,0.0,0.0,0.0,-5.14,-5.0875,0.0,0.0,0.0,0.0,0.0,-4.8333,-4.8096,-4.7883,-4.7417,-4.7191,0.0,0.0,-4.6652,0.0,0.0,0.0,0.0,0.0,-4.6985,-4.6518,-4.6042,-4.4747,-4.3032,-4.1928,-4.0967,-4.0318,-4.0656,-4.01,-3.926,-3.8973,-3.7961,-3.6981,-3.6813,-3.6455,-3.557,-3.3542,-3.3046,-3.2332,-2.9979,-2.9421,-2.9086,-2.8576,-2.8731,-2.7464,-2.3241,-2.3201,-2.2108,-1.7699,-1.7488,-1.7597,-1.7104,-1.7112,-1.7112,-1.7112,-1.7112,-1.7024,-1.6849,-1.5755,-1.4787,-1.402,-1.2426,-1.1543,-1.1543,-1.1543,-1.1543,-1.1543,-1.1543,-1.1543,-1.1543,-1.1543,-1.1543,-1.1543,-1.1543,-1.1543,-1.1632,-1.1632,-1.1899,-1.2343,-1.2432,-1.2787,-1.323,-1.2343,-1.2165,-1.2165,-1.1188,-1.004,-0.89,0.0,0.0,0.0,0.0,0.0,0.0,0.0,-5.7868,-5.8036,-5.8618,-5.6222,-5.441,-5.4355,-5.1793,-4.9912,0.0,0.0,0.0,0.0,0.0,0.0,0.0,0.0,0.0,0.0,0.0,0.0,-5.1656,-5.1558,0.0,0.0,0.0,0.0,0.0,0.0,-4.8724,-4.7857,-4.7637,0.0,0.0,0.0,0.0,0.0,0.0,0.0,0.0,0.0,-4.768,-4.7319,-4.6049,-4.5974,-4.6059,-4.4108,-4.1933,-4.0393,-4.2758,-4.1718,-3.9827,-3.979,-3.8821,-3.7769,-3.7326,-3.664,-3.557,-3.3542,-3.2824,-3.2332,-3.1697,-3.0626,-2.996,-3.0461,-2.9485,-2.7484,-2.4135,-2.2871,-2.1316,-1.8506,-1.7716,-1.7446,-1.7088,-1.7112,-1.7112,-1.7112,-1.7112,-1.6761,-1.5881,-1.4076,-1.3004,-1.3046,-1.2077,-1.1543,-1.1543,-1.1543,-1.1543,-1.1543,-1.1543,-1.1543,-1.1543,-1.1543,-1.1543,-1.1543,-1.1543,-1.1721,-1.2165,-1.2165,-1.2432,-1.2875,-1.3318,-1.3053,-1.2254,-1.1721,-1.101,-1.0119,-0.9232,-0.766,-0.6081,0.0,0.0,0.0,0.0,0.0,0.0,-5.8532,-5.7997,-5.7627,-5.8111,-5.5622,-5.3768,-5.3571,-5.1695,-5.0295,-4.9912,0.0,0.0,0.0,0.0,0.0,0.0,0.0,0.0,0.0,0.0,-5.1615,-5.1372,-5.1365,0.0,0.0,0.0,0.0,0.0,0.0,-4.8762,-4.836,-4.7604,0.0,0.0,0.0,0.0,0.0,0.0,0.0,0.0,0.0,0.0,-4.7845,-4.6714,-4.6204,-4.6162,-4.6626,-4.4676,-4.2335,-4.2918,-4.2888,-4.2522,-4.1868,-4.1298,-4.058,-3.9433,-3.8195,-3.6439,-3.3397,-3.257,-3.2126,-3.0971,-2.9961,-2.9496,-3.0001,-2.9029,-2.7131,-2.3997,-2.321,-2.1642,-1.8015,-1.7477,-1.7301,-1.6594,-1.6609,-1.6753,-1.7112,-1.7112,-1.645,-1.4856,-1.3407,-1.2403,-1.1853,-1.1417,-1.1243,-1.1243,-1.1243,-1.1275,-1.1346,-1.1346,-1.1384,-1.1543,-1.1543,-1.1543,-1.1543,-1.181,-1.1988,-1.2254,-1.252,-1.2609,-1.252,-1.2698,-1.2343,-1.1632,-1.0832,-0.9669,-0.8242,-0.7214,-0.5618,-0.3825,0.0,0.0,0.0,0.0,0.0,-5.8261,-5.8478,-5.7657,-5.6994,-5.6936,-5.4776,-5.3112,-5.2868,-5.1507,-5.0487,-5.0129,-5.0129,0.0,0.0,0.0,0.0,0.0,0.0,0.0,0.0,0.0,-5.161,-5.1452,-5.1391,-5.1188,0.0,0.0,-5.0129,-4.9748,0.0,0.0,0.0,0.0,0.0,0.0,0.0,0.0,0.0,0.0,0.0,0.0,0.0,0.0,0.0,0.0,0.0,-4.6658,-4.7832,-4.6756,-4.495,-4.4228,-4.4192,-4.4322,-4.3594,-4.3329,-4.2952,-4.1454,-4.0066,-3.8047,-3.4104,-3.309,-3.2426,-3.0752,-2.9558,-2.91,-2.9875,-2.8755,-2.6764,-2.3856,-2.3083,-2.1502,-1.7552,-1.7121,-1.6877,-1.616,-1.6357,-1.6602,-1.7124,-1.6689,-1.559,-1.374,-1.2656,-1.1727,-1.1047,-1.1014,-1.1031,-1.1101,-1.1101,-1.1139,-1.1221,-1.1221,-1.1281,-1.14,-1.14,-1.1511,-1.1721,-1.2077,-1.2343,-1.2609,-1.2964,-1.2964,-1.2787,-1.252,-1.1988,-1.1277,-1.0387,-0.8701,-0.6659,-0.5982,-0.4106,-0.1747,0.0,0.0,0.0,0.0,0.0,0.0,-5.6963,-5.6537,-5.5964,-5.5063,-5.3516,-5.2508,-5.2508,-5.1382,-5.0487,-5.0129,-5.0129,0.0,0.0,0.0,0.0,0.0,0.0,0.0,0.0,0.0,-5.1783,-5.2121,-5.1783,-5.1309,-5.0812,-5.0142,-4.9461,-4.8974,0.0,0.0,0.0,0.0,0.0,0.0,0.0,0.0,0.0,0.0,0.0,0.0,0.0,0.0,0.0,0.0,0.0,0.0,0.0,-4.7672,-4.8272,-4.7241,-4.5798,-4.4473,-4.4473,-4.4521,-4.4283,-4.3061,-4.2112,-4.0291,-3.5987,-3.4616,-3.3724,-3.1633,-2.9771,-2.8984,-3.0534,-2.8895,-2.6436,-2.3856,-2.2189,-2.0252,-1.7368,-1.6559,-1.6205,-1.5957,-1.6321,-1.6754,-1.7171,-1.5546,-1.4002,-1.2638,-1.1498,-1.0922,-1.0922,-1.0808,-1.0851,-1.1096,-1.1101,-1.1101,-1.1107,-1.1107,-1.1161,-1.1275,-1.1275,-1.1599,-1.2165,-1.2165,-1.2698,-1.3591,-1.3591,-1.3856,-1.421,-1.3325,-1.2343,-1.1277,-1.0387,-0.8289,-0.5727,-0.5727,-0.3224,0.0094,0.0,0.0,0.0,0.0,0.0,0.0,0.0,-5.4327,-5.3697,-5.3604,-5.2227,-5.1257,-5.1534,-5.0968,-5.0525,-5.0487,-5.0423,0.0,0.0,0.0,0.0,0.0,0.0,0.0,0.0,-5.1471,-5.1659,-5.1783,-5.1659,-5.1518,-5.1335,-5.0509,-5.0038,-4.9858,-4.8994,-4.8268,0.0,0.0,0.0,0.0,0.0,0.0,-4.8586,0.0,0.0,0.0,0.0,0.0,0.0,0.0,0.0,0.0,0.0,0.0,0.0,-4.7466,-4.7197,-4.6981,-4.6164,-4.5296,-4.446,-4.3966,-4.1862,-3.9229,-3.6782,-3.5134,-3.3939,-3.3027,-3.074,-2.9182,-3.0301,-2.9001,-2.6698,-2.3622,-2.2229,-2.0332,-1.684,-1.631,-1.6157,-1.57,-1.5987,-1.5802,-1.5034,-1.3743,-1.2919,-1.2834,-1.1867,-1.1216,-1.1216,-1.1176,-1.1109,-1.0851,-1.0851,-1.0895,-1.0976,-1.0976,-1.1036,-1.1156,-1.1502,-1.1824,-1.212,-1.2735,-1.323,-1.3591,-1.3236,-1.2787,-1.2254,-1.1277,-1.0387,-0.9317,-0.7702,-0.5676,-0.3549,-0.2199,-0.0093,0.2068,0.0,0.0,0.0,0.0,0.0,0.0,0.0,-5.3302,-5.2596,-5.2315,-5.1257,-5.0741,-5.1057,-5.0931,-5.0804,-5.0804,-5.0804,0.0,0.0,0.0,0.0,0.0,0.0,0.0,-5.112,-5.1309,-5.1116,-5.0544,-5.1216,-5.1112,-5.0234,-5.0256,-5.0033,-4.9619,-4.8823,-4.81,0.0,0.0,0.0,0.0,0.0,0.0,-4.8837,0.0,0.0,0.0,0.0,0.0,0.0,0.0,0.0,0.0,0.0,0.0,0.0,0.0,-4.7738,-4.7829,-4.7073,-4.6399,-4.5524,-4.4286,-4.2716,-4.057,-3.7465,-3.5908,-3.4772,-3.3676,-3.1011,-2.92,-3.0211,-2.8843,-2.6541,-2.3668,-2.2011,-1.9978,-1.6681,-1.6129,-1.587,-1.5529,-1.5798,-1.5187,-1.3421,-1.2739,-1.2436,-1.2443,-1.1611,-1.1237,-1.1403,-1.1237,-1.0987,-1.0737,-1.0737,-1.0775,-1.0851,-1.0851,-1.0911,-1.1036,-1.1464,-1.1894,-1.2324,-1.3023,-1.3186,-1.2781,-1.323,-1.2432,0.0,-0.9843,-0.8952,-0.7881,-0.5554,-0.3425,-0.1639,-0.0368,0.1303,0.3011,0.0,0.0,0.0,0.0,0.0,0.0,0.0,-5.291,-5.2262,-5.1094,-5.0677,-5.0614,-5.0931,-5.0931,-5.0994,-5.0994,0.0,0.0,0.0,0.0,0.0,0.0,0.0,0.0,-5.112,-5.112,-5.0369,-4.88,-5.0621,-5.0275,-4.7921,-4.9486,-4.9645,-4.8661,-4.8875,-4.8432,-4.7546,-4.7732,-4.7833,0.0,-4.8459,-4.8735,0.0,0.0,0.0,0.0,0.0,0.0,0.0,0.0,0.0,0.0,0.0,0.0,0.0,0.0,0.0,0.0,0.0,-4.7326,-4.6958,-4.4149,-4.4058,-4.3376,-3.8229,-3.6868,0.0,-3.3694,-3.0853,-2.9073,-3.0245,-2.8424,-2.6131,-2.3911,-2.1481,-1.9147,-1.6992,-1.6032,-1.5463,-1.5448,-1.5695,-1.4946,-1.2388,-1.2388,-1.2305,-1.157,-1.107,-1.107,-1.1486,-1.107,-1.082,-1.082,-1.082,-1.0737,-1.0737,-1.0737,-1.0791,-1.0905,-1.1413,-1.2051,-1.273,-1.3178,-1.2641,-1.1605,-1.3129,-1.2248,-0.9749,-0.8668,-0.7688,-0.6621,-0.3761,-0.1623,0.0,0.0276,0.1489,0.3011,0.0,0.0,0.0,0.0,0.0,0.0,0.0,0.0,0.0,0.0,-4.9267,-4.9227,-4.9525,-4.959,-4.9783,0.0,0.0,0.0,0.0,0.0,0.0,0.0,0.0,0.0,-5.1471,-5.1471,-5.046,-4.8531,-5.0079,-4.9837,-4.7905,-4.8786,-4.9245,-4.9144,-4.8531,-4.7738,-4.7008,-4.6978,-4.6964,-4.7013,-4.7547,-4.8009,0.0,0.0,0.0,0.0,-4.8209,-4.7871,0.0,0.0,0.0,0.0,0.0,0.0,0.0,0.0,-4.7497,0.0,-4.6074,0.0,-4.4127,-4.4055,-4.2894,-4.1465,0.0,-3.8224,-3.6256,-3.5146,-3.1621,-2.9,-2.9933,-2.8352,-2.6083,-2.3385,-2.1208,-1.9065,-1.6785,-1.6441,-1.6229,-1.5772,-1.5287,-1.4324,-1.2578,-1.2008,-1.1902,-1.2401,-1.2318,-1.2318,-1.2401,-1.2318,-1.2069,-1.1819,-1.1736,-1.1403,-1.0737,-1.107,-1.1254,-1.1282,-1.2034,-1.2623,-1.2885,-1.273,-1.2501,-1.2191,-0.9889,-0.8494,-0.7691,-0.5278,-0.4118,-0.3671,-0.1523,-0.0361,0.0182,0.175,0.2608,0.3011,0.0,0.0,0.0,0.0,0.0,0.0,0.0,0.0,0.0,0.0,0.0,-4.9162,-4.9332,-4.9332,0.0,0.0,0.0,0.0,0.0,0.0,0.0,0.0,0.0,-5.1127,-5.009,-5.075,-4.9647,-4.6542,-4.8065,-4.8348,-4.7433,-4.7795,-4.8502,-4.9377,-4.8661,-4.7758,-4.6746,-4.7174,-4.734,-4.7449,-4.7738,0.0,0.0,0.0,0.0,0.0,-4.7617,-4.7424,0.0,-4.7702,-4.7672,-4.7563,0.0,0.0,0.0,0.0,-4.7232,-4.6812,-4.5896,-4.4845,-4.3794,-4.2866,-4.2257,-4.1551,-4.0126,-3.8839,-3.7473,-3.5614,-3.2528,-3.0061,-2.9856,-2.7903,-2.5635,-2.3206,-2.0993,-1.8765,-1.641,-1.6355,-1.6112,-1.5035,-1.4697,-1.3931,-1.2123,-1.186,-1.1986,-1.265,-1.2567,-1.2484,-1.265,-1.2484,-1.2318,-1.2069,-1.2069,-1.1819,-1.132,-1.157,-1.1736,-1.1736,-1.2401,-1.256,-1.2361,-1.2344,-1.1262,-0.9329,-0.8232,-0.65,-0.4387,-0.2864,-0.197,-0.1344,0.0538,0.135,0.1449,0.2562,0.2775,0.2616,0.0,0.0,0.0,0.0,0.0,0.0,0.0,0.0,0.0,0.0,0.0,0.0,0.0,0.0,0.0,0.0,0.0,0.0,0.0,0.0,0.0,0.0,-5.061,-4.9761,-4.8025,-4.9138,-4.8041,-4.4538,-4.5746,-4.648,-4.6763,-4.6777,-4.762,-4.9199,-4.8724,-4.7893,-4.6806,-4.7533,-4.7858,-4.7997,-4.8001,0.0,0.0,0.0,0.0,0.0,0.0,0.0,0.0,-4.7048,-4.7237,-4.7497,-4.7497,0.0,0.0,0.0,0.0,0.0,-4.5989,-4.5508,-4.4409,-4.1862,-4.2103,-4.2251,-3.9465,-3.8899,-3.8258,-3.542,-3.307,-3.1085,-2.9741,-2.7591,-2.5334,-2.3134,-2.0575,-1.8161,-1.6193,-1.6068,-1.5706,-1.4364,-1.4238,-1.3561,-1.1943,-1.2056,-1.2318,-1.2816,-1.2484,-1.2484,-1.2816,-1.2484,-1.2318,-1.2318,-1.2318,-1.2318,-1.2318,-1.2235,-1.2152,-1.2152,-1.2229,-1.1873,-1.1222,-1.1143,-0.895,-0.5446,-0.6592,-0.4869,-0.1165,-0.0896,-0.0269,0.0628,0.2244,0.2874,0.2878,0.2905,0.2658,0.231,0.0,0.0,0.0,0.0,0.0,0.0,0.0,0.0,0.0,0.0,0.0,0.0,0.0,0.0,0.0,0.0,0.0,0.0,0.0,0.0,0.0,-4.606,-4.5984,-4.6086,-4.6405,-4.6061,-4.5591,-4.5114,-4.4709,-4.502,-4.6162,-4.6138,-4.6964,-4.8407,-4.8036,-4.7532,-4.696,-4.6899,-4.6884,-4.6932,-4.7075,0.0,0.0,0.0,0.0,0.0,0.0,0.0,0.0,-4.7202,-4.7345,-4.7497,-4.7497,0.0,0.0,0.0,0.0,0.0,-4.562,-4.4703,-4.3796,-4.3154,-4.2614,-4.1841,-4.0416,-3.831,-3.6109,-3.4261,-3.1715,-2.9819,-2.9523,-2.8371,-2.6421,-2.3133,-1.9242,-1.6587,-1.6394,-1.6195,-1.5984,-1.6015,-1.4579,-1.3562,-1.3459,-1.291,-1.2816,-1.3231,-1.3231,-1.3238,-1.3321,-1.3238,-1.3231,-1.3231,-1.3231,-1.3231,-1.3231,-1.2816,-1.2567,-1.2567,-1.0798,-0.9883,-0.9653,-0.6778,-0.5057,-0.4255,-0.2194,-0.0887,-0.009,0.1525,0.2334,0.2515,0.2784,0.2874,0.2878,0.2905,0.2828,0.2832,0.0,0.0,0.0,0.0,0.0,0.0,0.0,0.0,0.0,0.0,0.0,0.0,0.0,0.0,0.0,0.0,0.0,0.0,0.0,0.0,-4.1588,-4.1744,-4.1537,-4.2124,-4.3713,-4.4255,-4.3939,-4.2776,-4.2224,-4.285,-4.4495,-4.5536,-4.6281,-4.6786,-4.7515,-4.7557,-4.7123,-4.7247,-4.742,-4.7516,0.0,0.0,0.0,0.0,0.0,0.0,0.0,0.0,0.0,0.0,-4.7551,-4.7497,-4.7497,0.0,0.0,0.0,0.0,0.0,-4.5737,-4.4609,-4.3355,-4.3183,-4.2784,-4.2177,-4.129,-3.9316,-3.711,-3.5139,-3.2588,-3.0483,-2.9631,-2.7351,-2.4431,-2.0729,-1.8084,-1.6606,-1.6788,-1.6151,-1.5659,-1.5351,-1.4289,-1.3521,-1.3213,-1.3108,-1.3148,-1.3403,-1.3403,-1.3403,-1.3403,-1.3403,-1.3403,-1.3403,-1.3403,-1.2899,-1.1979,-1.1724,-1.1392,-1.0882,-0.9873,-0.8365,-0.6443,-0.4799,-0.3313,-0.1806,0.0,0.0616,0.1602,0.2507,0.2874,0.2874,0.2874,0.2874,0.2878,0.2634,0.2553,0.2553,0.0,0.0,0.0,0.0,0.0,0.0,0.0,0.0,0.0,0.0,0.0,0.0,0.0,0.0,0.0,0.0,0.0,0.0,0.0,-3.9425,-3.8735,-3.8799,-3.8588,-3.9281,-4.1188,-4.2245,-4.2193,-4.1004,-4.0323,-4.0983,-4.2921,-4.5642,-4.6466,-4.5802,-4.7593,-4.8074,-4.7643,-4.799,-4.8305,-4.8474,0.0,0.0,0.0,0.0,0.0,0.0,0.0,0.0,0.0,0.0,0.0,0.0,0.0,0.0,0.0,-4.7232,-4.6204,-4.5142,-4.5461,-4.4353,-4.3034,-4.2627,-4.249,-4.2167,-4.1366,-3.9445,-3.7366,-3.5546,-3.3116,-3.0887,-2.9568,-2.6055,-2.2248,-1.9047,-1.7512,-1.6773,-1.7008,-1.6054,-1.5119,-1.4557,-1.3895,-1.3268,-1.2886,-1.3148,-1.3403,-1.3403,-1.3403,-1.3403,-1.3403,-1.3403,-1.3403,-1.3403,-1.2982,-1.2063,-1.0721,-1.0304,-0.9633,-0.8786,-0.8115,-0.6273,-0.335,-0.2682,-0.135,0.0598,0.0692,0.1486,0.2653,0.2683,0.2694,0.2694,0.2694,0.2784,0.2876,0.2537,0.2275,0.2188,0.0,0.0,0.0,0.0,0.0,0.0,0.0,0.0,0.0,0.0,0.0,0.0,0.0,0.0,0.0,0.0,0.0,0.0,0.0,-3.9208,-3.8971,-3.8622,-3.8622,-3.895,-3.9707,-3.9161,-3.9911,-4.1912,-4.0105,-4.0228,-4.2101,-4.7187,-4.8458,-4.6607,-4.8632,-4.933,-4.8992,-4.9149,-4.9178,-4.9226,-4.9011,0.0,0.0,0.0,0.0,0.0,0.0,0.0,0.0,0.0,0.0,0.0,0.0,0.0,-4.6473,-4.6473,-4.546,-4.4319,-4.4342,-4.3561,-4.2555,-4.1752,-4.1296,-4.0863,-4.0176,-3.7184,-3.4359,-3.3825,-3.1779,-2.9912,-2.91,-2.5063,-2.1435,-2.0289,-1.8083,-1.6602,-1.6884,-1.5684,-1.4811,-1.4823,-1.3298,-1.2554,-1.3314,-1.3403,-1.3403,-1.3403,-1.3403,-1.3403,-1.3403,-1.3403,-1.3403,-1.3403,-1.1807,-1.0809,-1.0721,-0.9054,-0.7793,-0.6867,-0.4356,-0.2596,-0.1424,0.1092,0.2285,0.2482,0.2596,0.245,0.2123,0.2235,0.2245,0.2245,0.2245,0.2515,0.2874,0.2876,0.2534,0.2277,0.0,0.0,0.0,0.0,0.0,0.0,0.0,0.0,0.0,0.0,0.0,0.0,0.0,0.0,0.0,0.0,0.0,0.0,0.0,-3.9176,-3.903,-3.8647,-3.8574,-3.8714,-3.899,-3.8918,-3.9481,-4.0555,-4.0915,-4.1399,-4.2116,-4.4858,-4.645,-4.7144,-4.7349,-4.8041,-4.9084,-4.9163,-4.9052,-4.8822,-4.9062,-4.9062,0.0,0.0,0.0,0.0,0.0,0.0,0.0,0.0,-4.782,-4.7497,-4.7497,-4.6965,-4.6405,-4.6405,-4.5392,-4.4159,-4.4159,-4.3257,-4.2123,-4.1617,-4.1038,-4.0472,-4.033,-3.7472,-3.481,-3.4569,-3.2031,-2.8964,-2.6016,-2.3859,-2.1693,-1.9134,-1.7962,-1.7375,-1.7195,-1.6237,-1.5306,-1.4803,-1.368,-1.3072,-1.3397,-1.2395,-1.1724,-1.1724,-1.0637,-1.0055,-1.0055,-1.1142,-1.1225,-1.0055,-1.0471,-0.9633,-0.7459,-0.6121,-0.4528,-0.2518,-0.2683,-0.1342,0.126,0.2271,0.2699,0.2712,0.2742,0.2512,0.2101,0.2125,0.2142,0.2245,0.2515,0.2784,0.2874,0.2874,0.2791,0.2618,0.0,0.0,0.0,0.0,0.0,0.0,0.0,0.0,0.0,0.0,0.0,0.0,0.0,0.0,0.0,0.0,0.0,0.0,-3.9185,-3.9234,-3.8994,-3.8615,-3.8615,-3.8631,-3.8769,-3.9082,-3.9222,-3.9353,-4.1152,-4.173,-4.1317,-4.3872,-4.5229,-4.5628,-4.6981,-4.7841,-4.8442,-4.9115,-4.9091,-4.872,-4.9105,-4.9108,0.0,0.0,0.0,0.0,0.0,0.0,0.0,0.0,-4.7452,-4.7098,-4.6898,-4.6271,-4.5731,-4.5731,-4.4754,-4.3779,-4.3919,-4.287,-4.1804,-4.1419,-4.0699,-3.9988,-3.9414,-3.7132,-3.5015,-3.4991,-3.219,-2.8452,-2.4153,-2.3099,-2.1758,-1.8291,-1.7638,-1.7454,-1.7113,-1.6073,-1.5141,-1.4456,-1.3673,-1.2982,-1.2561,-1.1392,-1.0471,-0.9888,-0.872,-0.7968,-0.7968,-0.9137,-0.9304,-0.8052,-0.8632,-0.7877,-0.5454,-0.3944,-0.2099,0.0,-0.1091,-0.0168,0.244,0.244,0.244,0.2273,0.2469,0.2152,0.1654,0.1936,0.2134,0.2245,0.2694,0.2874,0.2874,0.2874,0.2874,0.2874,0.0,0.0,0.0,0.0,0.0,0.0,0.0,0.0,0.0,0.0,0.0,0.0,0.0,0.0,0.0,0.0,0.0,0.0,-3.9182,-3.9229,-3.9041,-3.8633,-3.8595,-3.8765,-3.9219,-3.9199,-3.8984,-3.8574,-4.0625,-4.077,-3.936,-4.4992,-4.5506,-4.1907,-4.7976,-4.9274,-4.7027,-4.9057,-4.9565,-4.9133,-4.9245,-4.9249,-4.9296,0.0,0.0,0.0,0.0,0.0,0.0,0.0,-4.6405,-4.6271,-4.5528,-4.4778,-4.4159,-4.4159,-4.3468,-4.2792,-4.3221,-4.2411,-4.143,-4.107,-4.033,-3.919,-3.7174,-3.5609,-3.4637,-3.4823,-3.2015,-2.8246,-2.4087,-2.2917,-2.1501,-1.8272,-1.715,-1.6592,-1.6359,-1.5067,-1.395,-1.3607,-1.3074,-1.2146,-1.0809,-1.0637,-0.9888,-0.8136,-0.7968,-0.7964,-0.7964,-0.7968,-0.7968,-0.7964,-0.6292,-0.5371,-0.5371,-0.2688,-0.0841,0.0,0.0505,0.1178,0.2018,0.2018,0.1766,0.1346,0.1873,0.1549,0.0783,0.1672,0.2135,0.2245,0.2694,0.2874,0.2874,0.2874,0.2874,0.2874,0.0,0.0,0.0,0.0,0.0,0.0,0.0,0.0,0.0,0.0,0.0,0.0,0.0,0.0,0.0,0.0,0.0,0.0,-3.8817,-3.9046,-3.8915,-3.8217,-3.8197,-3.8387,-3.8793,-3.8779,-3.8857,-3.903,-4.1008,-4.1658,-4.0956,-4.4033,-4.5471,-4.5415,-4.7234,-4.7866,-4.7679,-4.8261,-4.8098,-4.7516,-4.7957,-4.8096,-4.8165,0.0,0.0,0.0,0.0,0.0,0.0,0.0,0.0,0.0,-4.5392,-4.4778,-4.4159,-4.4159,-4.3669,-4.2959,-4.2514,-4.1741,-4.0928,-4.023,-3.9896,-3.9242,-3.7144,-3.6385,-3.5546,-3.3532,-3.0455,-2.7171,-2.4283,-2.3081,-2.1552,-1.8692,-1.7638,-1.6961,-1.6179,-1.5156,-1.4239,-1.3548,-1.217,-1.1142,-1.0726,-0.8465,-0.671,-0.6208,-0.4954,-0.4285,-0.4285,-0.5457,-0.5625,-0.4285,-0.5038,-0.4449,-0.2522,-0.1093,-0.0084,0.0505,0.1262,0.1766,0.2018,0.1682,0.143,0.1346,0.1435,0.1196,0.0696,0.0975,0.1343,0.1706,0.2245,0.2425,0.2425,0.2425,0.2425,0.2425,0.0,0.0,0.0,0.0,0.0,0.0,0.0,0.0,0.0,0.0,-3.9473,-3.9154,0.0,0.0,0.0,0.0,0.0,0.0,0.0,-3.8198,-3.8046,-3.753,-3.7539,-3.7792,-3.8368,-3.8377,-3.8461,-3.8681,-4.0129,-4.0677,-4.0439,-4.2466,-4.376,-4.4354,-4.5833,-4.6512,-4.6605,-4.719,-4.719,-4.6815,-4.739,-4.7597,-4.7643,0.0,0.0,0.0,0.0,0.0,0.0,0.0,0.0,0.0,-4.4526,-4.4181,-4.3811,-4.3639,-4.3214,-4.2614,-4.2,-4.1203,-4.0369,-4.0092,-3.9701,-3.8735,-3.6667,-3.5566,-3.4173,-3.1528,-2.9439,-2.7418,-2.4926,-2.3618,-2.2106,-1.9705,-1.7919,-1.6607,-1.6106,-1.4961,-1.3721,-1.2478,-1.1392,-1.0138,-0.8716,-0.6623,-0.5119,-0.4367,-0.3279,-0.2692,-0.2692,-0.3698,-0.3866,-0.2692,-0.3782,-0.353,-0.185,-0.0841,-0.0168,0.0168,0.1094,0.1515,0.1515,0.1178,0.0926,0.0758,0.0764,0.0859,0.0958,0.0801,0.0988,0.1436,0.1795,0.1885,0.1885,0.1885,0.1885,0.1885,0.0,0.0,0.0,0.0,0.0,0.0,0.0,0.0,0.0,0.0,-3.9317,-3.8918,0.0,0.0,0.0,0.0,0.0,0.0,0.0,-3.694,-3.6732,-3.6788,-3.6841,-3.7168,-3.7887,-3.7915,-3.7915,-3.7859,-3.824,-3.8414,-3.8487,-4.0428,-4.0954,-4.0411,-4.404,-4.5212,-4.4517,-4.6085,-4.6719,-4.6811,-4.7268,-4.7451,-4.7496,-4.7976,0.0,0.0,0.0,0.0,0.0,0.0,0.0,0.0,-4.3372,-4.3184,-4.3132,-4.2814,-4.2483,-4.2116,-4.1644,-4.0742,-3.9965,-4.0259,-3.9386,-3.7855,-3.5617,-3.3565,-3.1594,-2.9528,-2.8931,-2.811,-2.5729,-2.4277,-2.2866,-2.0941,-1.7983,-1.6024,-1.6024,-1.4465,-1.2727,-1.0893,-1.0554,-0.9133,-0.5706,-0.5287,-0.4451,-0.2861,-0.2777,-0.2777,-0.2777,-0.2777,-0.2777,-0.2777,-0.2692,-0.2608,-0.2524,-0.1346,-0.0673,-0.0589,0.0253,0.0674,0.0674,0.0674,0.0421,0.0,0.0,0.0522,0.1219,0.0801,0.0898,0.1347,0.1347,0.1347,0.1347,0.1347,0.1347,0.1347,0.0,0.0,0.0,0.0,0.0,0.0,0.0,0.0,0.0,0.0,0.0,0.0,0.0,0.0,0.0,0.0,0.0,0.0,0.0,0.0,-3.6356,-3.6301,-3.6838,-3.7138,-3.6952,-3.7253,-3.7346,-3.7032,-3.7165,-3.7184,-3.7184,-3.8915,-3.942,-3.8997,-4.3034,-4.4307,-4.37,-4.5678,-4.6368,-4.6212,-4.6323,-4.6367,-4.6367,-4.6477,-4.6522,0.0,0.0,0.0,0.0,0.0,0.0,0.0,-4.3254,-4.3184,-4.3206,-4.3083,-4.3083,-4.2763,-4.1428,-4.0878,-4.0467,-3.9275,-3.8071,-3.6509,-3.4382,-3.2297,-3.0623,-2.999,-2.8235,-2.6488,-2.547,-2.3889,-2.2268,-2.085,-1.7983,-1.6024,-1.6024,-1.4465,-1.2727,-1.0893,-0.9471,-0.7714,-0.5622,-0.4115,-0.3111,-0.2692,-0.3029,-0.3283,-0.3283,-0.3283,-0.3283,-0.3283,-0.2861,-0.2188,-0.1178,-0.0841,-0.0337,0.0421,0.0589,0.0505,0.0168,0.0168,0.0084,0.0,0.0,0.0087,0.0261,0.0178,0.0449,0.0808,0.0808,0.0808,0.0808,0.0808,0.0808,0.0808,0.0,0.0,0.0,0.0,0.0,0.0,0.0,0.0,0.0,0.0,0.0,0.0,0.0,0.0,0.0,0.0,0.0,0.0,0.0,0.0,-3.5421,-3.5634,-3.6489,-3.6831,-3.6401,-3.6576,-3.6597,-3.62,-3.582,-3.5959,-3.6512,-3.737,-3.7925,-3.8348,-4.0618,-4.1748,-4.203,-4.3266,-4.3667,-4.3448,-4.4198,-4.4369,-4.4346,-4.5031,-4.5325,-4.5303,-4.5063,0.0,0.0,0.0,0.0,0.0,0.0,0.0,-4.3158,-4.3024,-4.2664,-4.2171,-4.0989,-4.0377,-3.9892,-3.8844,-3.7831,-3.6368,-3.3436,-3.1396,-2.9763,-2.8551,-2.7264,-2.6418,-2.6574,-2.4438,-2.2508,-2.1911,-1.8554,-1.6024,-1.6024,-1.4465,-1.2395,-0.9721,-0.8553,-0.6961,-0.4367,-0.3447,-0.3029,-0.3029,-0.3449,-0.3701,-0.3701,-0.3701,-0.3701,-0.3701,-0.3447,-0.2775,-0.1682,-0.143,-0.0842,0.0,0.0253,0.0253,0.0,0.0,0.0,0.0,0.0,0.0,0.0,0.0,0.018,0.0359,0.0359,0.0359,0.0359,0.0359,0.0359,0.0359,0.0,0.0,0.0,0.0,0.0,0.0,0.0,0.0,0.0,0.0,0.0,0.0,0.0,0.0,0.0,0.0,0.0,0.0,0.0,0.0,0.0,-3.495,-3.594,-3.6368,-3.5955,-3.6033,-3.5821,-3.5381,-3.4838,-3.5047,-3.6012,-3.6012,-3.655,-3.7596,-3.8272,-3.9144,-4.0103,-4.0715,-4.0659,-4.041,-4.1771,-4.2228,-4.2192,-4.3623,-4.4249,-4.446,-4.4518,-4.417,-4.3828,0.0,0.0,0.0,0.0,0.0,-4.311,-4.27,-4.2094,-4.1306,-4.0508,-3.9661,-3.8936,-3.8456,-3.794,-3.6709,-3.2865,-3.0977,-2.937,-2.7122,-2.6483,-2.6685,-2.7514,-2.5301,-2.326,-2.313,-1.9359,-1.6344,-1.6024,-1.4465,-1.2063,-0.847,-0.7968,-0.663,-0.3029,-0.3029,-0.3283,-0.3367,-0.3785,-0.4036,-0.412,-0.412,-0.412,-0.412,-0.4036,-0.3532,-0.2608,-0.2188,-0.1515,-0.0589,-0.0168,0.0,0.0,0.0,0.0,0.0,0.0,0.0,0.0,0.0,0.0,0.0,0.0,0.0,0.0,0.0,0.0,0.0,0.0,0.0,0.0,0.0,0.0,0.0,0.0,0.0,0.0,0.0,-3.8291,-3.8071,0.0,0.0,0.0,0.0,0.0,0.0,-3.3981,0.0,0.0,-3.495,-3.5388,-3.5639,-3.5588,-3.5588,-3.5244,-3.4538,-3.5175,-3.5372,-3.5158,-3.5158,-3.5252,-3.5475,-3.7675,-3.8534,-3.8538,-3.9969,-4.0085,-3.9395,-4.0056,-4.0633,-4.1262,-4.1933,-4.283,-4.3744,-4.4093,-4.3867,-4.3491,-4.3779,-4.3556,0.0,0.0,0.0,-4.3045,-4.2315,-4.2052,-4.17,-4.0204,-3.9278,-3.8443,-3.7224,-3.774,-3.7345,-3.3114,-3.1574,-3.039,-2.8055,-2.6593,-2.5912,-2.68,-2.5747,-2.4344,-2.2854,-2.016,-1.7719,-1.6188,-1.4465,-1.2063,-0.847,-0.7968,-0.663,-0.3029,-0.2777,-0.2945,-0.3367,-0.3785,-0.4204,-0.4626,-0.4626,-0.4626,-0.4626,-0.4204,-0.3363,-0.2103,-0.2018,-0.1346,-0.0084,0.0,0.0,0.0,0.0,0.0,0.0,0.0,0.0,0.0,0.0,0.0,0.0,0.0,0.0,0.0,0.0,0.0,0.0,0.0,0.0,0.0,0.0,0.0,0.0,0.0,0.0,0.0,0.0,0.0,-3.788,0.0,0.0,0.0,-3.534,-3.4726,-3.4215,-3.3837,-3.4385,-3.4693,-3.4642,-3.5001,-3.5104,-3.4881,-3.5322,-3.5305,-3.4769,-3.5537,-3.5702,-3.5312,-3.5772,-3.5754,-3.5407,-3.6418,-3.6532,-3.604,-3.6958,-3.6599,-3.5614,-3.6664,-3.7224,-3.7586,-3.8481,-3.9391,-4.0163,-4.0354,-4.0753,-4.1312,-4.1551,-4.2043,-4.2619,-4.2343,0.0,0.0,0.0,-4.1078,-4.0492,-3.9141,-3.8538,-3.7855,-3.6333,-3.6646,-3.605,-3.1635,-3.054,-2.9715,-2.7256,-2.6053,-2.5698,-2.6331,-2.5535,-2.4295,-2.2774,-2.016,-1.7719,-1.6188,-1.4465,-1.2063,-0.847,-0.7968,-0.663,-0.3029,-0.2945,-0.3281,-0.3701,-0.4122,-0.4626,-0.5046,-0.5132,-0.5132,-0.5132,-0.4372,-0.3447,-0.244,-0.185,-0.1094,0.0,0.0,0.0,0.0,0.0,0.0,0.0,0.0,0.0,0.0,0.0,0.0,0.0,0.0,0.0,0.0,0.0,0.0,0.0,0.0,0.0,0.0,0.0,0.0,0.0,0.0,0.0,0.0,0.0,0.0,0.0,0.0,0.0,0.0,0.0,-3.4737,-3.4405,-3.4128,-3.4659,-3.4881,-3.4676,-3.495,-3.4967,-3.4676,-3.5418,-3.5521,-3.5138,-3.6064,-3.6241,-3.5713,-3.643,-3.6368,-3.5556,-3.5611,-3.5078,-3.4183,-3.4467,-3.3727,-3.2511,-3.3795,-3.4409,-3.466,-3.5592,-3.652,-3.7252,-3.723,-3.7859,-3.8803,-3.9534,-4.0424,-4.1302,-4.1461,-4.1462,0.0,0.0,0.0,-3.9235,-3.849,-3.833,-3.7891,-3.6148,-3.6025,-3.5158,-3.0937,-2.9789,-2.8944,-2.6741,-2.5839,-2.5605,-2.5998,-2.5564,-2.4706,-2.3256,-2.0565,-1.8118,-1.6673,-1.4713,-1.2229,-0.9054,-0.8716,-0.7296,-0.3698,-0.37,-0.3952,-0.4036,-0.4288,-0.4794,-0.5384,-0.5384,-0.53,-0.5046,-0.4372,-0.3447,-0.2356,-0.1431,-0.0673,0.0,0.0,0.0,0.0,0.0,0.0,0.0,0.0,0.0,0.0,0.0,0.0,0.0,0.0,0.0,0.0,0.0,0.0,0.0,0.0,0.0,0.0,0.0,0.0,0.0,0.0,0.0,0.0,0.0,0.0,0.0,-3.7426,-3.7045,-3.6421,-3.5645,-3.5211,-3.4984,-3.4976,-3.495,-3.5121,-3.5429,-3.5463,0.0,-3.5446,-3.5956,-3.594,-3.5599,-3.6766,-3.6884,-3.6114,-3.6498,-3.627,-3.5463,-3.5884,-3.5156,-3.3756,-3.3727,-3.3041,-3.1997,-3.245,-3.3206,-3.405,-3.4239,-3.5278,-3.6598,-3.6617,-3.6421,-3.6538,-3.8886,-3.9234,-3.8958,-4.0872,-4.1255,-4.076,0.0,0.0,0.0,-3.9082,-3.9145,-3.8721,-3.6958,-3.6587,-3.5719,-3.2221,-3.0209,-2.8726,-2.7591,-2.6344,-2.5541,-2.5738,-2.64,-2.6307,-2.4706,-2.2155,-1.9806,-1.8118,-1.5275,-1.2733,-1.0804,-1.0554,-0.9133,-0.5622,-0.5287,-0.4954,-0.4036,-0.4036,-0.4456,-0.5384,-0.5384,-0.4962,-0.412,-0.4036,-0.3195,-0.143,-0.0505,-0.0084,0.0,0.0,0.0,0.0,0.0,0.0,0.0,0.0,0.0,0.0,0.0,0.0,0.0,0.0,0.0,0.0,0.0,0.0,0.0,0.0,0.0,0.0,0.0,0.0,0.0,0.0,0.0,0.0,0.0,0.0,0.0,0.0,-3.7422,-3.7081,-3.6803,-3.6121,-3.5696,-3.5418,-3.533,-3.5275,-3.5172,-3.5172,-3.5172,-3.5172,-3.6106,-3.6491,-3.6332,-3.7037,-3.7055,-3.6498,-3.6075,-3.5137,-3.3856,-3.4276,-3.4076,-3.3267,-3.274,-3.1981,-3.1214,-3.1262,-3.16,-3.2007,-3.1678,-3.2158,-3.3115,-3.2571,-3.3247,-3.4542,-3.4934,-3.5787,-3.667,-3.6901,-3.6848,-3.6831,-3.7347,-3.8024,-3.8555,-3.8418,-3.8379,-3.7817,-3.5533,-3.5438,-3.4963,-3.1575,-2.9948,-2.8805,-2.7616,-2.6412,-2.5592,-2.5959,-2.6348,-2.5898,-2.3576,-2.1453,-1.9329,-1.7074,-1.4796,-1.2727,-1.0893,-1.0721,-0.93,-0.5706,-0.5371,-0.5038,-0.4036,-0.4036,-0.4372,-0.5384,-0.5384,-0.4962,-0.4036,-0.3447,-0.2272,-0.0505,-0.0168,0.0,0.0,0.0,0.0,0.0,0.0,0.0,0.0,0.0,0.0,0.0,0.0,0.0,0.0,0.0,0.0,0.0,0.0,0.0,0.0,0.0,0.0,0.0,0.0,0.0,0.0,0.0,0.0,-3.8181,-3.7521,0.0,0.0,0.0,0.0,-3.6461,-3.5746,-3.5122,-3.4639,-3.435,-3.4074,-3.3851,-3.3462,-3.3287,-3.3495,-3.4041,-3.458,-3.5333,-3.6341,-3.6403,-3.6286,-3.6063,-3.5298,-3.4228,-3.2936,-3.3018,-3.2793,-3.2474,-3.2093,-3.1479,-3.0748,-3.0475,-3.0435,-3.0565,-2.9756,-2.992,-3.0444,-2.9719,-3.045,-3.1749,-3.1866,-3.2682,-3.3719,-3.3842,-3.3907,-3.4132,-3.4914,-3.6404,-3.7725,-3.7499,-3.7767,-3.7656,-3.5665,-3.5248,-3.4373,-3.0887,-2.9453,-2.8485,-2.7055,-2.6167,-2.5814,-2.6277,-2.6427,-2.5858,-2.4178,-2.1669,-1.9258,-1.7565,-1.5036,-1.2982,-1.1724,-1.1641,-1.0471,-0.7459,-0.6627,-0.5876,-0.4957,-0.4372,-0.4372,-0.5384,-0.5132,-0.4374,-0.3111,-0.2272,-0.1178,0.0,0.0,0.0,0.0,0.0,0.0,0.0,0.0,0.0,0.0,0.0,0.0,0.0,0.0,0.0,0.0,0.0,0.0,0.0,0.0,0.0,0.0,0.0,0.0,0.0,0.0,0.0,0.0,0.0,0.0,-3.7869,-3.7484,0.0,0.0,0.0,0.0,0.0,-3.2436,-3.2176,-3.1991,-3.1752,-3.1299,-3.0795,-3.0343,-2.9934,-3.0504,-3.1985,-3.1411,-3.2553,-3.5352,-3.4676,-3.4534,-3.4767,-3.4404,-3.3741,-3.2985,-3.2221,-3.1606,-3.1198,-3.1669,-3.1479,-3.0686,-3.0082,-2.9771,-2.9734,-2.8757,-2.8703,-2.8991,-2.8683,-2.8246,-2.8206,-3.0159,-3.0255,-2.996,-3.2095,-3.2879,-3.3106,-3.3011,-3.446,-3.6157,0.0,0.0,0.0,-3.7453,-3.6031,-3.3966,-3.0591,-2.9029,-2.7757,-2.5967,-2.574,-2.61,-2.6719,-2.6587,-2.648,-2.6774,-2.2901,-1.9907,-1.9826,-1.6172,-1.3397,-1.3403,-1.3403,-1.2733,-1.0893,-0.9054,-0.7634,-0.6801,-0.5041,-0.4372,-0.5384,-0.4458,-0.3111,-0.1346,-0.0421,0.0,0.0,0.0,0.0,0.0,0.0,0.0,0.0,0.0,0.0,0.0,0.0,0.0,0.0,0.0,0.0,0.0,0.0,0.0,0.0,0.0,0.0,0.0,0.0,0.0,0.0,0.0,0.0,-3.8124,-3.7998,-3.8016,-3.7869,0.0,0.0,0.0,-3.5694,-3.4513,-3.3468,-3.3075,-3.2776,-3.2561,-3.2468,-3.2058,-3.1623,-3.1299,-3.0757,-3.0636,-3.0817,-3.1502,-3.236,-3.3463,-3.3953,-3.4259,-3.4371,-3.3645,-3.2922,-3.2205,-3.1999,-3.1371,-3.0437,-3.1229,-3.1088,-3.0283,-3.0241,-2.911,-2.7486,-2.8482,-2.8219,-2.7504,-2.8496,-2.8672,-2.8451,-2.8907,-2.8892,-2.8805,-2.9355,-3.0175,-3.0959,-3.0977,-3.2146,-3.3804,-3.4956,0.0,0.0,0.0,0.0,0.0,-3.1856,-3.0902,-3.0003,-2.7309,-2.6653,-2.6517,-2.6425,-2.6347,-2.648,-2.6774,-2.3478,-2.0322,-1.877,-1.6098,-1.4142,-1.348,-1.3403,-1.2733,-1.0893,-0.9054,-0.7634,-0.6801,-0.5041,-0.4372,-0.5384,-0.3954,-0.2523,-0.1346,-0.0421,0.0,0.0,0.0,0.0,0.0,0.0,0.0,0.0,0.0,0.0,0.0,0.0,0.0,0.0,0.0,0.0,0.0,0.0,0.0,0.0,0.0,0.0,0.0,0.0,0.0,0.0,0.0,0.0,-3.7126,-3.6963,-3.6884,-3.6994,0.0,0.0,0.0,-3.4375,-3.2984,-3.1884,-3.1241,-3.089,-3.0592,-3.0557,-2.9934,-2.9343,-2.8714,-2.8208,-2.7985,-2.8219,-2.9226,-3.0407,-3.169,-3.2501,-3.3082,-3.3433,-3.2826,-3.2301,-3.1919,-3.1371,-3.0794,-3.0129,-3.0299,-2.9989,-2.9349,-2.9363,-2.8311,-2.6851,-2.7013,-2.6518,-2.579,-2.5837,-2.614,-2.6478,-2.6343,-2.6869,-2.7547,-2.7547,-2.8389,-2.9329,-2.9138,-3.0329,-3.1877,-3.2615,-3.3162,-3.3634,-3.3696,0.0,0.0,-3.0641,-3.0103,-2.9547,-2.712,-2.6573,-2.6505,-2.6505,-2.6427,-2.648,-2.6774,-2.4387,-2.1695,-1.9176,-1.6418,-1.4383,-1.3486,-1.3403,-1.2982,-1.189,-1.0221,-0.8804,-0.7889,-0.6131,-0.5043,-0.4794,-0.3449,-0.2272,-0.1346,-0.0421,0.0,0.0,0.0,0.0,0.0,0.0,0.0,0.0,0.0,0.0,0.0,0.0,0.0,0.0,0.0,0.0,0.0,0.0,0.0,0.0,0.0,0.0,0.0,0.0,0.0,-3.4294,-3.4222,-3.5078,-3.5578,-3.5214,-3.5163,-3.5581,0.0,-3.5748,-3.4288,-3.2893,-3.1377,-2.9829,-2.8265,-2.7856,-2.7589,-2.7253,-2.6541,-2.5677,-2.453,-2.4034,-2.4234,-2.5071,-2.5853,-2.747,-3.0001,-3.052,-3.1337,-3.2348,-3.1811,-3.1575,-3.1355,-3.0344,-2.9741,-2.9493,-2.8808,-2.8289,-2.7824,-2.7647,-2.7311,-2.6773,-2.4818,-2.403,-2.3783,-2.2086,-2.232,-2.3348,-2.3284,-2.4518,-2.6146,-2.6164,-2.7093,-2.8017,-2.7577,-2.8739,-3.0112,-2.9973,-3.0745,-3.148,-3.1309,-3.1154,0.0,-2.8327,-2.8113,-2.7822,-2.6172,-2.6083,-2.6453,-2.676,-2.6625,-2.6531,-2.672,-2.5525,-2.3448,-2.0473,-1.7156,-1.4713,-1.3645,-1.3486,-1.3403,-1.3403,-1.1724,-1.031,-0.9476,-0.7638,-0.5795,-0.412,-0.3195,-0.2272,-0.1346,-0.0421,0.0,0.0,0.0,0.0,0.0,0.0,0.0,0.0,0.0,0.0,0.0,0.0,0.0,0.0,0.0,0.0,0.0,0.0,0.0,0.0,0.0,0.0,0.0,0.0,-3.4888,-3.4713,-3.4294,-3.4121,-3.3975,-3.3823,-3.3548,-3.3516,-3.4131,-3.2514,-3.0647,-2.8993,-2.8524,-2.8192,-2.7872,-2.7736,-2.7337,-2.6537,-2.6185,-2.5634,-2.4625,-2.3797,-2.3419,-2.3386,-2.4353,-2.5745,-2.7771,-2.7907,-2.9315,-3.1936,-3.0569,-2.935,-2.8417,-2.8544,-2.767,-2.6096,-2.6267,-2.5764,-2.5019,-2.5686,-2.4931,-2.3384,-2.2938,-2.1948,-2.0872,-2.115,-2.1573,-2.2012,-2.2031,-2.2715,-2.3744,-2.4326,-2.5395,-2.6436,-2.6586,-2.6673,-2.7125,-2.9049,-2.9397,-2.9524,-3.072,-3.1006,0.0,-2.8489,-2.8557,-2.8461,-2.65,-2.6627,-2.699,-2.6759,-2.6704,-2.6537,-2.6298,-2.5283,-2.3721,-2.127,-1.8861,-1.6664,-1.4713,-1.3811,-1.3403,-1.3403,-1.1724,-1.031,-0.9476,-0.7056,-0.513,-0.4036,-0.3195,-0.2272,-0.1346,-0.0421,0.0,0.0,0.0,0.0,0.0,0.0,0.0,0.0,0.0,0.0,0.0,0.0,0.0,0.0,0.0,0.0,0.0,0.0,0.0,0.0,0.0,0.0,0.0,-3.2929,-3.2598,-3.225,-3.1724,-3.1978,-3.2149,-3.2104,-3.1945,-3.2145,-3.3283,-3.1699,-2.9986,-2.851,-2.7649,-2.7071,-2.6567,-2.6312,-2.5981,-2.5496,-2.5099,-2.4519,-2.3763,-2.3363,-2.2868,-2.2455,-2.3855,-2.4921,-2.5689,-2.6564,-2.7714,-2.909,-2.8052,-2.7075,-2.6083,-2.5793,-2.4866,-2.3546,-2.3748,-2.3624,-2.3363,-2.4519,-2.3963,-2.22,-2.0913,-1.9942,-1.9081,-1.8113,-1.8313,-1.9081,-1.9828,-2.124,-2.2565,-2.2183,-2.4069,-2.6245,-2.5693,-2.6015,-2.6851,-2.8025,-2.8133,-2.8102,-2.8685,-2.8912,0.0,0.0,-2.7762,-2.7718,-2.6669,-2.6763,-2.6951,-2.671,-2.671,-2.6496,-2.59,-2.5681,-2.4763,-2.2382,-2.0107,-1.7647,-1.5043,-1.4307,-1.3894,-1.3403,-1.2561,-1.1309,-0.9559,-0.7722,-0.6134,-0.4794,-0.3449,-0.2524,-0.2018,-0.0674,0.0,0.0,0.0,0.0,0.0,0.0,0.0,0.0,0.0,0.0,0.0,0.0,0.0,0.0,0.0539,0.0718,0.0628,0.018,0.0,0.0,0.0,0.0,0.009,-3.0807,-3.0385,-2.9881,-2.936,-2.9961,-3.0563,-3.0455,-3.0386,-3.0759,-3.2155,-3.0978,-2.9577,-2.8496,-2.7181,-2.5884,-2.4561,-2.4053,-2.3714,-2.3621,-2.3133,-2.2785,-2.2744,-2.2665,-2.2404,-2.19,-2.3384,-2.4068,-2.413,-2.5299,-2.6054,-2.6319,-2.5437,-2.4664,-2.3884,-2.2924,-2.2059,-2.1366,-2.1411,-2.147,-2.1698,-2.2834,-2.2666,-2.1399,-1.8718,-1.7783,-1.7468,-1.5147,-1.4896,-1.5843,-1.7712,-1.9809,-2.1557,-2.081,-2.2921,-2.5638,-2.487,-2.5528,-2.66,-2.6951,-2.7072,-2.6947,-2.684,-2.6776,-2.6764,0.0,0.0,0.0,-2.6786,-2.6768,-2.6692,-2.6542,-2.6542,-2.6212,-2.5264,-2.5698,-2.5293,-2.3077,-2.1118,-1.8836,-1.5673,-1.4915,-1.4375,-1.3528,-1.3191,-1.1955,-0.9559,-0.8452,-0.7034,-0.5214,-0.3617,-0.2608,-0.244,-0.0842,0.0,0.0,0.0,0.0,0.0,0.0,0.0,0.0,0.0,0.0086,0.0261,0.0264,0.0267,0.0359,0.1257,0.1616,0.1347,0.0718,0.0449,0.0449,0.0269,0.0359,0.0538,-3.1136,-3.1088,-3.0828,-3.0232,-2.9953,-2.9587,-2.9104,-2.8726,-2.8463,-2.8358,-2.7711,-2.6922,-2.6138,-2.541,-2.3909,-2.1411,-2.0736,-2.0403,-2.0198,-1.9614,-2.0116,-2.1994,-2.1698,-2.1508,-2.1653,-2.1817,-2.2597,-2.3864,-2.2726,-2.3572,-2.6241,-2.3927,-2.243,-2.1556,-2.0763,-1.9935,-1.899,-1.9565,-1.9253,-1.8409,-1.8885,-1.9387,-1.9419,-1.6204,-1.5088,-1.514,-1.4495,-1.3578,-1.3198,-1.6798,-1.8524,-1.9618,-2.1782,-2.2327,-2.2492,-2.4461,-2.4158,-2.3641,-2.5936,-2.6219,-2.6004,-2.6634,-2.6393,-2.6107,-2.6808,0.0,-2.6983,-2.6939,0.0,-2.672,-2.6045,0.0,0.0,-2.4063,-2.435,-2.4009,-2.2004,-2.2254,-2.1313,-1.791,-1.5821,-1.4414,-1.3785,-1.2376,-1.0865,-0.9471,-0.8069,-0.64,-0.4285,-0.3195,-0.2356,-0.1514,-0.0505,0.0,0.0,0.0,0.0,0.0,0.0,0.0,0.0,0.0,0.0434,0.1219,0.1244,0.1256,0.1347,0.2333,0.2243,0.1436,0.1795,0.1973,0.1883,0.1436,0.1525,0.1973,-3.0797,-3.054,-3.0188,-2.9519,-2.9035,-2.8757,-2.846,-2.8171,-2.7776,-2.7482,-2.6877,-2.6104,-2.5151,-2.4434,-2.3183,-2.0798,-2.0478,-1.9972,-1.9043,-1.9336,-1.9838,-2.0405,-2.0966,-2.1238,-2.1008,-2.1253,-2.1687,-2.2395,-2.1687,-2.2081,-2.3404,-2.205,-2.074,-1.9463,-1.9148,-1.8302,-1.7086,-1.8094,-1.7944,-1.691,-1.6934,-1.6784,-1.6232,-1.4319,-1.3267,-1.2878,-1.2762,-1.2337,-1.2065,-1.367,-1.5089,-1.6307,-1.6534,-1.8573,-2.092,-2.1653,-2.2887,-2.4231,-2.5779,-2.5023,-2.4189,-2.5431,-2.4543,-2.3789,-2.5299,-2.5639,-2.5639,-2.5639,0.0,0.0,0.0,0.0,0.0,0.0,-2.4052,-2.3995,-2.2594,-2.2553,-2.139,-1.7933,-1.6969,-1.5796,-1.398,-1.3001,-1.1588,-0.9555,-0.8856,-0.7183,-0.4117,-0.3195,-0.2272,-0.1346,-0.0421,0.0,0.0,0.0,0.0253,0.0757,0.0757,0.101,0.16,0.1635,0.1824,0.2175,0.2223,0.2243,0.2333,0.3319,0.35,0.3142,0.3588,0.3318,0.2601,0.2333,0.2423,0.269,-2.8796,-2.931,-2.9588,-2.9063,-2.8642,-2.8278,-2.8114,-2.7843,-2.7506,-2.698,-2.6351,-2.5453,-2.4163,-2.2752,-2.0953,-1.8808,-1.7734,-1.6787,-1.5941,-1.7078,-1.7895,-1.8146,-1.9781,-2.0579,-2.0395,-2.0834,-2.1097,-2.1276,-2.1276,-2.1276,-2.1276,-2.0465,-1.9476,-1.8293,-1.7785,-1.6885,-1.591,-1.6722,-1.6519,-1.5447,-1.5313,-1.4458,-1.3403,-1.281,-1.2137,-1.1543,-1.1543,-1.1543,-1.1627,-1.229,-1.3365,-1.4414,-1.3995,-1.6082,-1.8773,-1.9016,-2.064,-2.2687,-2.4147,-2.3399,-2.2604,-2.4378,-2.343,-2.2576,-2.4219,-2.4609,-2.4609,-2.4609,-2.4609,0.0,0.0,0.0,-2.3992,-2.3127,0.0,-2.358,-2.2781,-2.2536,-2.1508,-1.8631,-1.7811,-1.6581,-1.4143,-1.354,-1.2383,-1.034,-0.9599,-0.7861,-0.487,-0.3447,-0.2272,-0.1346,-0.0421,0.0,0.0,0.0,0.0421,0.1262,0.1262,0.1766,0.2695,0.2754,0.2953,0.3219,0.3289,0.3319,0.3319,0.4307,0.4576,0.4397,0.5557,0.5375,0.4391,0.4212,0.4122,0.448,-2.4748,-2.7297,-2.9613,-2.9509,-2.9062,-2.856,-2.7846,-2.7709,-2.7258,-2.6077,-2.5437,-2.4507,-2.3072,-1.9531,-1.6253,-1.3847,-1.0268,-0.8485,-0.9085,-1.0784,-1.2889,-1.5362,-1.7719,-1.9301,-1.9913,-2.0143,-2.0601,-2.1276,-2.1276,-2.1276,-2.1276,-1.9551,-1.8736,-1.8592,-1.656,-1.5646,-1.5577,-1.5308,-1.4514,-1.3439,-1.3359,-1.2653,-1.1605,-1.1846,-1.1792,-1.1543,-1.1543,-1.1543,-1.1876,-1.4263,-1.4894,-1.5038,-1.7332,-1.6548,-1.5204,-1.7078,-1.6958,-1.6787,-2.013,-2.1098,-2.1565,-2.3896,-2.3782,-2.3392,-2.438,-2.4609,-2.4609,-2.4609,-2.4609,-2.4388,-2.3587,-2.3438,-2.314,-2.2142,-2.2176,0.0,0.0,-2.2485,-2.242,-2.106,-1.8278,-1.5842,-1.4294,-1.3436,-1.2768,-1.2332,-0.9973,-0.7962,-0.6707,-0.4117,-0.2272,-0.1346,-0.0421,0.0,0.0,0.0,0.0421,0.1262,0.1262,0.1766,0.2695,0.2754,0.3302,0.4177,0.4269,0.4218,0.4307,0.5293,0.5114,0.4576,0.7431,0.8498,0.8319,0.7424,0.7335,0.8044,-2.3653,-2.4162,-2.4733,-2.4997,-2.4687,-2.4317,-2.4068,-2.4472,-2.4045,-2.2097,-2.1222,-2.0034,-1.7935,-1.5425,-1.3291,-1.1769,-1.0595,-0.9674,-0.9009,-1.2036,-1.3205,-1.1956,-1.6526,-1.8413,-1.6681,-1.8339,-1.9371,-1.9696,-1.963,-1.9551,-1.9551,-1.8981,-1.8409,-1.7773,-1.7225,-1.6197,-1.4876,-1.5201,-1.4354,-1.2842,-1.2493,-1.1998,-1.1428,-1.1555,-1.1594,-1.1543,-1.1543,-1.1543,-1.1538,-1.166,-1.1588,-1.1439,-1.1806,-1.1992,-1.233,-1.3395,-1.44,-1.5516,-1.6935,-1.6467,-1.6427,-1.973,-1.9252,-1.8886,-2.1992,-2.2694,-2.2694,-2.2694,-2.2918,-2.2992,-2.2694,-2.262,0.0,0.0,0.0,0.0,0.0,-2.236,-2.2035,-2.0737,-1.8335,-1.6173,-1.4609,-1.3618,-1.2862,-1.2413,-1.004,-0.8107,-0.6794,-0.4117,-0.2272,-0.1346,-0.0421,0.0,0.0,0.0,0.0758,0.2188,0.2188,0.3029,0.4462,0.4559,0.4865,0.5133,0.5157,0.5204,0.5293,0.5562,0.5473,0.547,0.7699,0.8587,0.8676,0.9651,1.0091,1.0268,-2.1281,-2.0621,-2.0651,-2.2305,-2.2338,-2.1973,-2.1544,-2.1605,-2.1045,-1.8983,-1.7803,-1.6515,-1.4856,-1.2316,-1.0507,-0.9707,-0.8686,-0.8117,-0.8181,-1.0549,-1.1279,-0.9985,-1.3759,-1.5103,-1.3337,-1.5884,-1.7368,-1.7684,-1.8403,-1.873,-1.8654,-1.8409,-1.7928,-1.7372,-1.7156,-1.5997,-1.4265,-1.4622,-1.3774,-1.2214,-1.1863,-1.1154,-1.0366,-1.0801,-1.1161,-1.1395,-1.1083,-1.101,-1.0832,-1.0026,-0.9717,-0.9577,-0.9162,-0.9629,-1.0416,-1.0708,-1.1732,-1.2891,-1.395,-1.335,-1.3265,-1.6582,-1.6251,-1.5996,-1.965,-2.0298,-2.0157,-2.0157,-2.0631,-2.062,-1.9451,-2.0211,0.0,0.0,0.0,0.0,0.0,-2.2408,-2.1948,-2.0586,-1.8734,-1.692,-1.5376,-1.401,-1.3212,-1.3315,-1.0447,-0.8352,-0.7706,-0.4535,-0.2272,-0.1346,-0.0421,0.0,0.0,0.0,0.0842,0.244,0.2608,0.3533,0.5135,0.5507,0.5559,0.5567,0.5687,0.5741,0.5741,0.5741,0.6097,0.6898,0.8854,1.0007,1.0806,1.1959,1.2845,1.3464,-1.7835,-1.7141,-1.7781,-2.1149,-2.1806,-2.1388,-2.0148,-1.9284,-1.8302,-1.6809,-1.5095,-1.3974,-1.3621,-0.9995,-0.7581,-0.7581,-0.4747,-0.3928,-0.6429,-0.6341,-0.7128,-0.9228,-0.9481,-0.9738,-1.0,-1.2867,-1.4707,-1.5234,-1.7601,-1.8688,-1.8573,-1.7682,-1.7363,-1.7281,-1.6377,-1.5067,-1.3581,-1.3495,-1.2619,-1.1182,-1.1188,-1.0105,-0.8583,-0.9397,-1.0224,-1.0848,-1.0076,-0.9852,-0.9852,-0.9308,-0.9219,-0.9384,-0.9735,-0.9591,-0.9291,-0.9207,-0.8888,-0.9019,-1.1111,-1.1603,-1.2143,-1.4407,-1.4622,-1.4898,-1.7515,-1.7657,-1.7344,-1.7344,-1.7903,-1.7501,-1.4451,-1.637,0.0,0.0,0.0,0.0,0.0,-2.2558,-2.2172,-2.0586,-1.9315,-1.8027,-1.6587,-1.4524,-1.3814,-1.502,-1.1114,-0.8861,-0.9364,-0.52,-0.2354,-0.1346,-0.0421,0.0,0.0,0.0,0.0674,0.2018,0.244,0.3365,0.4712,0.533,0.5556,0.5567,0.5684,0.5739,0.5741,0.5741,0.6809,0.8765,1.0629,1.2668,1.4441,1.4441,1.5601,1.7112,-1.8238,-1.7377,-1.6806,-1.7056,-1.7156,-1.6799,-1.5833,-1.5957,-1.5049,-1.1728,-1.0859,-0.961,-0.7041,-0.5159,-0.4122,-0.4122,-0.3411,-0.3228,-0.3841,-0.5662,-0.5742,-0.3657,-0.7,-0.7857,-0.5415,-0.9783,-1.2325,-1.2599,-1.537,-1.6749,-1.6698,-1.6451,-1.6377,-1.6377,-1.5793,-1.4481,-1.2546,-1.1154,-0.9026,-0.6713,-0.7067,-0.6856,-0.6283,-0.6243,-0.6396,-0.652,-0.6681,-0.7959,-0.913,-0.6889,-0.7513,-0.9215,-0.857,-0.8579,-0.8769,-0.8748,-0.8668,-0.868,-0.9273,-0.9446,-0.993,-1.1853,-1.2445,-1.3181,0.0,-1.6219,-1.632,-1.632,-1.6433,-1.6303,-1.5791,-1.6104,-1.6626,-1.7121,0.0,-1.951,-2.2321,-2.1798,-2.0887,-2.0436,-1.9146,-1.7904,-1.6812,-1.5033,-1.4366,-1.5337,-1.2375,-1.0184,-0.9447,-0.5989,-0.3166,-0.1346,-0.0421,0.0,0.0,0.0,0.0674,0.2018,0.244,0.3365,0.4712,0.529,0.5521,0.5564,0.564,0.5698,0.5741,0.5741,0.6809,0.8765,1.0629,1.3464,1.6401,1.6401,1.6665,1.7112,-1.7945,-1.6464,-1.5116,-1.4871,-1.3714,-1.2733,-1.2714,-1.2804,-1.1842,-0.8696,-0.7566,-0.6338,-0.465,-0.3559,-0.2874,-0.2874,-0.2874,-0.3404,-0.454,-0.4529,-0.4083,-0.3201,-0.423,-0.3971,-0.2058,-0.587,-0.8654,-1.0002,-1.2777,-1.4749,-1.5966,0.0,0.0,-1.6287,-1.5875,-1.4695,-1.2977,-1.0153,-0.764,-0.5512,-0.5895,-0.5172,0.0,-0.4555,-0.4368,-0.3815,-0.2945,-0.4293,-0.6261,-0.4385,-0.4923,-0.6439,-0.6059,-0.678,-0.7517,-0.6592,-0.7406,-0.851,-0.7881,-0.8242,-0.9197,-1.0482,-1.0712,-1.1328,-1.3645,-1.4186,-1.4128,0.0,-1.3655,-1.3214,-1.2795,-1.3591,-1.5175,-1.792,-1.7976,-1.8441,-2.0725,-1.9887,-1.9057,-1.9057,-1.7559,-1.6599,-1.6815,-1.5206,-1.4178,-1.4253,-1.2492,-1.0411,0.0,-0.5857,-0.3314,-0.0835,-0.0252,0.0,0.0,0.0168,0.0842,0.2018,0.2692,0.3617,0.4712,0.5277,0.5507,0.5564,0.5712,0.6216,0.6988,0.6988,0.8587,1.125,1.3198,1.5242,1.7112,1.7112,1.7112,1.7112,-1.6689,-1.4668,-1.3145,-1.3611,-1.1225,-0.9519,-1.0218,-1.0003,-0.8893,-0.6853,-0.5112,-0.4276,-0.454,-0.3553,-0.2874,-0.2874,-0.2874,-0.3841,-0.6174,-0.321,-0.241,-0.4582,-0.1604,0.0269,0.0359,-0.2055,-0.4763,-0.7428,-0.9987,-1.2771,0.0,0.0,0.0,0.0,-1.5958,-1.4817,-1.3056,-0.9504,-0.7047,-0.5472,-0.5439,-0.4029,-0.1971,-0.3045,-0.2955,-0.188,0.0717,-0.0269,-0.2685,-0.206,-0.2418,-0.313,-0.3457,-0.4888,-0.6079,-0.4345,-0.587,-0.7792,-0.6445,-0.7517,-0.9041,-0.9224,-0.9242,-0.9646,-1.1595,-1.1759,-1.1369,-1.1265,-1.0389,-0.9307,-0.8094,-0.9835,-1.3163,-1.8339,-1.7873,-1.713,-1.7893,-1.7445,-1.7063,-1.7035,-1.5377,0.0,-1.6153,-1.4971,-1.3771,-1.2943,-1.2179,-1.0265,0.0,0.0,-0.33,-0.0083,0.0,0.0,0.0,0.0505,0.1179,0.2018,0.2945,0.387,0.4712,0.5269,0.5493,0.5637,0.5961,0.6993,0.857,0.885,1.1072,1.453,1.6393,1.7112,1.7112,1.7112,1.7112,1.7112,-1.2701,-1.1765,-1.118,-1.1297,-0.9953,-0.8692,-0.8191,-0.7739,-0.6909,-0.535,-0.4608,-0.4017,-0.3304,-0.3046,-0.2874,-0.2874,-0.2874,-0.305,-0.358,-0.2242,-0.1256,-0.0984,0.0359,0.1526,0.2335,-0.0621,-0.2978,-0.4582,-0.7614,-1.0745,0.0,0.0,0.0,0.0,0.0,-1.1921,-0.8452,-0.6738,-0.4339,-0.1611,-0.0806,-0.0448,-0.0269,0.0718,0.1167,0.1436,0.2334,0.0538,-0.2149,-0.0806,-0.1969,-0.4118,-0.4557,-0.5273,-0.5814,-0.5449,-0.5454,-0.5373,-0.4383,-0.5814,-0.7163,-0.5638,-0.7194,-0.8987,-0.8686,-0.8714,-0.8844,-0.8826,-0.7733,-0.6742,-0.6794,0.0,-0.7617,-1.1588,-1.1294,-1.1604,-1.4727,-1.5168,-1.516,-1.5023,-1.4507,-1.3914,-1.3483,-1.3447,-1.3648,-1.4223,-1.349,-1.1255,-0.7211,0.0,-0.4183,0.0,0.0,0.0,0.0,0.0,0.1179,0.2018,0.2945,0.387,0.471,0.5227,0.5433,0.5579,0.7184,0.813,0.8657,1.0234,1.2225,1.453,1.6393,1.7112,1.7112,1.7112,1.7112,1.7112,-1.1291,-0.9911,-0.8994,-0.9277,-0.6447,-0.4284,-0.4618,-0.2819,-0.1683,-0.2206,-0.1062,0.0,0.0444,0.0714,0.0715,0.0356,0.0893,0.0625,-0.0623,0.1607,0.2328,0.0808,0.2601,0.3409,0.2874,0.1338,-0.0793,-0.3547,-0.5075,-0.7819,0.0,0.0,0.0,-1.3528,0.0,-0.9755,0.0,0.0,-0.3092,-0.1512,0.009,0.0898,0.1167,0.1616,0.2066,0.2604,0.2784,0.1884,0.0538,0.1256,0.009,-0.1703,-0.1703,-0.2507,-0.3312,-0.2328,-0.2954,-0.3576,-0.2145,-0.3307,-0.4738,-0.3844,-0.472,-0.5756,-0.5198,-0.5237,-0.5354,-0.5296,-0.399,-0.3113,-0.4125,-0.5794,-0.7589,-0.9253,-0.9114,-0.9307,-1.0679,-1.0547,-1.0307,-1.0168,-0.9691,-0.9993,-1.1445,-1.1613,-1.1632,-1.161,-1.2748,-1.0879,-0.5061,0.0,-0.4571,0.0,0.0,0.0,0.0337,0.0,0.1346,0.2692,0.3365,0.4206,0.5046,0.53,0.5921,0.6921,0.7937,0.9494,1.1521,1.3494,1.4889,1.5866,1.6753,1.7112,1.7112,1.7112,1.7112,1.7112,-0.9574,-0.7849,-0.6516,-0.6727,-0.2998,-0.0259,-0.0966,0.2042,0.348,0.0974,0.2562,0.3797,0.3709,0.4182,0.4277,0.3802,0.4624,0.4275,0.2389,0.5251,0.5722,0.2779,0.457,0.502,0.35,0.3143,0.1155,-0.252,-0.2602,-0.4871,0.0,0.0,0.0,0.0,0.0,0.0,0.0,0.0,-0.2117,-0.1592,0.0268,0.1436,0.1976,0.1795,0.2245,0.2874,0.2874,0.2874,0.2784,0.2964,0.2065,0.0898,0.1257,0.0359,-0.0448,0.1256,0.009,-0.1251,0.0447,-0.0626,-0.2143,-0.1786,-0.2143,-0.2496,-0.2209,-0.2114,-0.2098,-0.2059,-0.0767,-0.0084,-0.1402,-0.4336,0.0,-0.7348,-0.7328,-0.7179,-0.707,-0.676,-0.6435,-0.6013,-0.6133,-0.713,-0.9402,-0.9929,-0.9649,-0.8406,-1.121,-1.0158,-0.3649,-0.5584,-0.5045,0.0,0.0,-0.0754,-0.0084,0.0,0.2018,0.3367,0.387,0.4626,0.5384,0.5384,0.6418,0.8077,0.8676,1.1118,1.4764,1.6419,1.7112,1.7112,1.7112,1.7112,1.7112,1.7024,1.6928,1.6936,-0.528,-0.4519,-0.3589,-0.2673,-0.1483,-0.0088,0.1668,0.4702,0.5814,0.3042,0.3575,0.4109,0.3664,0.4378,0.4912,0.4818,0.5355,0.5533,0.5261,0.6427,0.6971,0.6614,0.5999,0.5644,0.5467,0.3769,0.1874,-0.0176,-0.0611,-0.2561,0.0,0.0,0.0,0.0,0.0,0.0,0.0,-0.1847,-0.0443,0.1074,0.1795,0.1795,0.1526,0.2425,0.2784,0.2874,0.2874,0.2604,0.2425,0.3231,0.2513,0.1347,0.1347,0.1257,0.1346,0.2423,0.2601,0.2601,0.3588,0.1881,0.0179,0.188,0.0358,-0.1342,-0.0447,-0.0177,-0.0176,-0.026,0.0512,0.109,0.0579,0.1082,0.0417,-0.3129,-0.2736,-0.2839,-0.5265,-0.6937,-0.7244,-0.5522,-0.8143,-0.9164,-0.6872,-0.9053,-0.9506,-0.6725,-0.9198,-0.9427,-0.6146,-0.6553,-0.5773,-0.3462,-0.2639,-0.2392,-0.2725,0.117,0.3197,0.3451,0.4206,0.4878,0.5384,0.5384,0.6389,0.8152,0.9929,1.2923,1.6601,1.6952,1.7112,1.7112,1.7112,1.7112,1.7024,1.6577,1.6489,1.6401,-0.1388,-0.1297,-0.0952,0.1496,0.3348,0.4674,0.5142,0.7577,0.8969,0.7937,0.7989,0.8315,0.8672,0.885,0.9002,0.9211,0.9964,0.9796,0.8321,1.0234,1.0362,0.8137,0.8761,0.8587,0.7427,0.6716,0.5523,0.3964,0.2268,0.0257,-0.2018,0.0,0.0,0.0,0.0,-0.1048,-0.0088,0.0888,0.1518,0.1884,0.2425,0.2515,0.2335,0.2784,0.2874,0.2874,0.2874,0.2962,0.3052,0.314,0.2602,0.1974,0.2512,0.2872,0.3231,0.359,0.4126,0.4664,0.5025,0.4303,0.3583,0.4393,0.3673,0.2955,0.3315,0.3484,0.3462,0.3426,0.2757,0.2452,0.343,0.1833,0.0499,0.1,0.025,-0.0416,-0.0503,-0.1679,-0.2179,-0.1419,-0.3067,-0.4283,-0.434,-0.6884,-0.8503,-0.8258,-1.0443,-1.0205,-0.6475,-0.7004,-0.6309,-0.3791,0.0,-0.0667,-0.0083,0.1929,0.3363,0.4206,0.4542,0.4962,0.5468,0.6469,0.8584,1.1412,1.3069,1.4975,1.6774,1.6309,1.6308,1.6665,1.6665,1.6489,1.6233,1.6401,1.6225,1.5873,0.1235,0.1406,0.1846,0.4834,0.65,0.7714,0.8397,0.9871,1.1088,1.1347,1.1289,1.1504,1.2217,1.2188,1.2219,1.2478,1.3262,1.3098,1.1324,1.3173,1.3135,1.0372,1.0994,1.0816,0.9477,0.8854,0.8106,0.7156,0.5245,0.3454,0.179,0.0,0.0,0.0,0.2199,0.23,0.2131,0.2861,0.2871,0.2603,0.2784,0.2874,0.2874,0.2874,0.2784,0.2694,0.2964,0.3231,0.3409,0.3499,0.3318,0.3139,0.3678,0.4038,0.4397,0.4666,0.5204,0.5741,0.5741,0.5741,0.5741,0.5741,0.5741,0.5741,0.5741,0.5741,0.5719,0.564,0.4416,0.3748,0.4972,0.2502,0.0914,0.2517,0.0,0.1082,0.1428,0.0925,0.0504,0.0418,-0.108,-0.2396,-0.3055,-0.5824,-0.7595,-0.7491,-0.9472,-0.9413,-0.635,-0.7044,0.0,0.0,0.0,0.0,0.1253,0.2768,0.3868,0.471,0.471,0.4878,0.53,0.7467,1.0174,1.3281,1.4776,1.5786,1.6269,1.5714,1.5741,1.6148,1.6148,1.5923,1.5704,1.5961,1.5785,1.544,0.2499,0.3485,0.5015,0.6967,0.6832,0.7591,1.0916,1.1558,1.182,1.2362,1.235,1.2344,1.2434,1.3133,1.3591,1.3584,1.4033,1.4299,1.421,1.4299,1.4299,1.421,1.242,1.1349,1.1349,0.9566,0.8579,0.8566,0.8117,0.7125,0.5625,0.0,0.214,0.2206,0.2648,0.3109,0.3588,0.3588,0.3588,0.35,0.3053,0.2874,0.2874,0.2874,0.2604,0.2334,0.323,0.3319,0.314,0.4483,0.4933,0.4843,0.4397,0.4307,0.4487,0.5383,0.5652,0.5741,0.5741,0.5741,0.5741,0.5741,0.5741,0.5741,0.5741,0.5741,0.5706,0.5586,0.5168,0.4772,0.4719,0.4288,0.3108,0.0503,0.0,0.0,-0.084,-0.126,-0.1422,-0.1737,-0.4946,-0.6101,-0.3469,-0.6503,-0.7013,-0.2893,-0.488,-0.6156,0.0,0.0,0.0,-0.181,-0.0823,0.0,-0.0411,0.3423,0.5132,0.471,0.471,0.471,0.4794,0.7964,1.0382,1.2229,1.4139,1.4974,1.5073,1.5238,1.5403,1.5545,1.5545,1.5563,1.5616,1.5168,1.4992,1.4911,0.6944,0.7044,0.7228,0.9798,1.0055,1.0281,1.1376,1.1917,1.2391,1.2926,1.3216,1.3552,1.3926,1.3458,1.3413,1.4033,1.421,1.4299,1.4299,1.4299,1.4299,1.4299,1.3673,1.3666,1.4285,1.3748,1.347,1.3457,0.0,0.0,0.0,0.7367,0.6909,0.6589,0.774,0.7403,0.6004,0.5644,0.5286,0.493,0.35,0.2874,0.2874,0.2874,0.2964,0.3231,0.3499,0.3947,0.4395,0.4843,0.5201,0.547,0.5293,0.5293,0.5293,0.5652,0.5741,0.5741,0.5741,0.5741,0.5741,0.5741,0.5741,0.5741,0.5741,0.5741,0.5617,0.5237,0.5028,0.4729,0.4303,0.412,0.3698,0.2856,0.3194,0.0,0.2436,0.1765,0.1428,0.1255,-0.0334,-0.1086,-0.0251,-0.2595,-0.4172,-0.4292,-0.5719,0.0,0.0,0.0,0.0,0.0,0.0997,0.0,0.2587,0.4446,0.5132,0.471,0.471,0.5795,0.7964,1.0216,1.2216,1.3887,1.4282,1.4619,1.4974,1.4358,1.4465,1.4865,1.4865,1.4722,1.4419,1.4678,1.4576,1.4405,0.8989,0.9264,0.9441,1.1273,1.1596,1.1542,1.1465,1.2226,1.2908,1.326,1.3744,1.4269,1.4642,1.3938,1.3679,1.421,1.4299,1.4299,1.4299,1.4653,1.4829,1.4829,1.5175,1.5616,1.6233,1.6233,0.0,1.6217,1.4062,1.2342,1.1122,1.0244,0.967,0.9384,0.9918,0.9384,0.7967,0.7427,0.707,0.6716,0.5554,0.4751,0.4216,0.4216,0.3947,0.3678,0.4037,0.4395,0.4753,0.5112,0.547,0.5741,0.5741,0.5741,0.5741,0.5741,0.5741,0.5741,0.5741,0.5741,0.5741,0.5741,0.5741,0.5652,0.547,0.547,0.5266,0.474,0.4533,0.4236,0.3822,0.3627,0.3532,0.3532,0.37,0.3785,0.3785,0.3281,0.2687,0.2089,0.1336,0.0752,0.0417,-0.0917,-0.1914,0.0,0.0,0.0,0.0,0.0,-0.0747,0.1987,0.3926,0.5373,0.6295,0.6214,0.5882,0.5463,0.5295,0.6797,0.9966,1.1053,1.2554,1.4225,1.3983,1.404,1.4376,1.379,1.3803,1.4188,1.4188,1.4053,1.3838,1.4187,1.4163,1.3987,0.8997,1.0364,1.1634,1.1623,1.1536,1.1554,1.1455,1.2554,1.326,1.326,1.4082,1.4726,1.4726,1.4468,1.4299,1.4299,1.4299,1.4299,1.4387,1.5175,1.5704,1.5793,1.6673,1.7112,1.72,1.72,1.7112,1.7112,1.533,1.453,1.4441,1.2137,1.1072,1.0895,1.0095,0.9651,0.9473,0.9032,0.8765,0.8765,0.8765,0.7874,0.6624,0.6713,0.5552,0.4037,0.493,0.4843,0.4487,0.5383,0.5741,0.5741,0.5741,0.5741,0.5741,0.5741,0.5741,0.5741,0.5741,0.5741,0.5652,0.5652,0.5652,0.5562,0.5201,0.5112,0.4919,0.4337,0.3855,0.3467,0.343,0.3052,0.2777,0.2777,0.3197,0.3449,0.3449,0.3449,0.2848,0.1323,0.0,0.0,-0.0743,-0.0826,-0.0083,0.0,0.0,0.0,0.0,0.0,0.124,0.7205,0.7376,0.8215,1.006,0.8382,0.7296,0.6801,0.6379,0.7714,1.0721,1.0809,1.1813,1.3403,1.3403,1.3403,1.3403,1.3403,1.3485,1.3614,1.3614,1.3695,1.381,1.381,1.3817,1.3824,1.062,1.1305,1.1607,1.1514,1.1552,1.1563,1.1471,1.2484,1.3126,1.3126,1.3939,1.4563,1.4563,1.4407,1.4299,1.4299,1.4299,1.4564,1.5352,1.5616,1.6057,1.6761,1.7024,1.7463,1.8164,1.7805,1.763,1.7647,1.6841,1.6401,1.6401,1.5506,1.4265,1.2933,1.3388,1.2857,1.1438,1.0994,1.0728,1.0634,0.9913,0.9286,0.8664,0.9366,0.8482,0.6889,0.7156,0.6448,0.5383,0.5652,0.5741,0.5741,0.5741,0.5741,0.5741,0.5741,0.5741,0.5741,0.5741,0.5741,0.5652,0.5291,0.547,0.5831,0.6547,0.6099,0.5365,0.4953,0.4116,0.3467,0.343,0.3308,0.3365,0.3616,0.3784,0.3868,0.3868,0.3868,0.3696,0.0,0.3179,0.3012,0.2761,0.2761,0.2337,0.0,0.0,0.34,0.4294,0.4207,0.5137,0.7296,0.7383,0.8136,0.9559,0.9142,0.872,0.8215,0.7714,0.8637,1.0721,1.2146,1.2982,1.3403,1.3403,1.3403,1.3403,1.3403,1.3424,1.3458,1.3458,1.3478,1.3505,1.3505,1.358,1.3682,1.0664,1.1241,1.1531,1.1465,1.1509,1.1642,1.19,1.2585,1.3192,1.3434,1.4106,1.4509,1.4509,1.4387,1.4299,1.4299,1.4653,1.5183,1.5704,1.6497,1.72,1.7726,1.8164,1.8514,1.8777,1.8593,1.8243,1.7822,1.7288,1.7024,1.6753,1.6313,1.5433,1.4272,1.455,1.4115,1.3135,1.3306,1.3394,1.3306,1.3022,1.2396,1.1594,1.1942,1.0973,0.9468,0.9468,0.8405,0.6988,0.6988,0.6273,0.538,0.538,0.5204,0.5025,0.5025,0.5204,0.5291,0.5114,0.5383,0.5741,0.5918,0.6186,0.6458,0.6815,0.6454,0.599,0.566,0.5163,0.4764,0.4969,0.4576,0.4372,0.4623,0.4437,0.4261,0.4285,0.427,0.4347,0.4621,0.4456,0.4288,0.4288,0.5041,0.5106,0.3989,0.5319,0.0,0.6876,0.7308,0.8248,0.98,0.9638,1.0221,1.1564,1.0476,0.9888,0.9638,0.9388,1.0138,1.1979,1.2982,1.3403,1.3403,1.3403,1.3403,1.3403,1.3403,1.3403,1.3403,1.3403,1.3403,1.3403,1.3403,1.3451,1.3526,1.0238,1.1046,1.1688,1.1688,1.1688,1.19,1.2464,1.2915,1.3391,1.3867,1.43,1.4482,1.4482,1.4373,1.4387,1.4476,1.5352,1.5881,1.5881,1.7551,1.8602,1.8689,1.9485,1.965,1.9204,1.903,1.8602,1.7647,1.7288,1.6841,1.6401,1.5881,1.544,1.4992,1.4476,1.4299,1.4476,1.5264,1.5616,1.5793,1.6313,1.5778,1.4618,1.4353,1.3198,1.1871,1.1871,1.0629,0.9032,0.8943,0.7338,0.5467,0.5378,0.4843,0.4307,0.4218,0.4574,0.4933,0.4576,0.5114,0.6099,0.7084,0.7263,0.7173,0.6902,0.6723,0.6614,0.6542,0.6382,0.6314,0.6846,0.6262,0.5625,0.5533,0.5493,0.5396,0.5109,0.0,0.5734,0.6047,0.5717,0.5379,0.5379,0.6797,0.771,0.771,0.8799,0.9721,1.0393,0.9976,1.0726,1.2803,1.2305,1.2644,1.3983,1.1807,1.0804,1.1142,1.0809,1.1641,1.3403,1.3403,1.3403,1.3403,1.3403,1.3403,1.3403,1.3403,1.3403,1.3403,1.3403,1.3403,1.3403,1.3403,1.3403,1.3403,1.1193,1.1955,1.2392,1.2392,1.2756,1.3035,1.3151,1.3416,1.3707,1.3823,1.4153,1.4333,1.4333,1.4312,1.4653,1.544,1.6321,1.6849,1.6849,1.7902,1.8864,1.9659,1.9834,1.965,1.9204,1.8427,1.7735,1.72,1.7112,1.6841,1.6401,1.5881,1.544,1.4992,1.4476,1.4564,1.4911,1.5087,1.5352,1.5793,1.6673,1.6577,1.613,1.6841,1.5778,1.3823,1.3823,1.2579,1.0895,1.054,0.9117,0.7424,0.6984,0.5649,0.4218,0.3859,0.4305,0.5112,0.5383,0.5918,0.6633,0.7527,0.7531,0.7352,0.8071,0.762,0.7153,0.7424,0.6822,0.64,0.7184,0.719,0.6864,0.6056,0.8065,0.9073,0.7203,0.0,1.0102,0.9471,0.8975,0.8641,0.8641,0.8892,0.9059,0.9059,0.9309,1.0143,1.1724,1.1303,1.1973,1.3811,1.2305,1.2139,1.3486,1.1641,1.1475,1.2982,1.1392,1.1641,1.3403,1.3403,1.3403,1.3403,1.3403,1.3403,1.3403,1.3403,1.3403,1.3403,1.3403,1.3403,1.3403,1.3403,1.3403,1.3403,1.1944,1.2551,1.2998,1.2998,1.3181,1.3388,1.3745,1.3906,1.3997,1.4269,1.4323,1.4907,1.6386,1.6545,1.6896,1.7859,1.8741,1.8925,1.7902,1.8689,1.9485,1.9921,1.965,1.9214,1.8427,1.7726,1.7288,1.7112,1.6841,1.6489,1.6049,1.5528,1.5352,1.5352,1.4911,1.5087,1.5785,1.6049,1.6233,1.6497,1.72,1.7375,1.72,1.7375,1.6753,1.5778,1.5513,1.4177,1.2491,1.2054,1.0451,0.8405,0.716,0.6359,0.5649,0.4305,0.4307,0.4935,0.6189,0.6726,0.7084,0.8067,0.8157,0.8071,0.8518,0.9045,0.9619,1.0068,1.0589,1.1174,1.1909,1.1403,1.0848,1.0381,1.0853,1.1012,0.9958,1.0853,1.137,1.0538,1.0216,0.9888,0.9476,1.031,1.0887,1.0887,1.1558,1.2312,1.3141,1.2727,1.2899,1.3735,1.2893,1.2727,1.3403,1.2561,1.2561,1.3403,1.2561,1.2561,1.3403,1.3403,1.3403,1.3403,1.3403,1.3403,1.3403,1.3403,1.3403,1.3403,1.3403,1.3403,1.3403,1.3403,1.3728,1.4059,1.2841,1.3638,1.4369,1.4277,1.4729,1.5321,1.5817,1.5703,1.5778,1.6408,1.6355,1.7056,1.9223,1.9457,1.9786,2.0702,2.1404,2.1338,2.0144,2.0761,2.0771,1.9921,1.9388,1.8689,1.7998,1.7288,1.6928,1.6928,1.7096,1.6912,1.6481,1.6817,1.6992,1.7088,1.6298,1.6386,1.7008,1.6928,1.7024,1.7112,1.7463,1.7647,1.7559,1.72,1.7112,1.7024,1.6665,1.5601,1.4177,1.3748,1.2054,1.0002,0.8405,0.8048,0.7784,0.5823,0.5112,0.5293,0.6815,0.771,0.8242,0.8518,0.8964,0.9139,0.8697,1.0091,1.1687,1.2152,1.3869,1.5371,1.5817,1.5013,1.4167,1.3713,0.0,1.2955,1.2541,1.2982,1.2975,1.2191,1.1789,1.138,1.0721,1.1724,1.2388,1.2388,1.3397,1.3901,1.3901,1.3569,1.3403,1.3403,1.3403,1.3403,1.3403,1.3403,1.3403,1.3403,1.3403,1.3403,1.3403,1.3403,1.3403,1.3403,1.3403,1.3403,1.3403,1.3403,1.3403,1.3403,1.3403,1.3403,1.3403,1.3403,1.3976,1.4631,1.4043,1.6046,1.7646,1.7173,1.9031,2.052,2.0631,2.0455,2.068,2.1649,2.1641,2.1856,2.2574,2.2629,2.2902,2.3641,2.3715,2.4069,2.4861,2.4947,2.3503,2.0095,1.9039,1.8514,1.8427,1.7104,1.6489,1.6489,1.8558,1.9324,1.888,2.147,2.2245,2.1373,1.9566,1.8889,1.8925,1.7184,1.6665,1.7112,1.7112,1.7112,1.7112,1.7112,1.7112,1.7112,1.7024,1.6665,1.613,1.5609,1.4441,1.3098,1.2485,1.1765,1.0692,0.8842,0.7699,0.6994,0.7173,0.913,1.0733,0.9049,0.9937,1.0733,0.896,1.0205,1.183,1.2214,1.3956,1.5484,1.5479,1.5358,1.4721,1.3003,0.0,0.0,1.4142,1.5975,1.7246,1.6353,1.5126,1.4383,1.43,1.3728,1.3314,1.3314,1.3403,1.3486,1.3486,1.3403,1.3403,1.3403,1.3403,1.3403,1.3403,1.3403,1.3403,1.3403,1.3403,1.3403,1.3403,1.3403,1.3403,1.3403,1.3403,1.3403,1.3403,1.3403,1.3403,1.3403,1.3403,1.3403,1.3403,1.3403,1.3976,1.4713,1.7756,1.8291,1.8761,1.9372,2.0272,2.0821,2.0821,2.0847,2.0834,2.1161,2.1801,2.2841,2.4546,2.5279,2.5933,2.6815,2.6651,2.6211,2.5458,2.5373,2.452,2.2557,2.2126,2.1002,1.9021,1.9535,1.9438,1.8471,2.0269,2.1307,2.1729,2.2493,2.2836,2.2761,2.1729,2.149,2.1608,1.9438,1.8663,1.875,1.7543,1.7112,1.7112,1.7112,1.7112,1.7024,1.6753,1.6577,1.6401,1.6225,1.5778,1.5147,1.3987,1.381,1.381,1.2485,1.1871,1.161,1.161,1.1527,1.1527,1.1971,1.2674,1.3028,1.2325,1.3786,1.5275,1.529,1.6986,1.8394,1.8274,1.7992,1.7556,1.6897,0.0,1.7892,1.6987,1.7792,1.8092,1.7273,1.6698,1.6122,1.5538,1.4713,1.4225,1.4225,1.3728,1.3403,1.3403,1.3403,1.3403,1.3403,1.3403,1.3403,1.3403,1.3403,1.3403,1.3403,1.3403,1.3403,1.3403,1.3403,1.3403,1.3403,1.3403,1.3403,1.3403,1.3403,1.3403,1.3486,1.3976,1.3894,1.348,1.3976,1.4796,1.5456,2.0686,2.0778,2.0953,2.1556,2.2162,2.2493,2.2422,2.2411,2.254,2.2742,2.3794,2.5175,2.6944,2.799,2.8834,2.9281,2.9074,2.8433,2.7168,2.6999,2.6151,2.452,2.4006,2.2708,2.0558,2.1424,2.1501,2.0443,2.2417,2.3704,2.4388,2.4814,2.507,2.5179,2.4143,2.3824,2.3846,2.1684,2.0732,2.0558,1.875,1.7972,1.7885,1.7279,1.7112,1.7024,1.6753,1.6577,1.6577,1.6577,1.6841,1.692,1.5843,1.5851,1.6034,1.533,1.4794,1.4441,1.5058,1.4353,1.3552,1.4353,1.497,1.522,1.4731,1.6152,1.7434,1.7256,1.8838,2.0149,1.9835,1.9479,1.9235,1.9163,1.8918,1.8673,1.8673,1.8673,1.851,1.7855,1.7609,1.7117,1.6525,1.562,1.5126,1.5126,1.43,1.3728,1.3403,1.3403,1.3403,1.3403,1.3403,1.3403,1.3403,1.3403,1.3403,1.3403,1.3403,1.3403,1.3403,1.3403,1.3403,1.3403,1.3403,1.3562,1.3811,1.3811,1.3976,1.4307,1.4878,1.4713,1.43,1.4878,1.5703,1.6361,2.2399,2.3683,2.4558,2.3842,2.5351,2.6544,2.6266,2.6218,2.657,2.7535,2.8745,2.9582,2.9928,3.108,3.1534,3.089,3.0817,3.0817,3.0817,3.0415,2.8796,2.5556,2.4081,2.3309,2.3309,2.2439,2.1911,2.1911,2.5155,2.6681,2.6779,2.9118,2.9914,2.9398,2.7096,2.5896,2.5288,2.3395,2.2622,2.2449,2.0645,1.996,1.97,1.7797,1.7112,1.7112,1.7112,1.7112,1.7112,1.7112,1.7726,1.8514,1.8514,1.7893,1.7088,1.7088,1.5763,1.4706,1.6649,1.7438,1.7342,1.5484,1.6458,1.738,1.5711,1.6657,1.7745,1.7561,1.8869,1.9886,1.9398,1.9316,1.9153,1.8755,1.8673,1.8673,1.8673,1.8673,1.8673,1.8673,1.7937,1.7445,1.7445,1.6525,1.6024,1.6024,1.5208,1.43,1.348,1.3403,1.3403,1.3403,1.3403,1.3403,1.3403,1.3403,1.3403,1.3403,1.3403,1.3403,1.3403,1.3403,1.3403,1.3403,1.3403,1.3894,1.4713,1.4713,1.5208,1.6024,1.6024,1.6024,1.6024,1.6024,1.6607,1.7363,2.5693,2.526,2.5014,2.5588,2.6027,2.6315,2.623,2.6061,2.6028,2.6289,2.8176,2.9407,2.9073,3.0652,3.1622,3.1198,3.0964,3.0665,3.0415,3.0263,2.9663,2.8362,2.7519,2.6406,2.4838,2.5701,2.5956,2.524,2.7564,2.8867,2.9216,2.9914,2.9747,2.8992,2.8305,2.7786,2.7279,2.6041,2.5105,2.4423,2.3298,2.1577,1.9873,1.9273,1.8051,1.6665,1.7375,1.7375,1.7288,1.8243,1.8768,1.9039,1.9388,1.9301,1.9039,1.9039,1.8681,1.8331,1.8943,1.9204,1.9204,1.9021,1.9259,1.9398,1.8894,1.8959,1.8949,1.8643,1.9052,1.9398,1.9,1.8918,1.8837,1.8755,1.8673,1.8673,1.8673,1.8673,1.8673,1.8673,1.8428,1.8346,1.8346,1.7519,1.6944,1.6944,1.6114,1.5538,1.5208,1.5208,1.5208,1.5208,1.5208,1.5126,1.4803,1.3562,1.3065,1.3403,1.3728,1.3728,1.3403,1.4059,1.3976,1.3397,1.4059,1.4465,1.4713,1.5373,1.5777,1.6106,1.6698,1.6451,1.5711,1.6616,1.6698,1.6542,2.7289,2.6382,2.5783,2.6609,2.6519,2.6374,2.6438,2.6549,2.6599,2.6599,2.8649,2.9844,2.9244,3.0738,3.1607,3.1154,3.0934,3.0665,3.0415,3.0415,3.0332,3.0067,2.9732,2.8712,2.6817,2.8025,2.8362,2.7817,2.9286,3.0081,3.0179,2.9998,2.9495,2.8824,2.8992,2.8908,2.8642,2.811,2.7506,2.683,2.502,2.3481,2.2105,2.0134,1.8916,1.8217,1.7718,1.7726,1.8068,1.8943,1.9292,1.9563,1.9834,1.9921,1.9921,1.9921,1.9921,1.9921,1.9921,1.9941,2.0135,2.0394,2.0373,2.0321,2.0323,1.9992,1.9527,1.9202,1.9086,1.9,1.8755,1.8673,1.8673,1.8673,1.8673,1.8673,1.8673,1.8673,1.8673,1.8673,1.8673,1.8673,1.8673,1.8183,1.7773,1.7445,1.6862,1.6361,1.6024,1.6024,1.6024,1.6024,1.6024,1.5867,1.562,1.4383,1.3887,1.4225,1.4473,1.4473,1.4225,1.4721,1.4721,1.4225,1.4878,1.5456,1.5785,1.6361,1.6772,1.71,1.7519,1.7108,1.6534,1.7355,1.7273,1.6862,2.7325,2.7015,2.6734,2.692,2.6748,2.6734,2.691,2.7491,2.8003,2.8003,2.9708,3.0629,3.0099,3.108,3.1534,3.0876,3.0817,3.0734,3.0651,3.0749,3.0734,3.0651,3.0817,3.0234,2.8992,2.9398,2.9649,2.9649,3.0401,3.0499,3.0095,2.9747,2.9328,2.8908,2.9314,2.9565,2.9649,2.9649,2.9565,2.923,2.6333,2.5568,2.5556,2.0905,2.0038,2.1068,1.8488,1.8331,1.9466,1.9379,1.9563,1.9921,1.9921,1.9921,1.9921,1.9921,1.9921,1.9998,2.0076,2.0259,2.0436,2.0311,2.0311,2.0288,2.0236,1.996,1.9551,1.9274,1.8918,1.8673,1.8673,1.8673,1.8673,1.8673,1.8673,1.8673,1.8673,1.8673,1.8673,1.8673,1.8673,1.8673,1.8673,1.8673,1.8346,1.7609,1.7527,1.7108,1.6279,1.6279,1.6279,1.6279,1.6279,1.6188,1.6188,1.5859,1.562,1.5381,1.5463,1.5463,1.5381,1.5463,1.5463,1.5381,1.5867,1.6525,1.7281,1.7445,1.7937,1.851,1.8174,1.7919,1.7928,1.7928,1.7928,1.7928,2.7098,2.7135,2.714,2.7167,2.7636,2.7956,2.7978,2.8451,2.8825,2.8825,3.0019,3.0629,3.0099,3.108,3.1534,3.0876,3.0817,3.0484,2.9816,3.0401,3.0484,2.9816,3.0817,3.1067,3.0401,3.0484,3.0484,3.0484,3.0415,3.0081,2.9649,2.9914,2.983,2.9314,2.9481,2.99,3.0484,3.0484,3.015,2.9481,2.9118,2.7759,2.5981,2.4434,2.347,2.2686,2.1328,2.1078,2.1165,2.0511,2.0095,1.9921,1.9921,1.9921,2.0008,2.0347,2.0434,2.0578,2.109,2.1265,2.1142,2.046,2.0286,2.0256,1.9907,1.9347,1.8894,1.8846,1.8755,1.8673,1.8673,1.8673,1.8673,1.8673,1.8673,1.8673,1.8673,1.8673,1.8673,1.8673,1.8673,1.8673,1.8673,1.8673,1.8592,1.8428,1.8428,1.8346,1.8101,1.8092,1.8092,1.8092,1.8092,1.7928,1.7592,1.7846,1.7108,1.5381,1.5703,1.5703,1.5381,1.5719,1.5711,1.5463,1.6196,1.6451,1.6377,1.7855,1.8101,1.7691,1.7928,1.76,1.7026,1.7355,1.7273,1.71,2.7735,2.7702,2.7751,2.873,2.8842,2.8818,2.9077,2.9631,3.0018,2.9866,3.0721,3.1167,3.068,3.1206,3.1359,3.0861,3.0817,3.0567,3.015,3.0998,3.1164,3.0484,3.1331,3.1497,3.0817,3.0817,3.0749,3.0499,3.0346,3.0095,2.983,3.0095,3.0165,3.015,3.0553,3.0969,3.1399,3.1399,3.1067,3.0401,2.9969,2.9132,2.7857,2.6054,2.5434,2.5349,2.3555,2.2622,2.204,2.0684,2.0095,1.9921,1.9921,2.0182,2.0607,2.0607,2.0972,2.1464,2.1607,2.1578,2.1515,2.1024,2.0878,2.0467,1.9483,1.8913,1.8673,1.8673,1.8673,1.8673,1.8673,1.8673,1.8673,1.8673,1.8673,1.8673,1.8673,1.8673,1.8673,1.8673,1.851,1.8265,1.8101,1.8265,1.8265,1.8101,1.8428,1.8592,1.8346,1.8592,1.8673,1.8673,1.8673,1.8592,1.8337,1.8592,1.8019,1.6607,1.6698,1.6698,1.6607,1.6698,1.6698,1.6698,1.71,1.7191,1.7026,1.7773,1.7773,1.7363,1.7355,1.7273,1.7026,1.7281,1.7527,1.7682,2.8787,2.8488,2.8478,3.0274,3.0024,2.9616,3.0042,3.0952,3.1439,3.1179,3.1881,3.2182,3.1686,3.13,3.104,3.0846,3.0817,3.0817,3.0817,3.1677,3.1926,3.1399,3.1926,3.1843,3.09,3.0998,3.0832,3.0346,3.0263,3.0291,3.0502,3.0527,3.0778,3.1155,3.1828,3.2128,3.2211,3.2046,3.173,3.1316,3.0067,2.9914,2.9998,2.7142,2.7142,2.8349,2.5689,2.3995,2.2815,2.1032,2.0434,2.0347,2.0172,2.0694,2.1292,2.1088,2.1721,2.232,2.2065,2.1922,2.1938,2.1812,2.1649,2.1092,1.9398,1.9,1.9,1.8837,1.8837,1.8918,1.9,1.9,1.9,1.8837,1.8837,1.8755,1.851,1.851,1.851,1.851,1.8092,1.7764,1.7445,1.7682,1.7764,1.7445,1.8101,1.8346,1.7928,1.8265,1.851,1.851,1.851,1.851,1.8592,1.8592,1.8428,1.8092,1.7682,1.7682,1.8001,1.7609,1.7609,1.801,1.801,1.7928,1.7846,1.7691,1.7527,1.7363,1.7026,1.7108,1.7445,1.7445,1.7937,1.851,2.9741,2.9614,2.9561,3.0178,3.0305,3.0467,3.0467,3.217,3.3319,3.3274,3.3994,3.4143,3.3035,3.1395,3.0473,3.0749,3.0817,3.0817,3.0817,3.1677,3.1843,3.09,3.1745,3.1926,3.1399,3.1828,3.1579,3.0749,3.0332,3.0727,3.1747,3.1866,3.2047,3.2404,3.2183,3.2309,3.2654,3.1896,3.1316,3.0817,3.022,3.0303,3.0582,2.9384,2.9802,3.0719,2.8433,2.6478,2.4788,2.3331,2.2568,2.2136,2.1379,2.1215,2.1435,2.2439,2.2788,2.3005,2.3232,2.3306,2.3202,2.2589,2.2429,2.2073,2.0688,2.0363,2.012,1.9398,1.9561,1.9967,2.0282,2.0363,2.012,1.9316,1.9235,1.8827,1.7691,1.7609,1.7609,1.7609,1.7527,1.7445,1.7445,1.7445,1.7445,1.7363,1.7527,1.7527,1.7445,1.7527,1.7609,1.7609,1.7609,1.7764,1.8092,1.8092,1.8255,1.8592,1.8174,1.7928,1.8001,1.7609,1.7609,1.801,1.801,1.7764,1.7527,1.8265,1.8101,1.7445,1.7682,1.7682,1.7445,1.7764,1.7764,1.7609,2.9637,3.0012,3.0539,3.1291,3.1568,3.1722,3.1722,3.2892,3.3707,3.3267,3.374,3.3761,3.2716,3.1593,3.1081,3.1497,3.1565,3.1399,3.1233,3.1828,3.176,3.0832,3.1164,3.1414,3.1482,3.1745,3.1919,3.2168,3.1322,3.1307,3.2024,3.2122,3.2468,3.312,3.2716,3.2654,3.2736,3.2159,3.1745,3.1579,3.1331,3.1233,3.115,3.0734,3.0817,3.0817,2.8867,2.7759,2.7071,2.5361,2.4349,2.3652,2.3176,2.2813,2.2695,2.2792,2.32,2.3632,2.3645,2.3643,2.3582,2.3073,2.297,2.2567,2.1265,2.1184,2.1022,1.9886,1.9886,2.013,2.0525,2.0607,2.0444,2.012,2.0039,1.9561,1.8346,1.8582,1.8582,1.7846,1.7273,1.6944,1.6624,1.6862,1.6862,1.6624,1.7117,1.7281,1.7026,1.7281,1.7363,1.7363,1.7363,1.7527,1.7682,1.7928,1.8092,1.8337,1.8337,1.8419,1.8346,1.7928,1.801,1.8346,1.8092,1.7928,1.7764,1.7937,1.7773,1.7363,1.7273,1.7191,1.7026,1.7519,1.7527,1.7445]}]]